<?xml version="1.0" encoding="UTF-8" standalone="no" ?>
<gpx xmlns="http://www.topografix.com/GPX/1/1" xmlns:xsi="http://www.w3.org/2001/XMLSchema-instance" xsi:schemaLocation="http://www.topografix.com/GPX/1/1 http://www.topografix.com/GPX/1/1/gpx.xsd" version="1.1" creator="VisuGPX - https://www.visugpx.com">
  <metadata>
    <name>Rocher Demoiselles 24-09-20</name>
    <desc><![CDATA[Boucle autour du rocher des Demoiselles. Parcours sans difficulté ne passant pas par les rochers.]]></desc>
  </metadata>
  <trk>
    <name><![CDATA[Rocher Demoiselles 24-09-20]]></name>
    <trkseg>
      <trkpt lat="48.37738" lon="2.67969">
        <ele>103.80000305176</ele>
        <time>2020-09-24T11:57:15Z</time>
      </trkpt>
      <trkpt lat="48.37739" lon="2.6797">
        <ele>104.19999694824</ele>
        <time>2020-09-24T11:57:20Z</time>
      </trkpt>
      <trkpt lat="48.37739" lon="2.67971">
        <ele>104.19999694824</ele>
        <time>2020-09-24T11:57:25Z</time>
      </trkpt>
      <trkpt lat="48.37739" lon="2.6797">
        <ele>104</ele>
        <time>2020-09-24T11:57:30Z</time>
      </trkpt>
      <trkpt lat="48.37739" lon="2.67969">
        <ele>103.59999847412</ele>
        <time>2020-09-24T11:57:35Z</time>
      </trkpt>
      <trkpt lat="48.37738" lon="2.67968">
        <ele>103.59999847412</ele>
        <time>2020-09-24T11:57:40Z</time>
      </trkpt>
      <trkpt lat="48.37739" lon="2.67967">
        <ele>103.59999847412</ele>
        <time>2020-09-24T11:57:45Z</time>
      </trkpt>
      <trkpt lat="48.37739" lon="2.67967">
        <ele>103.59999847412</ele>
        <time>2020-09-24T11:57:50Z</time>
      </trkpt>
      <trkpt lat="48.37738" lon="2.67968">
        <ele>103.59999847412</ele>
        <time>2020-09-24T11:57:55Z</time>
      </trkpt>
      <trkpt lat="48.37738" lon="2.67967">
        <ele>103.59999847412</ele>
        <time>2020-09-24T11:58:00Z</time>
      </trkpt>
      <trkpt lat="48.37736" lon="2.67964">
        <ele>103.59999847412</ele>
        <time>2020-09-24T11:58:05Z</time>
      </trkpt>
      <trkpt lat="48.37734" lon="2.67963">
        <ele>103.59999847412</ele>
        <time>2020-09-24T11:58:10Z</time>
      </trkpt>
      <trkpt lat="48.37733" lon="2.67962">
        <ele>103.59999847412</ele>
        <time>2020-09-24T11:58:15Z</time>
      </trkpt>
      <trkpt lat="48.37733" lon="2.67961">
        <ele>103.40000152588</ele>
        <time>2020-09-24T11:58:20Z</time>
      </trkpt>
      <trkpt lat="48.37732" lon="2.6796">
        <ele>103.40000152588</ele>
        <time>2020-09-24T11:58:25Z</time>
      </trkpt>
      <trkpt lat="48.37732" lon="2.67961">
        <ele>103.40000152588</ele>
        <time>2020-09-24T11:58:30Z</time>
      </trkpt>
      <trkpt lat="48.37732" lon="2.67961">
        <ele>103.40000152588</ele>
        <time>2020-09-24T11:58:35Z</time>
      </trkpt>
      <trkpt lat="48.37732" lon="2.67961">
        <ele>103.40000152588</ele>
        <time>2020-09-24T11:58:40Z</time>
      </trkpt>
      <trkpt lat="48.37732" lon="2.67961">
        <ele>103.40000152588</ele>
        <time>2020-09-24T11:58:45Z</time>
      </trkpt>
      <trkpt lat="48.37732" lon="2.67961">
        <ele>103.40000152588</ele>
        <time>2020-09-24T11:58:50Z</time>
      </trkpt>
      <trkpt lat="48.37731" lon="2.67962">
        <ele>103.40000152588</ele>
        <time>2020-09-24T11:58:55Z</time>
      </trkpt>
      <trkpt lat="48.3773" lon="2.67962">
        <ele>103.40000152588</ele>
        <time>2020-09-24T11:59:00Z</time>
      </trkpt>
      <trkpt lat="48.37729" lon="2.67962">
        <ele>103.40000152588</ele>
        <time>2020-09-24T11:59:05Z</time>
      </trkpt>
      <trkpt lat="48.37729" lon="2.67961">
        <ele>103.40000152588</ele>
        <time>2020-09-24T11:59:10Z</time>
      </trkpt>
      <trkpt lat="48.37729" lon="2.6796">
        <ele>103.40000152588</ele>
        <time>2020-09-24T11:59:15Z</time>
      </trkpt>
      <trkpt lat="48.37728" lon="2.67958">
        <ele>103.40000152588</ele>
        <time>2020-09-24T11:59:20Z</time>
      </trkpt>
      <trkpt lat="48.37727" lon="2.67955">
        <ele>103.40000152588</ele>
        <time>2020-09-24T11:59:25Z</time>
      </trkpt>
      <trkpt lat="48.37726" lon="2.67949">
        <ele>103.40000152588</ele>
        <time>2020-09-24T11:59:30Z</time>
      </trkpt>
      <trkpt lat="48.37727" lon="2.67946">
        <ele>103.40000152588</ele>
        <time>2020-09-24T11:59:35Z</time>
      </trkpt>
      <trkpt lat="48.37725" lon="2.67944">
        <ele>103.40000152588</ele>
        <time>2020-09-24T11:59:40Z</time>
      </trkpt>
      <trkpt lat="48.37724" lon="2.67939">
        <ele>103.40000152588</ele>
        <time>2020-09-24T11:59:45Z</time>
      </trkpt>
      <trkpt lat="48.37722" lon="2.67931">
        <ele>103.40000152588</ele>
        <time>2020-09-24T11:59:50Z</time>
      </trkpt>
      <trkpt lat="48.37721" lon="2.67925">
        <ele>103.40000152588</ele>
        <time>2020-09-24T11:59:55Z</time>
      </trkpt>
      <trkpt lat="48.37721" lon="2.67919">
        <ele>103.40000152588</ele>
        <time>2020-09-24T12:00:00Z</time>
      </trkpt>
      <trkpt lat="48.3772" lon="2.67913">
        <ele>103.40000152588</ele>
        <time>2020-09-24T12:00:05Z</time>
      </trkpt>
      <trkpt lat="48.37719" lon="2.67904">
        <ele>103.40000152588</ele>
        <time>2020-09-24T12:00:10Z</time>
      </trkpt>
      <trkpt lat="48.37719" lon="2.67898">
        <ele>103.40000152588</ele>
        <time>2020-09-24T12:00:15Z</time>
      </trkpt>
      <trkpt lat="48.37718" lon="2.67891">
        <ele>106</ele>
        <time>2020-09-24T12:00:20Z</time>
      </trkpt>
      <trkpt lat="48.37716" lon="2.67886">
        <ele>106.19999694824</ele>
        <time>2020-09-24T12:00:25Z</time>
      </trkpt>
      <trkpt lat="48.37715" lon="2.67879">
        <ele>106.19999694824</ele>
        <time>2020-09-24T12:00:30Z</time>
      </trkpt>
      <trkpt lat="48.37714" lon="2.67872">
        <ele>106.40000152588</ele>
        <time>2020-09-24T12:00:35Z</time>
      </trkpt>
      <trkpt lat="48.37714" lon="2.67865">
        <ele>106.59999847412</ele>
        <time>2020-09-24T12:00:40Z</time>
      </trkpt>
      <trkpt lat="48.37713" lon="2.67858">
        <ele>107</ele>
        <time>2020-09-24T12:00:45Z</time>
      </trkpt>
      <trkpt lat="48.37713" lon="2.6785">
        <ele>107.19999694824</ele>
        <time>2020-09-24T12:00:50Z</time>
      </trkpt>
      <trkpt lat="48.37713" lon="2.67841">
        <ele>107.59999847412</ele>
        <time>2020-09-24T12:00:55Z</time>
      </trkpt>
      <trkpt lat="48.37712" lon="2.67833">
        <ele>107.59999847412</ele>
        <time>2020-09-24T12:01:00Z</time>
      </trkpt>
      <trkpt lat="48.3771" lon="2.67825">
        <ele>108</ele>
        <time>2020-09-24T12:01:05Z</time>
      </trkpt>
      <trkpt lat="48.3771" lon="2.6782">
        <ele>108.19999694824</ele>
        <time>2020-09-24T12:01:10Z</time>
      </trkpt>
      <trkpt lat="48.3771" lon="2.67815">
        <ele>108.59999847412</ele>
        <time>2020-09-24T12:01:15Z</time>
      </trkpt>
      <trkpt lat="48.37709" lon="2.67806">
        <ele>108.80000305176</ele>
        <time>2020-09-24T12:01:20Z</time>
      </trkpt>
      <trkpt lat="48.37707" lon="2.67799">
        <ele>109.19999694824</ele>
        <time>2020-09-24T12:01:25Z</time>
      </trkpt>
      <trkpt lat="48.37706" lon="2.67791">
        <ele>109.40000152588</ele>
        <time>2020-09-24T12:01:30Z</time>
      </trkpt>
      <trkpt lat="48.37705" lon="2.67784">
        <ele>109.40000152588</ele>
        <time>2020-09-24T12:01:35Z</time>
      </trkpt>
      <trkpt lat="48.37704" lon="2.67775">
        <ele>109.59999847412</ele>
        <time>2020-09-24T12:01:40Z</time>
      </trkpt>
      <trkpt lat="48.37703" lon="2.67765">
        <ele>110.19999694824</ele>
        <time>2020-09-24T12:01:45Z</time>
      </trkpt>
      <trkpt lat="48.37701" lon="2.67757">
        <ele>110.40000152588</ele>
        <time>2020-09-24T12:01:50Z</time>
      </trkpt>
      <trkpt lat="48.37701" lon="2.6775">
        <ele>110.80000305176</ele>
        <time>2020-09-24T12:01:55Z</time>
      </trkpt>
      <trkpt lat="48.37702" lon="2.67742">
        <ele>111.19999694824</ele>
        <time>2020-09-24T12:02:00Z</time>
      </trkpt>
      <trkpt lat="48.37702" lon="2.67733">
        <ele>111.40000152588</ele>
        <time>2020-09-24T12:02:05Z</time>
      </trkpt>
      <trkpt lat="48.37702" lon="2.67724">
        <ele>111.80000305176</ele>
        <time>2020-09-24T12:02:10Z</time>
      </trkpt>
      <trkpt lat="48.37701" lon="2.67716">
        <ele>112.40000152588</ele>
        <time>2020-09-24T12:02:15Z</time>
      </trkpt>
      <trkpt lat="48.377" lon="2.67708">
        <ele>112.80000305176</ele>
        <time>2020-09-24T12:02:20Z</time>
      </trkpt>
      <trkpt lat="48.37699" lon="2.67703">
        <ele>113.19999694824</ele>
        <time>2020-09-24T12:02:25Z</time>
      </trkpt>
      <trkpt lat="48.37697" lon="2.67694">
        <ele>113.80000305176</ele>
        <time>2020-09-24T12:02:30Z</time>
      </trkpt>
      <trkpt lat="48.37697" lon="2.67688">
        <ele>114.40000152588</ele>
        <time>2020-09-24T12:02:35Z</time>
      </trkpt>
      <trkpt lat="48.37696" lon="2.6768">
        <ele>115</ele>
        <time>2020-09-24T12:02:40Z</time>
      </trkpt>
      <trkpt lat="48.37696" lon="2.67672">
        <ele>115.59999847412</ele>
        <time>2020-09-24T12:02:45Z</time>
      </trkpt>
      <trkpt lat="48.37695" lon="2.67662">
        <ele>116.40000152588</ele>
        <time>2020-09-24T12:02:50Z</time>
      </trkpt>
      <trkpt lat="48.37693" lon="2.67654">
        <ele>116.80000305176</ele>
        <time>2020-09-24T12:02:55Z</time>
      </trkpt>
      <trkpt lat="48.37692" lon="2.67644">
        <ele>117</ele>
        <time>2020-09-24T12:03:00Z</time>
      </trkpt>
      <trkpt lat="48.37692" lon="2.67637">
        <ele>117.40000152588</ele>
        <time>2020-09-24T12:03:05Z</time>
      </trkpt>
      <trkpt lat="48.37693" lon="2.6763">
        <ele>117.80000305176</ele>
        <time>2020-09-24T12:03:10Z</time>
      </trkpt>
      <trkpt lat="48.37692" lon="2.67623">
        <ele>118</ele>
        <time>2020-09-24T12:03:15Z</time>
      </trkpt>
      <trkpt lat="48.37693" lon="2.67615">
        <ele>118.59999847412</ele>
        <time>2020-09-24T12:03:20Z</time>
      </trkpt>
      <trkpt lat="48.37692" lon="2.67607">
        <ele>119</ele>
        <time>2020-09-24T12:03:25Z</time>
      </trkpt>
      <trkpt lat="48.37692" lon="2.67598">
        <ele>119.80000305176</ele>
        <time>2020-09-24T12:03:30Z</time>
      </trkpt>
      <trkpt lat="48.37691" lon="2.6759">
        <ele>120.59999847412</ele>
        <time>2020-09-24T12:03:35Z</time>
      </trkpt>
      <trkpt lat="48.37689" lon="2.67581">
        <ele>121.19999694824</ele>
        <time>2020-09-24T12:03:40Z</time>
      </trkpt>
      <trkpt lat="48.37689" lon="2.67575">
        <ele>121.40000152588</ele>
        <time>2020-09-24T12:03:45Z</time>
      </trkpt>
      <trkpt lat="48.37688" lon="2.67567">
        <ele>122</ele>
        <time>2020-09-24T12:03:50Z</time>
      </trkpt>
      <trkpt lat="48.37685" lon="2.67559">
        <ele>122.40000152588</ele>
        <time>2020-09-24T12:03:55Z</time>
      </trkpt>
      <trkpt lat="48.37683" lon="2.67552">
        <ele>123</ele>
        <time>2020-09-24T12:04:00Z</time>
      </trkpt>
      <trkpt lat="48.37681" lon="2.67544">
        <ele>123.80000305176</ele>
        <time>2020-09-24T12:04:05Z</time>
      </trkpt>
      <trkpt lat="48.3768" lon="2.67538">
        <ele>124.80000305176</ele>
        <time>2020-09-24T12:04:10Z</time>
      </trkpt>
      <trkpt lat="48.37682" lon="2.67534">
        <ele>125.59999847412</ele>
        <time>2020-09-24T12:04:15Z</time>
      </trkpt>
      <trkpt lat="48.37684" lon="2.67529">
        <ele>126</ele>
        <time>2020-09-24T12:04:20Z</time>
      </trkpt>
      <trkpt lat="48.37687" lon="2.67522">
        <ele>126.19999694824</ele>
        <time>2020-09-24T12:04:25Z</time>
      </trkpt>
      <trkpt lat="48.37689" lon="2.67516">
        <ele>126.59999847412</ele>
        <time>2020-09-24T12:04:30Z</time>
      </trkpt>
      <trkpt lat="48.3769" lon="2.67507">
        <ele>126.80000305176</ele>
        <time>2020-09-24T12:04:35Z</time>
      </trkpt>
      <trkpt lat="48.37692" lon="2.67499">
        <ele>127.59999847412</ele>
        <time>2020-09-24T12:04:40Z</time>
      </trkpt>
      <trkpt lat="48.37694" lon="2.67493">
        <ele>128.19999694824</ele>
        <time>2020-09-24T12:04:45Z</time>
      </trkpt>
      <trkpt lat="48.37696" lon="2.67487">
        <ele>128.39999389648</ele>
        <time>2020-09-24T12:04:50Z</time>
      </trkpt>
      <trkpt lat="48.37696" lon="2.67485">
        <ele>128.39999389648</ele>
        <time>2020-09-24T12:04:55Z</time>
      </trkpt>
      <trkpt lat="48.37696" lon="2.67485">
        <ele>128.39999389648</ele>
        <time>2020-09-24T12:05:00Z</time>
      </trkpt>
      <trkpt lat="48.37697" lon="2.67479">
        <ele>129</ele>
        <time>2020-09-24T12:05:05Z</time>
      </trkpt>
      <trkpt lat="48.37697" lon="2.67469">
        <ele>129.19999694824</ele>
        <time>2020-09-24T12:05:10Z</time>
      </trkpt>
      <trkpt lat="48.37698" lon="2.67461">
        <ele>129.60000610352</ele>
        <time>2020-09-24T12:05:15Z</time>
      </trkpt>
      <trkpt lat="48.377" lon="2.67454">
        <ele>130</ele>
        <time>2020-09-24T12:05:20Z</time>
      </trkpt>
      <trkpt lat="48.37701" lon="2.67447">
        <ele>130.39999389648</ele>
        <time>2020-09-24T12:05:25Z</time>
      </trkpt>
      <trkpt lat="48.37702" lon="2.67441">
        <ele>130.60000610352</ele>
        <time>2020-09-24T12:05:30Z</time>
      </trkpt>
      <trkpt lat="48.37703" lon="2.67431">
        <ele>130.60000610352</ele>
        <time>2020-09-24T12:05:35Z</time>
      </trkpt>
      <trkpt lat="48.37705" lon="2.67423">
        <ele>130.80000305176</ele>
        <time>2020-09-24T12:05:40Z</time>
      </trkpt>
      <trkpt lat="48.37707" lon="2.67415">
        <ele>131.39999389648</ele>
        <time>2020-09-24T12:05:45Z</time>
      </trkpt>
      <trkpt lat="48.37708" lon="2.67408">
        <ele>131.39999389648</ele>
        <time>2020-09-24T12:05:50Z</time>
      </trkpt>
      <trkpt lat="48.37709" lon="2.67399">
        <ele>131.60000610352</ele>
        <time>2020-09-24T12:05:55Z</time>
      </trkpt>
      <trkpt lat="48.37709" lon="2.67393">
        <ele>132</ele>
        <time>2020-09-24T12:06:00Z</time>
      </trkpt>
      <trkpt lat="48.3771" lon="2.67385">
        <ele>132.39999389648</ele>
        <time>2020-09-24T12:06:05Z</time>
      </trkpt>
      <trkpt lat="48.37709" lon="2.6738">
        <ele>132.80000305176</ele>
        <time>2020-09-24T12:06:10Z</time>
      </trkpt>
      <trkpt lat="48.37709" lon="2.67378">
        <ele>132.80000305176</ele>
        <time>2020-09-24T12:06:15Z</time>
      </trkpt>
      <trkpt lat="48.37709" lon="2.67377">
        <ele>132.80000305176</ele>
        <time>2020-09-24T12:06:20Z</time>
      </trkpt>
      <trkpt lat="48.37707" lon="2.67374">
        <ele>132.60000610352</ele>
        <time>2020-09-24T12:06:25Z</time>
      </trkpt>
      <trkpt lat="48.37705" lon="2.67368">
        <ele>132.60000610352</ele>
        <time>2020-09-24T12:06:30Z</time>
      </trkpt>
      <trkpt lat="48.37704" lon="2.67363">
        <ele>132.80000305176</ele>
        <time>2020-09-24T12:06:35Z</time>
      </trkpt>
      <trkpt lat="48.37704" lon="2.67357">
        <ele>133</ele>
        <time>2020-09-24T12:06:40Z</time>
      </trkpt>
      <trkpt lat="48.37703" lon="2.67351">
        <ele>132.80000305176</ele>
        <time>2020-09-24T12:06:45Z</time>
      </trkpt>
      <trkpt lat="48.37701" lon="2.67344">
        <ele>133</ele>
        <time>2020-09-24T12:06:50Z</time>
      </trkpt>
      <trkpt lat="48.37697" lon="2.67336">
        <ele>133</ele>
        <time>2020-09-24T12:06:55Z</time>
      </trkpt>
      <trkpt lat="48.37695" lon="2.67328">
        <ele>133</ele>
        <time>2020-09-24T12:07:00Z</time>
      </trkpt>
      <trkpt lat="48.37693" lon="2.67323">
        <ele>133</ele>
        <time>2020-09-24T12:07:05Z</time>
      </trkpt>
      <trkpt lat="48.3769" lon="2.67317">
        <ele>133.39999389648</ele>
        <time>2020-09-24T12:07:10Z</time>
      </trkpt>
      <trkpt lat="48.37688" lon="2.67311">
        <ele>133.80000305176</ele>
        <time>2020-09-24T12:07:15Z</time>
      </trkpt>
      <trkpt lat="48.37687" lon="2.67304">
        <ele>133.80000305176</ele>
        <time>2020-09-24T12:07:20Z</time>
      </trkpt>
      <trkpt lat="48.37685" lon="2.67299">
        <ele>133.80000305176</ele>
        <time>2020-09-24T12:07:25Z</time>
      </trkpt>
      <trkpt lat="48.37682" lon="2.67293">
        <ele>134.19999694824</ele>
        <time>2020-09-24T12:07:30Z</time>
      </trkpt>
      <trkpt lat="48.3768" lon="2.67286">
        <ele>134.19999694824</ele>
        <time>2020-09-24T12:07:35Z</time>
      </trkpt>
      <trkpt lat="48.37677" lon="2.6728">
        <ele>134.19999694824</ele>
        <time>2020-09-24T12:07:40Z</time>
      </trkpt>
      <trkpt lat="48.37674" lon="2.67272">
        <ele>134.39999389648</ele>
        <time>2020-09-24T12:07:45Z</time>
      </trkpt>
      <trkpt lat="48.37672" lon="2.67266">
        <ele>134.60000610352</ele>
        <time>2020-09-24T12:07:50Z</time>
      </trkpt>
      <trkpt lat="48.3767" lon="2.67259">
        <ele>134.80000305176</ele>
        <time>2020-09-24T12:07:55Z</time>
      </trkpt>
      <trkpt lat="48.37668" lon="2.67252">
        <ele>134.80000305176</ele>
        <time>2020-09-24T12:08:00Z</time>
      </trkpt>
      <trkpt lat="48.37667" lon="2.67245">
        <ele>135</ele>
        <time>2020-09-24T12:08:05Z</time>
      </trkpt>
      <trkpt lat="48.37664" lon="2.67238">
        <ele>135.19999694824</ele>
        <time>2020-09-24T12:08:10Z</time>
      </trkpt>
      <trkpt lat="48.37662" lon="2.67231">
        <ele>135.19999694824</ele>
        <time>2020-09-24T12:08:15Z</time>
      </trkpt>
      <trkpt lat="48.37659" lon="2.67222">
        <ele>135.39999389648</ele>
        <time>2020-09-24T12:08:20Z</time>
      </trkpt>
      <trkpt lat="48.37657" lon="2.67215">
        <ele>135.39999389648</ele>
        <time>2020-09-24T12:08:25Z</time>
      </trkpt>
      <trkpt lat="48.37653" lon="2.67209">
        <ele>135.60000610352</ele>
        <time>2020-09-24T12:08:30Z</time>
      </trkpt>
      <trkpt lat="48.3765" lon="2.67201">
        <ele>135.60000610352</ele>
        <time>2020-09-24T12:08:35Z</time>
      </trkpt>
      <trkpt lat="48.37647" lon="2.67193">
        <ele>135.39999389648</ele>
        <time>2020-09-24T12:08:40Z</time>
      </trkpt>
      <trkpt lat="48.37645" lon="2.67186">
        <ele>135.19999694824</ele>
        <time>2020-09-24T12:08:45Z</time>
      </trkpt>
      <trkpt lat="48.37643" lon="2.67177">
        <ele>135</ele>
        <time>2020-09-24T12:08:50Z</time>
      </trkpt>
      <trkpt lat="48.3764" lon="2.67168">
        <ele>134.80000305176</ele>
        <time>2020-09-24T12:08:55Z</time>
      </trkpt>
      <trkpt lat="48.37637" lon="2.67158">
        <ele>134.80000305176</ele>
        <time>2020-09-24T12:09:00Z</time>
      </trkpt>
      <trkpt lat="48.37639" lon="2.67148">
        <ele>134.80000305176</ele>
        <time>2020-09-24T12:09:05Z</time>
      </trkpt>
      <trkpt lat="48.3764" lon="2.67138">
        <ele>135</ele>
        <time>2020-09-24T12:09:10Z</time>
      </trkpt>
      <trkpt lat="48.37643" lon="2.67133">
        <ele>135</ele>
        <time>2020-09-24T12:09:15Z</time>
      </trkpt>
      <trkpt lat="48.37647" lon="2.67125">
        <ele>134.80000305176</ele>
        <time>2020-09-24T12:09:20Z</time>
      </trkpt>
      <trkpt lat="48.3765" lon="2.67119">
        <ele>134.60000610352</ele>
        <time>2020-09-24T12:09:25Z</time>
      </trkpt>
      <trkpt lat="48.37654" lon="2.67113">
        <ele>134.60000610352</ele>
        <time>2020-09-24T12:09:30Z</time>
      </trkpt>
      <trkpt lat="48.37658" lon="2.67107">
        <ele>134.60000610352</ele>
        <time>2020-09-24T12:09:35Z</time>
      </trkpt>
      <trkpt lat="48.37661" lon="2.67101">
        <ele>134.80000305176</ele>
        <time>2020-09-24T12:09:40Z</time>
      </trkpt>
      <trkpt lat="48.37665" lon="2.67093">
        <ele>134.80000305176</ele>
        <time>2020-09-24T12:09:45Z</time>
      </trkpt>
      <trkpt lat="48.37668" lon="2.67086">
        <ele>134.80000305176</ele>
        <time>2020-09-24T12:09:50Z</time>
      </trkpt>
      <trkpt lat="48.37672" lon="2.6708">
        <ele>134.80000305176</ele>
        <time>2020-09-24T12:09:55Z</time>
      </trkpt>
      <trkpt lat="48.37676" lon="2.67076">
        <ele>134.60000610352</ele>
        <time>2020-09-24T12:10:00Z</time>
      </trkpt>
      <trkpt lat="48.3768" lon="2.6707">
        <ele>134.60000610352</ele>
        <time>2020-09-24T12:10:05Z</time>
      </trkpt>
      <trkpt lat="48.37684" lon="2.67063">
        <ele>134.39999389648</ele>
        <time>2020-09-24T12:10:10Z</time>
      </trkpt>
      <trkpt lat="48.37687" lon="2.67056">
        <ele>134</ele>
        <time>2020-09-24T12:10:15Z</time>
      </trkpt>
      <trkpt lat="48.37691" lon="2.6705">
        <ele>133.80000305176</ele>
        <time>2020-09-24T12:10:20Z</time>
      </trkpt>
      <trkpt lat="48.37695" lon="2.67044">
        <ele>133.39999389648</ele>
        <time>2020-09-24T12:10:25Z</time>
      </trkpt>
      <trkpt lat="48.377" lon="2.67038">
        <ele>133.39999389648</ele>
        <time>2020-09-24T12:10:30Z</time>
      </trkpt>
      <trkpt lat="48.37703" lon="2.67031">
        <ele>133.39999389648</ele>
        <time>2020-09-24T12:10:35Z</time>
      </trkpt>
      <trkpt lat="48.37707" lon="2.67025">
        <ele>133.19999694824</ele>
        <time>2020-09-24T12:10:40Z</time>
      </trkpt>
      <trkpt lat="48.37709" lon="2.67019">
        <ele>133</ele>
        <time>2020-09-24T12:10:45Z</time>
      </trkpt>
      <trkpt lat="48.37713" lon="2.67012">
        <ele>132.60000610352</ele>
        <time>2020-09-24T12:10:50Z</time>
      </trkpt>
      <trkpt lat="48.37717" lon="2.67006">
        <ele>132.39999389648</ele>
        <time>2020-09-24T12:10:55Z</time>
      </trkpt>
      <trkpt lat="48.37721" lon="2.67">
        <ele>131.80000305176</ele>
        <time>2020-09-24T12:11:00Z</time>
      </trkpt>
      <trkpt lat="48.37724" lon="2.66994">
        <ele>131</ele>
        <time>2020-09-24T12:11:05Z</time>
      </trkpt>
      <trkpt lat="48.37731" lon="2.66993">
        <ele>129.60000610352</ele>
        <time>2020-09-24T12:16:45Z</time>
      </trkpt>
      <trkpt lat="48.37734" lon="2.66986">
        <ele>129.60000610352</ele>
        <time>2020-09-24T12:16:50Z</time>
      </trkpt>
      <trkpt lat="48.37736" lon="2.6698">
        <ele>129.60000610352</ele>
        <time>2020-09-24T12:16:55Z</time>
      </trkpt>
      <trkpt lat="48.37739" lon="2.66975">
        <ele>129.60000610352</ele>
        <time>2020-09-24T12:17:00Z</time>
      </trkpt>
      <trkpt lat="48.37741" lon="2.66969">
        <ele>129.80000305176</ele>
        <time>2020-09-24T12:17:05Z</time>
      </trkpt>
      <trkpt lat="48.37743" lon="2.66963">
        <ele>129.39999389648</ele>
        <time>2020-09-24T12:17:10Z</time>
      </trkpt>
      <trkpt lat="48.37745" lon="2.66957">
        <ele>129</ele>
        <time>2020-09-24T12:17:15Z</time>
      </trkpt>
      <trkpt lat="48.37745" lon="2.6695">
        <ele>128.19999694824</ele>
        <time>2020-09-24T12:17:20Z</time>
      </trkpt>
      <trkpt lat="48.37747" lon="2.66941">
        <ele>127.40000152588</ele>
        <time>2020-09-24T12:17:25Z</time>
      </trkpt>
      <trkpt lat="48.37749" lon="2.66934">
        <ele>126.59999847412</ele>
        <time>2020-09-24T12:17:30Z</time>
      </trkpt>
      <trkpt lat="48.3775" lon="2.66929">
        <ele>125.80000305176</ele>
        <time>2020-09-24T12:17:35Z</time>
      </trkpt>
      <trkpt lat="48.37753" lon="2.66921">
        <ele>124.80000305176</ele>
        <time>2020-09-24T12:17:40Z</time>
      </trkpt>
      <trkpt lat="48.37755" lon="2.66914">
        <ele>123.59999847412</ele>
        <time>2020-09-24T12:17:45Z</time>
      </trkpt>
      <trkpt lat="48.37756" lon="2.66905">
        <ele>122.80000305176</ele>
        <time>2020-09-24T12:17:50Z</time>
      </trkpt>
      <trkpt lat="48.37756" lon="2.66897">
        <ele>122</ele>
        <time>2020-09-24T12:17:55Z</time>
      </trkpt>
      <trkpt lat="48.37758" lon="2.66891">
        <ele>121.19999694824</ele>
        <time>2020-09-24T12:18:00Z</time>
      </trkpt>
      <trkpt lat="48.37761" lon="2.66885">
        <ele>120.59999847412</ele>
        <time>2020-09-24T12:18:05Z</time>
      </trkpt>
      <trkpt lat="48.37762" lon="2.66881">
        <ele>119.80000305176</ele>
        <time>2020-09-24T12:18:10Z</time>
      </trkpt>
      <trkpt lat="48.37762" lon="2.66873">
        <ele>119.19999694824</ele>
        <time>2020-09-24T12:18:15Z</time>
      </trkpt>
      <trkpt lat="48.37765" lon="2.66865">
        <ele>118</ele>
        <time>2020-09-24T12:18:20Z</time>
      </trkpt>
      <trkpt lat="48.37768" lon="2.66856">
        <ele>117.19999694824</ele>
        <time>2020-09-24T12:18:25Z</time>
      </trkpt>
      <trkpt lat="48.37771" lon="2.66848">
        <ele>116.19999694824</ele>
        <time>2020-09-24T12:18:30Z</time>
      </trkpt>
      <trkpt lat="48.37774" lon="2.66839">
        <ele>115.59999847412</ele>
        <time>2020-09-24T12:18:35Z</time>
      </trkpt>
      <trkpt lat="48.37776" lon="2.66833">
        <ele>114.80000305176</ele>
        <time>2020-09-24T12:18:40Z</time>
      </trkpt>
      <trkpt lat="48.37778" lon="2.6683">
        <ele>114.19999694824</ele>
        <time>2020-09-24T12:18:45Z</time>
      </trkpt>
      <trkpt lat="48.37779" lon="2.66826">
        <ele>113.80000305176</ele>
        <time>2020-09-24T12:18:50Z</time>
      </trkpt>
      <trkpt lat="48.37781" lon="2.66817">
        <ele>113</ele>
        <time>2020-09-24T12:18:55Z</time>
      </trkpt>
      <trkpt lat="48.37781" lon="2.6681">
        <ele>112.59999847412</ele>
        <time>2020-09-24T12:19:00Z</time>
      </trkpt>
      <trkpt lat="48.37783" lon="2.66803">
        <ele>112</ele>
        <time>2020-09-24T12:19:05Z</time>
      </trkpt>
      <trkpt lat="48.37785" lon="2.66797">
        <ele>111.19999694824</ele>
        <time>2020-09-24T12:19:10Z</time>
      </trkpt>
      <trkpt lat="48.37788" lon="2.6679">
        <ele>110.80000305176</ele>
        <time>2020-09-24T12:19:15Z</time>
      </trkpt>
      <trkpt lat="48.3779" lon="2.66783">
        <ele>110.40000152588</ele>
        <time>2020-09-24T12:19:20Z</time>
      </trkpt>
      <trkpt lat="48.37793" lon="2.66776">
        <ele>110</ele>
        <time>2020-09-24T12:19:25Z</time>
      </trkpt>
      <trkpt lat="48.37795" lon="2.66769">
        <ele>109.59999847412</ele>
        <time>2020-09-24T12:19:30Z</time>
      </trkpt>
      <trkpt lat="48.37798" lon="2.66762">
        <ele>109.19999694824</ele>
        <time>2020-09-24T12:19:35Z</time>
      </trkpt>
      <trkpt lat="48.37801" lon="2.66755">
        <ele>108.59999847412</ele>
        <time>2020-09-24T12:19:40Z</time>
      </trkpt>
      <trkpt lat="48.37804" lon="2.66747">
        <ele>108.40000152588</ele>
        <time>2020-09-24T12:19:45Z</time>
      </trkpt>
      <trkpt lat="48.37806" lon="2.66738">
        <ele>108.19999694824</ele>
        <time>2020-09-24T12:19:50Z</time>
      </trkpt>
      <trkpt lat="48.37809" lon="2.6673">
        <ele>108</ele>
        <time>2020-09-24T12:19:55Z</time>
      </trkpt>
      <trkpt lat="48.37812" lon="2.66722">
        <ele>107.80000305176</ele>
        <time>2020-09-24T12:20:00Z</time>
      </trkpt>
      <trkpt lat="48.37813" lon="2.66716">
        <ele>107.40000152588</ele>
        <time>2020-09-24T12:20:05Z</time>
      </trkpt>
      <trkpt lat="48.37814" lon="2.66708">
        <ele>107.40000152588</ele>
        <time>2020-09-24T12:20:10Z</time>
      </trkpt>
      <trkpt lat="48.37814" lon="2.667">
        <ele>107.19999694824</ele>
        <time>2020-09-24T12:20:15Z</time>
      </trkpt>
      <trkpt lat="48.37816" lon="2.66692">
        <ele>107</ele>
        <time>2020-09-24T12:20:20Z</time>
      </trkpt>
      <trkpt lat="48.37818" lon="2.66684">
        <ele>106.80000305176</ele>
        <time>2020-09-24T12:20:25Z</time>
      </trkpt>
      <trkpt lat="48.37821" lon="2.66677">
        <ele>106.59999847412</ele>
        <time>2020-09-24T12:20:30Z</time>
      </trkpt>
      <trkpt lat="48.37823" lon="2.6667">
        <ele>106.40000152588</ele>
        <time>2020-09-24T12:20:35Z</time>
      </trkpt>
      <trkpt lat="48.37826" lon="2.66662">
        <ele>106</ele>
        <time>2020-09-24T12:20:40Z</time>
      </trkpt>
      <trkpt lat="48.37828" lon="2.66654">
        <ele>105.80000305176</ele>
        <time>2020-09-24T12:20:45Z</time>
      </trkpt>
      <trkpt lat="48.37831" lon="2.66646">
        <ele>105.59999847412</ele>
        <time>2020-09-24T12:20:50Z</time>
      </trkpt>
      <trkpt lat="48.37833" lon="2.6664">
        <ele>105.19999694824</ele>
        <time>2020-09-24T12:20:55Z</time>
      </trkpt>
      <trkpt lat="48.37833" lon="2.66634">
        <ele>105</ele>
        <time>2020-09-24T12:21:00Z</time>
      </trkpt>
      <trkpt lat="48.37834" lon="2.66627">
        <ele>105</ele>
        <time>2020-09-24T12:21:10Z</time>
      </trkpt>
      <trkpt lat="48.37835" lon="2.66628">
        <ele>105</ele>
        <time>2020-09-24T12:21:15Z</time>
      </trkpt>
      <trkpt lat="48.37835" lon="2.66628">
        <ele>105.40000152588</ele>
        <time>2020-09-24T12:21:20Z</time>
      </trkpt>
      <trkpt lat="48.37836" lon="2.66629">
        <ele>105.19999694824</ele>
        <time>2020-09-24T12:21:35Z</time>
      </trkpt>
      <trkpt lat="48.37836" lon="2.66629">
        <ele>105.40000152588</ele>
        <time>2020-09-24T12:23:00Z</time>
      </trkpt>
      <trkpt lat="48.37832" lon="2.66622">
        <ele>105</ele>
        <time>2020-09-24T12:23:40Z</time>
      </trkpt>
      <trkpt lat="48.37827" lon="2.66619">
        <ele>104.80000305176</ele>
        <time>2020-09-24T12:23:45Z</time>
      </trkpt>
      <trkpt lat="48.37822" lon="2.66617">
        <ele>104.80000305176</ele>
        <time>2020-09-24T12:23:50Z</time>
      </trkpt>
      <trkpt lat="48.37817" lon="2.66614">
        <ele>105</ele>
        <time>2020-09-24T12:23:55Z</time>
      </trkpt>
      <trkpt lat="48.3781" lon="2.66613">
        <ele>105.19999694824</ele>
        <time>2020-09-24T12:24:00Z</time>
      </trkpt>
      <trkpt lat="48.37804" lon="2.66613">
        <ele>105.19999694824</ele>
        <time>2020-09-24T12:24:05Z</time>
      </trkpt>
      <trkpt lat="48.37799" lon="2.6661">
        <ele>105.40000152588</ele>
        <time>2020-09-24T12:24:10Z</time>
      </trkpt>
      <trkpt lat="48.37794" lon="2.66607">
        <ele>106.19999694824</ele>
        <time>2020-09-24T12:24:15Z</time>
      </trkpt>
      <trkpt lat="48.37789" lon="2.66605">
        <ele>106.40000152588</ele>
        <time>2020-09-24T12:24:20Z</time>
      </trkpt>
      <trkpt lat="48.37784" lon="2.66602">
        <ele>106.19999694824</ele>
        <time>2020-09-24T12:24:25Z</time>
      </trkpt>
      <trkpt lat="48.37779" lon="2.666">
        <ele>106.40000152588</ele>
        <time>2020-09-24T12:24:30Z</time>
      </trkpt>
      <trkpt lat="48.37774" lon="2.66597">
        <ele>106.40000152588</ele>
        <time>2020-09-24T12:24:35Z</time>
      </trkpt>
      <trkpt lat="48.3777" lon="2.66592">
        <ele>106.40000152588</ele>
        <time>2020-09-24T12:24:40Z</time>
      </trkpt>
      <trkpt lat="48.37765" lon="2.66587">
        <ele>106</ele>
        <time>2020-09-24T12:24:45Z</time>
      </trkpt>
      <trkpt lat="48.3776" lon="2.66581">
        <ele>106.19999694824</ele>
        <time>2020-09-24T12:24:50Z</time>
      </trkpt>
      <trkpt lat="48.37756" lon="2.66575">
        <ele>106</ele>
        <time>2020-09-24T12:24:55Z</time>
      </trkpt>
      <trkpt lat="48.3775" lon="2.66571">
        <ele>106.19999694824</ele>
        <time>2020-09-24T12:25:00Z</time>
      </trkpt>
      <trkpt lat="48.37746" lon="2.66567">
        <ele>106.59999847412</ele>
        <time>2020-09-24T12:25:05Z</time>
      </trkpt>
      <trkpt lat="48.37743" lon="2.66559">
        <ele>106.59999847412</ele>
        <time>2020-09-24T12:25:10Z</time>
      </trkpt>
      <trkpt lat="48.3774" lon="2.66553">
        <ele>106.40000152588</ele>
        <time>2020-09-24T12:25:15Z</time>
      </trkpt>
      <trkpt lat="48.37736" lon="2.66546">
        <ele>106.40000152588</ele>
        <time>2020-09-24T12:25:20Z</time>
      </trkpt>
      <trkpt lat="48.37732" lon="2.66539">
        <ele>106.59999847412</ele>
        <time>2020-09-24T12:25:25Z</time>
      </trkpt>
      <trkpt lat="48.37727" lon="2.66535">
        <ele>106.59999847412</ele>
        <time>2020-09-24T12:25:30Z</time>
      </trkpt>
      <trkpt lat="48.37723" lon="2.66528">
        <ele>107</ele>
        <time>2020-09-24T12:25:35Z</time>
      </trkpt>
      <trkpt lat="48.37719" lon="2.66522">
        <ele>106.80000305176</ele>
        <time>2020-09-24T12:25:40Z</time>
      </trkpt>
      <trkpt lat="48.37716" lon="2.66515">
        <ele>106.40000152588</ele>
        <time>2020-09-24T12:25:45Z</time>
      </trkpt>
      <trkpt lat="48.37714" lon="2.66508">
        <ele>106.40000152588</ele>
        <time>2020-09-24T12:25:50Z</time>
      </trkpt>
      <trkpt lat="48.3771" lon="2.66502">
        <ele>106.59999847412</ele>
        <time>2020-09-24T12:25:55Z</time>
      </trkpt>
      <trkpt lat="48.37707" lon="2.66497">
        <ele>106.59999847412</ele>
        <time>2020-09-24T12:26:00Z</time>
      </trkpt>
      <trkpt lat="48.37702" lon="2.66492">
        <ele>106.59999847412</ele>
        <time>2020-09-24T12:26:05Z</time>
      </trkpt>
      <trkpt lat="48.37697" lon="2.66485">
        <ele>106.59999847412</ele>
        <time>2020-09-24T12:26:10Z</time>
      </trkpt>
      <trkpt lat="48.37694" lon="2.66478">
        <ele>107</ele>
        <time>2020-09-24T12:26:15Z</time>
      </trkpt>
      <trkpt lat="48.3769" lon="2.66474">
        <ele>107</ele>
        <time>2020-09-24T12:26:20Z</time>
      </trkpt>
      <trkpt lat="48.37687" lon="2.66468">
        <ele>107.19999694824</ele>
        <time>2020-09-24T12:26:25Z</time>
      </trkpt>
      <trkpt lat="48.37682" lon="2.66465">
        <ele>107.40000152588</ele>
        <time>2020-09-24T12:26:30Z</time>
      </trkpt>
      <trkpt lat="48.37677" lon="2.6646">
        <ele>107.40000152588</ele>
        <time>2020-09-24T12:26:35Z</time>
      </trkpt>
      <trkpt lat="48.37672" lon="2.66454">
        <ele>107.59999847412</ele>
        <time>2020-09-24T12:26:40Z</time>
      </trkpt>
      <trkpt lat="48.37667" lon="2.66447">
        <ele>107.80000305176</ele>
        <time>2020-09-24T12:26:45Z</time>
      </trkpt>
      <trkpt lat="48.37664" lon="2.6644">
        <ele>108.19999694824</ele>
        <time>2020-09-24T12:26:50Z</time>
      </trkpt>
      <trkpt lat="48.3766" lon="2.66435">
        <ele>108.19999694824</ele>
        <time>2020-09-24T12:26:55Z</time>
      </trkpt>
      <trkpt lat="48.37657" lon="2.66429">
        <ele>108.19999694824</ele>
        <time>2020-09-24T12:27:00Z</time>
      </trkpt>
      <trkpt lat="48.37653" lon="2.66423">
        <ele>108.19999694824</ele>
        <time>2020-09-24T12:27:05Z</time>
      </trkpt>
      <trkpt lat="48.37649" lon="2.66417">
        <ele>108.19999694824</ele>
        <time>2020-09-24T12:27:10Z</time>
      </trkpt>
      <trkpt lat="48.37645" lon="2.66411">
        <ele>108.19999694824</ele>
        <time>2020-09-24T12:27:15Z</time>
      </trkpt>
      <trkpt lat="48.3764" lon="2.66406">
        <ele>108.40000152588</ele>
        <time>2020-09-24T12:27:20Z</time>
      </trkpt>
      <trkpt lat="48.37637" lon="2.664">
        <ele>108.40000152588</ele>
        <time>2020-09-24T12:27:25Z</time>
      </trkpt>
      <trkpt lat="48.37634" lon="2.66394">
        <ele>108.40000152588</ele>
        <time>2020-09-24T12:27:30Z</time>
      </trkpt>
      <trkpt lat="48.37629" lon="2.66389">
        <ele>108.59999847412</ele>
        <time>2020-09-24T12:27:35Z</time>
      </trkpt>
      <trkpt lat="48.37626" lon="2.66382">
        <ele>108.59999847412</ele>
        <time>2020-09-24T12:27:40Z</time>
      </trkpt>
      <trkpt lat="48.37622" lon="2.66375">
        <ele>108.80000305176</ele>
        <time>2020-09-24T12:27:45Z</time>
      </trkpt>
      <trkpt lat="48.37619" lon="2.66367">
        <ele>109</ele>
        <time>2020-09-24T12:27:50Z</time>
      </trkpt>
      <trkpt lat="48.37617" lon="2.66359">
        <ele>109.19999694824</ele>
        <time>2020-09-24T12:27:55Z</time>
      </trkpt>
      <trkpt lat="48.37614" lon="2.66349">
        <ele>109.19999694824</ele>
        <time>2020-09-24T12:28:00Z</time>
      </trkpt>
      <trkpt lat="48.37613" lon="2.66341">
        <ele>109.40000152588</ele>
        <time>2020-09-24T12:28:05Z</time>
      </trkpt>
      <trkpt lat="48.37612" lon="2.66334">
        <ele>109.40000152588</ele>
        <time>2020-09-24T12:28:10Z</time>
      </trkpt>
      <trkpt lat="48.37612" lon="2.66327">
        <ele>109.80000305176</ele>
        <time>2020-09-24T12:28:15Z</time>
      </trkpt>
      <trkpt lat="48.37613" lon="2.6632">
        <ele>110</ele>
        <time>2020-09-24T12:28:20Z</time>
      </trkpt>
      <trkpt lat="48.37615" lon="2.66315">
        <ele>110.40000152588</ele>
        <time>2020-09-24T12:28:25Z</time>
      </trkpt>
      <trkpt lat="48.37615" lon="2.66315">
        <ele>110.19999694824</ele>
        <time>2020-09-24T12:28:30Z</time>
      </trkpt>
      <trkpt lat="48.37616" lon="2.66314">
        <ele>110.19999694824</ele>
        <time>2020-09-24T12:28:35Z</time>
      </trkpt>
      <trkpt lat="48.37618" lon="2.6631">
        <ele>110.19999694824</ele>
        <time>2020-09-24T12:28:40Z</time>
      </trkpt>
      <trkpt lat="48.37619" lon="2.66303">
        <ele>110.80000305176</ele>
        <time>2020-09-24T12:28:45Z</time>
      </trkpt>
      <trkpt lat="48.37621" lon="2.66296">
        <ele>111</ele>
        <time>2020-09-24T12:28:50Z</time>
      </trkpt>
      <trkpt lat="48.37623" lon="2.66289">
        <ele>111.40000152588</ele>
        <time>2020-09-24T12:28:55Z</time>
      </trkpt>
      <trkpt lat="48.37625" lon="2.66283">
        <ele>111.80000305176</ele>
        <time>2020-09-24T12:29:00Z</time>
      </trkpt>
      <trkpt lat="48.37628" lon="2.66276">
        <ele>112</ele>
        <time>2020-09-24T12:29:05Z</time>
      </trkpt>
      <trkpt lat="48.3763" lon="2.66268">
        <ele>112.19999694824</ele>
        <time>2020-09-24T12:29:10Z</time>
      </trkpt>
      <trkpt lat="48.37631" lon="2.6626">
        <ele>113.19999694824</ele>
        <time>2020-09-24T12:29:15Z</time>
      </trkpt>
      <trkpt lat="48.37632" lon="2.66254">
        <ele>113.40000152588</ele>
        <time>2020-09-24T12:29:20Z</time>
      </trkpt>
      <trkpt lat="48.37635" lon="2.66245">
        <ele>113.80000305176</ele>
        <time>2020-09-24T12:29:25Z</time>
      </trkpt>
      <trkpt lat="48.37636" lon="2.66237">
        <ele>114.19999694824</ele>
        <time>2020-09-24T12:29:30Z</time>
      </trkpt>
      <trkpt lat="48.37639" lon="2.6623">
        <ele>114.40000152588</ele>
        <time>2020-09-24T12:29:35Z</time>
      </trkpt>
      <trkpt lat="48.3764" lon="2.66223">
        <ele>114.80000305176</ele>
        <time>2020-09-24T12:29:40Z</time>
      </trkpt>
      <trkpt lat="48.37642" lon="2.66215">
        <ele>115</ele>
        <time>2020-09-24T12:29:45Z</time>
      </trkpt>
      <trkpt lat="48.37643" lon="2.66208">
        <ele>115.19999694824</ele>
        <time>2020-09-24T12:29:50Z</time>
      </trkpt>
      <trkpt lat="48.37644" lon="2.662">
        <ele>115.59999847412</ele>
        <time>2020-09-24T12:29:55Z</time>
      </trkpt>
      <trkpt lat="48.37645" lon="2.66194">
        <ele>116.19999694824</ele>
        <time>2020-09-24T12:30:00Z</time>
      </trkpt>
      <trkpt lat="48.37646" lon="2.66187">
        <ele>116.80000305176</ele>
        <time>2020-09-24T12:30:05Z</time>
      </trkpt>
      <trkpt lat="48.37646" lon="2.6618">
        <ele>117.59999847412</ele>
        <time>2020-09-24T12:30:10Z</time>
      </trkpt>
      <trkpt lat="48.37645" lon="2.66172">
        <ele>118.40000152588</ele>
        <time>2020-09-24T12:30:15Z</time>
      </trkpt>
      <trkpt lat="48.37645" lon="2.66163">
        <ele>119</ele>
        <time>2020-09-24T12:30:20Z</time>
      </trkpt>
      <trkpt lat="48.37645" lon="2.66156">
        <ele>119.59999847412</ele>
        <time>2020-09-24T12:30:25Z</time>
      </trkpt>
      <trkpt lat="48.37645" lon="2.6615">
        <ele>120.19999694824</ele>
        <time>2020-09-24T12:30:30Z</time>
      </trkpt>
      <trkpt lat="48.37645" lon="2.66142">
        <ele>120.59999847412</ele>
        <time>2020-09-24T12:30:35Z</time>
      </trkpt>
      <trkpt lat="48.37645" lon="2.66135">
        <ele>121.59999847412</ele>
        <time>2020-09-24T12:30:40Z</time>
      </trkpt>
      <trkpt lat="48.37645" lon="2.66129">
        <ele>122</ele>
        <time>2020-09-24T12:30:45Z</time>
      </trkpt>
      <trkpt lat="48.37646" lon="2.66123">
        <ele>122.80000305176</ele>
        <time>2020-09-24T12:30:50Z</time>
      </trkpt>
      <trkpt lat="48.37645" lon="2.66115">
        <ele>123.59999847412</ele>
        <time>2020-09-24T12:30:55Z</time>
      </trkpt>
      <trkpt lat="48.37644" lon="2.66109">
        <ele>124.19999694824</ele>
        <time>2020-09-24T12:31:00Z</time>
      </trkpt>
      <trkpt lat="48.37643" lon="2.66101">
        <ele>124.59999847412</ele>
        <time>2020-09-24T12:31:05Z</time>
      </trkpt>
      <trkpt lat="48.37643" lon="2.66095">
        <ele>125.59999847412</ele>
        <time>2020-09-24T12:31:10Z</time>
      </trkpt>
      <trkpt lat="48.37643" lon="2.66088">
        <ele>127</ele>
        <time>2020-09-24T12:31:15Z</time>
      </trkpt>
      <trkpt lat="48.37643" lon="2.66083">
        <ele>127.80000305176</ele>
        <time>2020-09-24T12:31:20Z</time>
      </trkpt>
      <trkpt lat="48.37644" lon="2.66076">
        <ele>128.60000610352</ele>
        <time>2020-09-24T12:31:25Z</time>
      </trkpt>
      <trkpt lat="48.37643" lon="2.66071">
        <ele>129.80000305176</ele>
        <time>2020-09-24T12:31:30Z</time>
      </trkpt>
      <trkpt lat="48.37642" lon="2.66066">
        <ele>130.60000610352</ele>
        <time>2020-09-24T12:31:35Z</time>
      </trkpt>
      <trkpt lat="48.37642" lon="2.6606">
        <ele>131.80000305176</ele>
        <time>2020-09-24T12:31:40Z</time>
      </trkpt>
      <trkpt lat="48.37641" lon="2.66053">
        <ele>132.39999389648</ele>
        <time>2020-09-24T12:31:45Z</time>
      </trkpt>
      <trkpt lat="48.37641" lon="2.66046">
        <ele>132.60000610352</ele>
        <time>2020-09-24T12:31:50Z</time>
      </trkpt>
      <trkpt lat="48.3764" lon="2.66039">
        <ele>133.19999694824</ele>
        <time>2020-09-24T12:31:55Z</time>
      </trkpt>
      <trkpt lat="48.37639" lon="2.66031">
        <ele>133.60000610352</ele>
        <time>2020-09-24T12:32:00Z</time>
      </trkpt>
      <trkpt lat="48.37636" lon="2.66028">
        <ele>133.80000305176</ele>
        <time>2020-09-24T12:32:05Z</time>
      </trkpt>
      <trkpt lat="48.37635" lon="2.66026">
        <ele>134</ele>
        <time>2020-09-24T12:32:10Z</time>
      </trkpt>
      <trkpt lat="48.37632" lon="2.66025">
        <ele>134</ele>
        <time>2020-09-24T12:32:15Z</time>
      </trkpt>
      <trkpt lat="48.37627" lon="2.66022">
        <ele>134.19999694824</ele>
        <time>2020-09-24T12:32:20Z</time>
      </trkpt>
      <trkpt lat="48.37623" lon="2.66019">
        <ele>134.39999389648</ele>
        <time>2020-09-24T12:32:25Z</time>
      </trkpt>
      <trkpt lat="48.37619" lon="2.66016">
        <ele>134.60000610352</ele>
        <time>2020-09-24T12:32:30Z</time>
      </trkpt>
      <trkpt lat="48.37615" lon="2.66011">
        <ele>134.80000305176</ele>
        <time>2020-09-24T12:32:35Z</time>
      </trkpt>
      <trkpt lat="48.37611" lon="2.66007">
        <ele>134.80000305176</ele>
        <time>2020-09-24T12:32:40Z</time>
      </trkpt>
      <trkpt lat="48.37607" lon="2.66004">
        <ele>134.80000305176</ele>
        <time>2020-09-24T12:32:45Z</time>
      </trkpt>
      <trkpt lat="48.37604" lon="2.66">
        <ele>135</ele>
        <time>2020-09-24T12:32:50Z</time>
      </trkpt>
      <trkpt lat="48.376" lon="2.65996">
        <ele>135.19999694824</ele>
        <time>2020-09-24T12:32:55Z</time>
      </trkpt>
      <trkpt lat="48.37596" lon="2.65992">
        <ele>135.39999389648</ele>
        <time>2020-09-24T12:33:00Z</time>
      </trkpt>
      <trkpt lat="48.3759" lon="2.65989">
        <ele>135.60000610352</ele>
        <time>2020-09-24T12:33:05Z</time>
      </trkpt>
      <trkpt lat="48.37586" lon="2.65985">
        <ele>135.80000305176</ele>
        <time>2020-09-24T12:33:10Z</time>
      </trkpt>
      <trkpt lat="48.37582" lon="2.6598">
        <ele>135.80000305176</ele>
        <time>2020-09-24T12:33:15Z</time>
      </trkpt>
      <trkpt lat="48.37577" lon="2.65975">
        <ele>135.60000610352</ele>
        <time>2020-09-24T12:33:20Z</time>
      </trkpt>
      <trkpt lat="48.37572" lon="2.65972">
        <ele>135.80000305176</ele>
        <time>2020-09-24T12:33:25Z</time>
      </trkpt>
      <trkpt lat="48.37568" lon="2.65969">
        <ele>135.80000305176</ele>
        <time>2020-09-24T12:33:30Z</time>
      </trkpt>
      <trkpt lat="48.37564" lon="2.65965">
        <ele>135.80000305176</ele>
        <time>2020-09-24T12:33:35Z</time>
      </trkpt>
      <trkpt lat="48.37559" lon="2.65962">
        <ele>135.60000610352</ele>
        <time>2020-09-24T12:33:40Z</time>
      </trkpt>
      <trkpt lat="48.37554" lon="2.65957">
        <ele>135.39999389648</ele>
        <time>2020-09-24T12:33:45Z</time>
      </trkpt>
      <trkpt lat="48.3755" lon="2.65953">
        <ele>135.60000610352</ele>
        <time>2020-09-24T12:33:50Z</time>
      </trkpt>
      <trkpt lat="48.37545" lon="2.65948">
        <ele>135.60000610352</ele>
        <time>2020-09-24T12:33:55Z</time>
      </trkpt>
      <trkpt lat="48.37541" lon="2.65944">
        <ele>135.60000610352</ele>
        <time>2020-09-24T12:34:00Z</time>
      </trkpt>
      <trkpt lat="48.37536" lon="2.65939">
        <ele>135.80000305176</ele>
        <time>2020-09-24T12:34:05Z</time>
      </trkpt>
      <trkpt lat="48.3753" lon="2.65934">
        <ele>135.80000305176</ele>
        <time>2020-09-24T12:34:10Z</time>
      </trkpt>
      <trkpt lat="48.37525" lon="2.65931">
        <ele>135.60000610352</ele>
        <time>2020-09-24T12:34:15Z</time>
      </trkpt>
      <trkpt lat="48.3752" lon="2.65927">
        <ele>135.39999389648</ele>
        <time>2020-09-24T12:34:20Z</time>
      </trkpt>
      <trkpt lat="48.37516" lon="2.65923">
        <ele>135</ele>
        <time>2020-09-24T12:34:25Z</time>
      </trkpt>
      <trkpt lat="48.37511" lon="2.6592">
        <ele>136.19999694824</ele>
        <time>2020-09-24T12:34:30Z</time>
      </trkpt>
      <trkpt lat="48.37505" lon="2.65914">
        <ele>136.39999389648</ele>
        <time>2020-09-24T12:36:25Z</time>
      </trkpt>
      <trkpt lat="48.37505" lon="2.65913">
        <ele>136.39999389648</ele>
        <time>2020-09-24T12:36:30Z</time>
      </trkpt>
      <trkpt lat="48.37505" lon="2.65913">
        <ele>136.39999389648</ele>
        <time>2020-09-24T12:36:35Z</time>
      </trkpt>
      <trkpt lat="48.37505" lon="2.65913">
        <ele>136.39999389648</ele>
        <time>2020-09-24T12:36:40Z</time>
      </trkpt>
      <trkpt lat="48.37506" lon="2.65912">
        <ele>136.39999389648</ele>
        <time>2020-09-24T12:36:45Z</time>
      </trkpt>
      <trkpt lat="48.37506" lon="2.65912">
        <ele>136.39999389648</ele>
        <time>2020-09-24T12:36:50Z</time>
      </trkpt>
      <trkpt lat="48.37505" lon="2.65912">
        <ele>136.39999389648</ele>
        <time>2020-09-24T12:36:55Z</time>
      </trkpt>
      <trkpt lat="48.37505" lon="2.65911">
        <ele>136.39999389648</ele>
        <time>2020-09-24T12:37:00Z</time>
      </trkpt>
      <trkpt lat="48.37505" lon="2.65911">
        <ele>136.39999389648</ele>
        <time>2020-09-24T12:37:05Z</time>
      </trkpt>
      <trkpt lat="48.37505" lon="2.65911">
        <ele>136.39999389648</ele>
        <time>2020-09-24T12:37:10Z</time>
      </trkpt>
      <trkpt lat="48.37505" lon="2.65911">
        <ele>136.39999389648</ele>
        <time>2020-09-24T12:37:15Z</time>
      </trkpt>
      <trkpt lat="48.37505" lon="2.65911">
        <ele>136.39999389648</ele>
        <time>2020-09-24T12:37:20Z</time>
      </trkpt>
      <trkpt lat="48.37505" lon="2.65911">
        <ele>136.39999389648</ele>
        <time>2020-09-24T12:37:25Z</time>
      </trkpt>
      <trkpt lat="48.37505" lon="2.65911">
        <ele>136.39999389648</ele>
        <time>2020-09-24T12:37:30Z</time>
      </trkpt>
      <trkpt lat="48.37505" lon="2.65911">
        <ele>136.39999389648</ele>
        <time>2020-09-24T12:37:35Z</time>
      </trkpt>
      <trkpt lat="48.37504" lon="2.65912">
        <ele>136.39999389648</ele>
        <time>2020-09-24T12:37:40Z</time>
      </trkpt>
      <trkpt lat="48.37504" lon="2.65912">
        <ele>136.39999389648</ele>
        <time>2020-09-24T12:37:45Z</time>
      </trkpt>
      <trkpt lat="48.37504" lon="2.65912">
        <ele>136.39999389648</ele>
        <time>2020-09-24T12:37:50Z</time>
      </trkpt>
      <trkpt lat="48.37505" lon="2.65912">
        <ele>136.39999389648</ele>
        <time>2020-09-24T12:37:55Z</time>
      </trkpt>
      <trkpt lat="48.37505" lon="2.65912">
        <ele>136.39999389648</ele>
        <time>2020-09-24T12:38:00Z</time>
      </trkpt>
      <trkpt lat="48.37505" lon="2.65912">
        <ele>136.39999389648</ele>
        <time>2020-09-24T12:38:05Z</time>
      </trkpt>
      <trkpt lat="48.37505" lon="2.65913">
        <ele>136.39999389648</ele>
        <time>2020-09-24T12:38:10Z</time>
      </trkpt>
      <trkpt lat="48.37504" lon="2.65913">
        <ele>136.39999389648</ele>
        <time>2020-09-24T12:38:15Z</time>
      </trkpt>
      <trkpt lat="48.37504" lon="2.65913">
        <ele>136.39999389648</ele>
        <time>2020-09-24T12:38:20Z</time>
      </trkpt>
      <trkpt lat="48.37503" lon="2.65913">
        <ele>136.39999389648</ele>
        <time>2020-09-24T12:38:25Z</time>
      </trkpt>
      <trkpt lat="48.37503" lon="2.65914">
        <ele>136.39999389648</ele>
        <time>2020-09-24T12:38:30Z</time>
      </trkpt>
      <trkpt lat="48.37495" lon="2.65921">
        <ele>136.39999389648</ele>
        <time>2020-09-24T12:38:40Z</time>
      </trkpt>
      <trkpt lat="48.37488" lon="2.65924">
        <ele>136.39999389648</ele>
        <time>2020-09-24T12:38:45Z</time>
      </trkpt>
      <trkpt lat="48.37484" lon="2.65926">
        <ele>136</ele>
        <time>2020-09-24T12:38:50Z</time>
      </trkpt>
      <trkpt lat="48.37481" lon="2.65929">
        <ele>136</ele>
        <time>2020-09-24T12:38:55Z</time>
      </trkpt>
      <trkpt lat="48.37477" lon="2.65931">
        <ele>136.19999694824</ele>
        <time>2020-09-24T12:39:00Z</time>
      </trkpt>
      <trkpt lat="48.37473" lon="2.65935">
        <ele>135.80000305176</ele>
        <time>2020-09-24T12:39:05Z</time>
      </trkpt>
      <trkpt lat="48.37468" lon="2.65936">
        <ele>135.39999389648</ele>
        <time>2020-09-24T12:39:10Z</time>
      </trkpt>
      <trkpt lat="48.37463" lon="2.65939">
        <ele>135</ele>
        <time>2020-09-24T12:39:15Z</time>
      </trkpt>
      <trkpt lat="48.37455" lon="2.65942">
        <ele>135</ele>
        <time>2020-09-24T12:39:20Z</time>
      </trkpt>
      <trkpt lat="48.37448" lon="2.65945">
        <ele>135</ele>
        <time>2020-09-24T12:39:25Z</time>
      </trkpt>
      <trkpt lat="48.37443" lon="2.65947">
        <ele>134.80000305176</ele>
        <time>2020-09-24T12:39:30Z</time>
      </trkpt>
      <trkpt lat="48.37439" lon="2.65949">
        <ele>134.80000305176</ele>
        <time>2020-09-24T12:39:35Z</time>
      </trkpt>
      <trkpt lat="48.37434" lon="2.6595">
        <ele>134.80000305176</ele>
        <time>2020-09-24T12:39:40Z</time>
      </trkpt>
      <trkpt lat="48.37428" lon="2.65953">
        <ele>134.60000610352</ele>
        <time>2020-09-24T12:39:45Z</time>
      </trkpt>
      <trkpt lat="48.37422" lon="2.65955">
        <ele>134.39999389648</ele>
        <time>2020-09-24T12:39:50Z</time>
      </trkpt>
      <trkpt lat="48.37417" lon="2.65958">
        <ele>134.19999694824</ele>
        <time>2020-09-24T12:39:55Z</time>
      </trkpt>
      <trkpt lat="48.37412" lon="2.65961">
        <ele>134.39999389648</ele>
        <time>2020-09-24T12:40:00Z</time>
      </trkpt>
      <trkpt lat="48.37407" lon="2.65964">
        <ele>134.19999694824</ele>
        <time>2020-09-24T12:40:05Z</time>
      </trkpt>
      <trkpt lat="48.37401" lon="2.65966">
        <ele>134.19999694824</ele>
        <time>2020-09-24T12:40:10Z</time>
      </trkpt>
      <trkpt lat="48.37394" lon="2.65968">
        <ele>134.19999694824</ele>
        <time>2020-09-24T12:40:15Z</time>
      </trkpt>
      <trkpt lat="48.37389" lon="2.65968">
        <ele>134.19999694824</ele>
        <time>2020-09-24T12:40:20Z</time>
      </trkpt>
      <trkpt lat="48.37385" lon="2.65972">
        <ele>134.19999694824</ele>
        <time>2020-09-24T12:40:25Z</time>
      </trkpt>
      <trkpt lat="48.37383" lon="2.65979">
        <ele>134.19999694824</ele>
        <time>2020-09-24T12:40:30Z</time>
      </trkpt>
      <trkpt lat="48.37385" lon="2.65986">
        <ele>134.39999389648</ele>
        <time>2020-09-24T12:40:35Z</time>
      </trkpt>
      <trkpt lat="48.37385" lon="2.65994">
        <ele>134.19999694824</ele>
        <time>2020-09-24T12:40:40Z</time>
      </trkpt>
      <trkpt lat="48.37388" lon="2.66001">
        <ele>134.19999694824</ele>
        <time>2020-09-24T12:40:45Z</time>
      </trkpt>
      <trkpt lat="48.3739" lon="2.66007">
        <ele>134</ele>
        <time>2020-09-24T12:40:50Z</time>
      </trkpt>
      <trkpt lat="48.37392" lon="2.66014">
        <ele>134</ele>
        <time>2020-09-24T12:40:55Z</time>
      </trkpt>
      <trkpt lat="48.37392" lon="2.66022">
        <ele>133.80000305176</ele>
        <time>2020-09-24T12:41:00Z</time>
      </trkpt>
      <trkpt lat="48.37394" lon="2.6603">
        <ele>133.60000610352</ele>
        <time>2020-09-24T12:41:05Z</time>
      </trkpt>
      <trkpt lat="48.37394" lon="2.66037">
        <ele>133.60000610352</ele>
        <time>2020-09-24T12:41:10Z</time>
      </trkpt>
      <trkpt lat="48.37395" lon="2.66046">
        <ele>133.39999389648</ele>
        <time>2020-09-24T12:41:15Z</time>
      </trkpt>
      <trkpt lat="48.37395" lon="2.66054">
        <ele>133.19999694824</ele>
        <time>2020-09-24T12:41:20Z</time>
      </trkpt>
      <trkpt lat="48.37397" lon="2.6606">
        <ele>133.19999694824</ele>
        <time>2020-09-24T12:41:25Z</time>
      </trkpt>
      <trkpt lat="48.37401" lon="2.66068">
        <ele>133.19999694824</ele>
        <time>2020-09-24T12:41:30Z</time>
      </trkpt>
      <trkpt lat="48.37403" lon="2.66076">
        <ele>133</ele>
        <time>2020-09-24T12:41:35Z</time>
      </trkpt>
      <trkpt lat="48.37405" lon="2.66083">
        <ele>132.60000610352</ele>
        <time>2020-09-24T12:41:40Z</time>
      </trkpt>
      <trkpt lat="48.37409" lon="2.6609">
        <ele>132.19999694824</ele>
        <time>2020-09-24T12:41:45Z</time>
      </trkpt>
      <trkpt lat="48.37411" lon="2.66098">
        <ele>131.60000610352</ele>
        <time>2020-09-24T12:41:50Z</time>
      </trkpt>
      <trkpt lat="48.37412" lon="2.66106">
        <ele>131.19999694824</ele>
        <time>2020-09-24T12:41:55Z</time>
      </trkpt>
      <trkpt lat="48.37413" lon="2.66113">
        <ele>130.80000305176</ele>
        <time>2020-09-24T12:42:00Z</time>
      </trkpt>
      <trkpt lat="48.37414" lon="2.66121">
        <ele>130.39999389648</ele>
        <time>2020-09-24T12:42:05Z</time>
      </trkpt>
      <trkpt lat="48.37416" lon="2.66128">
        <ele>130</ele>
        <time>2020-09-24T12:42:10Z</time>
      </trkpt>
      <trkpt lat="48.37418" lon="2.66134">
        <ele>129.39999389648</ele>
        <time>2020-09-24T12:42:15Z</time>
      </trkpt>
      <trkpt lat="48.3742" lon="2.6614">
        <ele>128.80000305176</ele>
        <time>2020-09-24T12:42:20Z</time>
      </trkpt>
      <trkpt lat="48.37421" lon="2.66148">
        <ele>128.19999694824</ele>
        <time>2020-09-24T12:42:25Z</time>
      </trkpt>
      <trkpt lat="48.37421" lon="2.66156">
        <ele>127.59999847412</ele>
        <time>2020-09-24T12:42:30Z</time>
      </trkpt>
      <trkpt lat="48.37422" lon="2.66163">
        <ele>126.80000305176</ele>
        <time>2020-09-24T12:42:35Z</time>
      </trkpt>
      <trkpt lat="48.37423" lon="2.66169">
        <ele>126</ele>
        <time>2020-09-24T12:42:40Z</time>
      </trkpt>
      <trkpt lat="48.37425" lon="2.66176">
        <ele>125</ele>
        <time>2020-09-24T12:42:45Z</time>
      </trkpt>
      <trkpt lat="48.37428" lon="2.66184">
        <ele>124.19999694824</ele>
        <time>2020-09-24T12:42:50Z</time>
      </trkpt>
      <trkpt lat="48.37429" lon="2.66192">
        <ele>123.40000152588</ele>
        <time>2020-09-24T12:42:55Z</time>
      </trkpt>
      <trkpt lat="48.3743" lon="2.66201">
        <ele>122.19999694824</ele>
        <time>2020-09-24T12:43:00Z</time>
      </trkpt>
      <trkpt lat="48.37432" lon="2.66209">
        <ele>121.59999847412</ele>
        <time>2020-09-24T12:43:05Z</time>
      </trkpt>
      <trkpt lat="48.37432" lon="2.66213">
        <ele>121.19999694824</ele>
        <time>2020-09-24T12:43:10Z</time>
      </trkpt>
      <trkpt lat="48.37427" lon="2.66213">
        <ele>121.19999694824</ele>
        <time>2020-09-24T12:43:15Z</time>
      </trkpt>
      <trkpt lat="48.37422" lon="2.6621">
        <ele>121.19999694824</ele>
        <time>2020-09-24T12:43:20Z</time>
      </trkpt>
      <trkpt lat="48.37416" lon="2.66206">
        <ele>121.40000152588</ele>
        <time>2020-09-24T12:43:25Z</time>
      </trkpt>
      <trkpt lat="48.37411" lon="2.66205">
        <ele>121.40000152588</ele>
        <time>2020-09-24T12:43:30Z</time>
      </trkpt>
      <trkpt lat="48.37406" lon="2.66202">
        <ele>121.80000305176</ele>
        <time>2020-09-24T12:43:35Z</time>
      </trkpt>
      <trkpt lat="48.37402" lon="2.66199">
        <ele>122.19999694824</ele>
        <time>2020-09-24T12:43:40Z</time>
      </trkpt>
      <trkpt lat="48.37397" lon="2.66198">
        <ele>122.40000152588</ele>
        <time>2020-09-24T12:43:45Z</time>
      </trkpt>
      <trkpt lat="48.37392" lon="2.66197">
        <ele>122.80000305176</ele>
        <time>2020-09-24T12:43:50Z</time>
      </trkpt>
      <trkpt lat="48.37387" lon="2.66196">
        <ele>123</ele>
        <time>2020-09-24T12:43:55Z</time>
      </trkpt>
      <trkpt lat="48.37383" lon="2.66191">
        <ele>123.40000152588</ele>
        <time>2020-09-24T12:44:00Z</time>
      </trkpt>
      <trkpt lat="48.37378" lon="2.66186">
        <ele>123.80000305176</ele>
        <time>2020-09-24T12:44:05Z</time>
      </trkpt>
      <trkpt lat="48.37373" lon="2.66183">
        <ele>124</ele>
        <time>2020-09-24T12:44:10Z</time>
      </trkpt>
      <trkpt lat="48.37369" lon="2.66177">
        <ele>124.19999694824</ele>
        <time>2020-09-24T12:44:15Z</time>
      </trkpt>
      <trkpt lat="48.37367" lon="2.6617">
        <ele>124.40000152588</ele>
        <time>2020-09-24T12:44:20Z</time>
      </trkpt>
      <trkpt lat="48.37364" lon="2.66163">
        <ele>124.59999847412</ele>
        <time>2020-09-24T12:44:25Z</time>
      </trkpt>
      <trkpt lat="48.3736" lon="2.66158">
        <ele>124.80000305176</ele>
        <time>2020-09-24T12:44:30Z</time>
      </trkpt>
      <trkpt lat="48.37355" lon="2.66153">
        <ele>125</ele>
        <time>2020-09-24T12:44:35Z</time>
      </trkpt>
      <trkpt lat="48.3735" lon="2.66149">
        <ele>125</ele>
        <time>2020-09-24T12:44:40Z</time>
      </trkpt>
      <trkpt lat="48.37346" lon="2.66146">
        <ele>125.19999694824</ele>
        <time>2020-09-24T12:44:45Z</time>
      </trkpt>
      <trkpt lat="48.3734" lon="2.66143">
        <ele>125.19999694824</ele>
        <time>2020-09-24T12:44:50Z</time>
      </trkpt>
      <trkpt lat="48.37336" lon="2.6614">
        <ele>125.40000152588</ele>
        <time>2020-09-24T12:44:55Z</time>
      </trkpt>
      <trkpt lat="48.37333" lon="2.66136">
        <ele>125.59999847412</ele>
        <time>2020-09-24T12:45:00Z</time>
      </trkpt>
      <trkpt lat="48.37327" lon="2.66134">
        <ele>125.59999847412</ele>
        <time>2020-09-24T12:45:05Z</time>
      </trkpt>
      <trkpt lat="48.37322" lon="2.6613">
        <ele>125.59999847412</ele>
        <time>2020-09-24T12:45:10Z</time>
      </trkpt>
      <trkpt lat="48.37318" lon="2.66129">
        <ele>125.59999847412</ele>
        <time>2020-09-24T12:45:15Z</time>
      </trkpt>
      <trkpt lat="48.37314" lon="2.66127">
        <ele>125.80000305176</ele>
        <time>2020-09-24T12:45:20Z</time>
      </trkpt>
      <trkpt lat="48.37309" lon="2.66126">
        <ele>126</ele>
        <time>2020-09-24T12:45:25Z</time>
      </trkpt>
      <trkpt lat="48.37304" lon="2.66126">
        <ele>126</ele>
        <time>2020-09-24T12:45:30Z</time>
      </trkpt>
      <trkpt lat="48.37299" lon="2.66126">
        <ele>126.19999694824</ele>
        <time>2020-09-24T12:45:35Z</time>
      </trkpt>
      <trkpt lat="48.37292" lon="2.66124">
        <ele>126.59999847412</ele>
        <time>2020-09-24T12:45:40Z</time>
      </trkpt>
      <trkpt lat="48.37286" lon="2.66122">
        <ele>126.59999847412</ele>
        <time>2020-09-24T12:45:45Z</time>
      </trkpt>
      <trkpt lat="48.3728" lon="2.66121">
        <ele>126.59999847412</ele>
        <time>2020-09-24T12:45:50Z</time>
      </trkpt>
      <trkpt lat="48.37275" lon="2.66118">
        <ele>126.80000305176</ele>
        <time>2020-09-24T12:45:55Z</time>
      </trkpt>
      <trkpt lat="48.37269" lon="2.66115">
        <ele>126.80000305176</ele>
        <time>2020-09-24T12:46:00Z</time>
      </trkpt>
      <trkpt lat="48.37262" lon="2.66112">
        <ele>126.80000305176</ele>
        <time>2020-09-24T12:46:05Z</time>
      </trkpt>
      <trkpt lat="48.37257" lon="2.66109">
        <ele>127</ele>
        <time>2020-09-24T12:46:10Z</time>
      </trkpt>
      <trkpt lat="48.37254" lon="2.66105">
        <ele>127.19999694824</ele>
        <time>2020-09-24T12:46:15Z</time>
      </trkpt>
      <trkpt lat="48.37251" lon="2.661">
        <ele>127.19999694824</ele>
        <time>2020-09-24T12:46:20Z</time>
      </trkpt>
      <trkpt lat="48.37246" lon="2.66096">
        <ele>127.19999694824</ele>
        <time>2020-09-24T12:46:25Z</time>
      </trkpt>
      <trkpt lat="48.37243" lon="2.6609">
        <ele>127.19999694824</ele>
        <time>2020-09-24T12:46:30Z</time>
      </trkpt>
      <trkpt lat="48.37239" lon="2.66085">
        <ele>127.40000152588</ele>
        <time>2020-09-24T12:46:35Z</time>
      </trkpt>
      <trkpt lat="48.37236" lon="2.6608">
        <ele>127.40000152588</ele>
        <time>2020-09-24T12:46:40Z</time>
      </trkpt>
      <trkpt lat="48.37233" lon="2.66074">
        <ele>127.40000152588</ele>
        <time>2020-09-24T12:46:45Z</time>
      </trkpt>
      <trkpt lat="48.3723" lon="2.66068">
        <ele>127.80000305176</ele>
        <time>2020-09-24T12:46:50Z</time>
      </trkpt>
      <trkpt lat="48.37227" lon="2.66062">
        <ele>128</ele>
        <time>2020-09-24T12:46:55Z</time>
      </trkpt>
      <trkpt lat="48.37223" lon="2.66056">
        <ele>128.19999694824</ele>
        <time>2020-09-24T12:47:00Z</time>
      </trkpt>
      <trkpt lat="48.37218" lon="2.66052">
        <ele>128</ele>
        <time>2020-09-24T12:47:20Z</time>
      </trkpt>
      <trkpt lat="48.37213" lon="2.66058">
        <ele>128.19999694824</ele>
        <time>2020-09-24T12:48:45Z</time>
      </trkpt>
      <trkpt lat="48.37213" lon="2.66062">
        <ele>128.19999694824</ele>
        <time>2020-09-24T12:48:50Z</time>
      </trkpt>
      <trkpt lat="48.37214" lon="2.66069">
        <ele>128.19999694824</ele>
        <time>2020-09-24T12:48:55Z</time>
      </trkpt>
      <trkpt lat="48.37215" lon="2.66076">
        <ele>128.39999389648</ele>
        <time>2020-09-24T12:49:00Z</time>
      </trkpt>
      <trkpt lat="48.37215" lon="2.66085">
        <ele>128.80000305176</ele>
        <time>2020-09-24T12:49:05Z</time>
      </trkpt>
      <trkpt lat="48.37215" lon="2.66093">
        <ele>128.80000305176</ele>
        <time>2020-09-24T12:49:10Z</time>
      </trkpt>
      <trkpt lat="48.37214" lon="2.66102">
        <ele>129</ele>
        <time>2020-09-24T12:49:15Z</time>
      </trkpt>
      <trkpt lat="48.37215" lon="2.6611">
        <ele>129.19999694824</ele>
        <time>2020-09-24T12:49:20Z</time>
      </trkpt>
      <trkpt lat="48.37215" lon="2.66117">
        <ele>129.19999694824</ele>
        <time>2020-09-24T12:49:25Z</time>
      </trkpt>
      <trkpt lat="48.37214" lon="2.66125">
        <ele>129.19999694824</ele>
        <time>2020-09-24T12:49:30Z</time>
      </trkpt>
      <trkpt lat="48.37212" lon="2.66133">
        <ele>129.60000610352</ele>
        <time>2020-09-24T12:49:35Z</time>
      </trkpt>
      <trkpt lat="48.37212" lon="2.66141">
        <ele>130</ele>
        <time>2020-09-24T12:49:40Z</time>
      </trkpt>
      <trkpt lat="48.37211" lon="2.66149">
        <ele>130</ele>
        <time>2020-09-24T12:49:45Z</time>
      </trkpt>
      <trkpt lat="48.37211" lon="2.66155">
        <ele>130.19999694824</ele>
        <time>2020-09-24T12:49:50Z</time>
      </trkpt>
      <trkpt lat="48.3721" lon="2.66161">
        <ele>130.60000610352</ele>
        <time>2020-09-24T12:49:55Z</time>
      </trkpt>
      <trkpt lat="48.37209" lon="2.66169">
        <ele>130.60000610352</ele>
        <time>2020-09-24T12:50:00Z</time>
      </trkpt>
      <trkpt lat="48.37207" lon="2.66178">
        <ele>130.60000610352</ele>
        <time>2020-09-24T12:50:05Z</time>
      </trkpt>
      <trkpt lat="48.37204" lon="2.66186">
        <ele>130.80000305176</ele>
        <time>2020-09-24T12:50:10Z</time>
      </trkpt>
      <trkpt lat="48.37204" lon="2.66193">
        <ele>131</ele>
        <time>2020-09-24T12:50:15Z</time>
      </trkpt>
      <trkpt lat="48.37204" lon="2.662">
        <ele>131.39999389648</ele>
        <time>2020-09-24T12:50:20Z</time>
      </trkpt>
      <trkpt lat="48.37202" lon="2.66209">
        <ele>131.60000610352</ele>
        <time>2020-09-24T12:50:25Z</time>
      </trkpt>
      <trkpt lat="48.372" lon="2.66217">
        <ele>131.80000305176</ele>
        <time>2020-09-24T12:50:30Z</time>
      </trkpt>
      <trkpt lat="48.37198" lon="2.66225">
        <ele>132.19999694824</ele>
        <time>2020-09-24T12:50:35Z</time>
      </trkpt>
      <trkpt lat="48.37197" lon="2.66233">
        <ele>132.39999389648</ele>
        <time>2020-09-24T12:50:40Z</time>
      </trkpt>
      <trkpt lat="48.37195" lon="2.66241">
        <ele>132.60000610352</ele>
        <time>2020-09-24T12:50:45Z</time>
      </trkpt>
      <trkpt lat="48.37195" lon="2.66247">
        <ele>132.60000610352</ele>
        <time>2020-09-24T12:50:50Z</time>
      </trkpt>
      <trkpt lat="48.37195" lon="2.66253">
        <ele>132.60000610352</ele>
        <time>2020-09-24T12:50:55Z</time>
      </trkpt>
      <trkpt lat="48.37193" lon="2.6626">
        <ele>132.80000305176</ele>
        <time>2020-09-24T12:51:00Z</time>
      </trkpt>
      <trkpt lat="48.37192" lon="2.66268">
        <ele>133</ele>
        <time>2020-09-24T12:51:05Z</time>
      </trkpt>
      <trkpt lat="48.37189" lon="2.66275">
        <ele>133.19999694824</ele>
        <time>2020-09-24T12:51:10Z</time>
      </trkpt>
      <trkpt lat="48.37189" lon="2.66285">
        <ele>133.39999389648</ele>
        <time>2020-09-24T12:51:15Z</time>
      </trkpt>
      <trkpt lat="48.37187" lon="2.66293">
        <ele>133.80000305176</ele>
        <time>2020-09-24T12:51:20Z</time>
      </trkpt>
      <trkpt lat="48.37186" lon="2.66302">
        <ele>133.80000305176</ele>
        <time>2020-09-24T12:51:25Z</time>
      </trkpt>
      <trkpt lat="48.37184" lon="2.6631">
        <ele>134</ele>
        <time>2020-09-24T12:51:30Z</time>
      </trkpt>
      <trkpt lat="48.37183" lon="2.66319">
        <ele>134</ele>
        <time>2020-09-24T12:51:35Z</time>
      </trkpt>
      <trkpt lat="48.37181" lon="2.66326">
        <ele>134.19999694824</ele>
        <time>2020-09-24T12:51:40Z</time>
      </trkpt>
      <trkpt lat="48.3718" lon="2.66335">
        <ele>134.39999389648</ele>
        <time>2020-09-24T12:51:45Z</time>
      </trkpt>
      <trkpt lat="48.37179" lon="2.66342">
        <ele>134.39999389648</ele>
        <time>2020-09-24T12:51:50Z</time>
      </trkpt>
      <trkpt lat="48.37178" lon="2.66352">
        <ele>134.19999694824</ele>
        <time>2020-09-24T12:51:55Z</time>
      </trkpt>
      <trkpt lat="48.37176" lon="2.66359">
        <ele>134.39999389648</ele>
        <time>2020-09-24T12:52:00Z</time>
      </trkpt>
      <trkpt lat="48.37175" lon="2.66366">
        <ele>134.80000305176</ele>
        <time>2020-09-24T12:52:05Z</time>
      </trkpt>
      <trkpt lat="48.37172" lon="2.66374">
        <ele>135.19999694824</ele>
        <time>2020-09-24T12:52:10Z</time>
      </trkpt>
      <trkpt lat="48.37169" lon="2.66384">
        <ele>135.39999389648</ele>
        <time>2020-09-24T12:52:15Z</time>
      </trkpt>
      <trkpt lat="48.37168" lon="2.66391">
        <ele>135.60000610352</ele>
        <time>2020-09-24T12:52:20Z</time>
      </trkpt>
      <trkpt lat="48.37166" lon="2.66401">
        <ele>135.80000305176</ele>
        <time>2020-09-24T12:52:25Z</time>
      </trkpt>
      <trkpt lat="48.37165" lon="2.6641">
        <ele>136.19999694824</ele>
        <time>2020-09-24T12:52:30Z</time>
      </trkpt>
      <trkpt lat="48.37166" lon="2.66418">
        <ele>136.39999389648</ele>
        <time>2020-09-24T12:52:35Z</time>
      </trkpt>
      <trkpt lat="48.37165" lon="2.66426">
        <ele>136.60000610352</ele>
        <time>2020-09-24T12:52:40Z</time>
      </trkpt>
      <trkpt lat="48.37166" lon="2.66432">
        <ele>136.80000305176</ele>
        <time>2020-09-24T12:52:45Z</time>
      </trkpt>
      <trkpt lat="48.37165" lon="2.66438">
        <ele>137</ele>
        <time>2020-09-24T12:52:50Z</time>
      </trkpt>
      <trkpt lat="48.37162" lon="2.66441">
        <ele>137.39999389648</ele>
        <time>2020-09-24T12:52:55Z</time>
      </trkpt>
      <trkpt lat="48.37162" lon="2.66441">
        <ele>137.80000305176</ele>
        <time>2020-09-24T12:53:00Z</time>
      </trkpt>
      <trkpt lat="48.37161" lon="2.6644">
        <ele>138</ele>
        <time>2020-09-24T12:53:05Z</time>
      </trkpt>
      <trkpt lat="48.37161" lon="2.66439">
        <ele>137.80000305176</ele>
        <time>2020-09-24T12:53:10Z</time>
      </trkpt>
      <trkpt lat="48.37161" lon="2.66438">
        <ele>138</ele>
        <time>2020-09-24T12:53:15Z</time>
      </trkpt>
      <trkpt lat="48.3716" lon="2.66437">
        <ele>137.80000305176</ele>
        <time>2020-09-24T12:53:20Z</time>
      </trkpt>
      <trkpt lat="48.37158" lon="2.66434">
        <ele>137.80000305176</ele>
        <time>2020-09-24T12:53:25Z</time>
      </trkpt>
      <trkpt lat="48.37154" lon="2.66429">
        <ele>137.80000305176</ele>
        <time>2020-09-24T12:53:30Z</time>
      </trkpt>
      <trkpt lat="48.3715" lon="2.66425">
        <ele>137.60000610352</ele>
        <time>2020-09-24T12:53:35Z</time>
      </trkpt>
      <trkpt lat="48.37146" lon="2.66419">
        <ele>137.60000610352</ele>
        <time>2020-09-24T12:53:40Z</time>
      </trkpt>
      <trkpt lat="48.37142" lon="2.66412">
        <ele>137.60000610352</ele>
        <time>2020-09-24T12:53:45Z</time>
      </trkpt>
      <trkpt lat="48.37138" lon="2.66406">
        <ele>137.60000610352</ele>
        <time>2020-09-24T12:53:50Z</time>
      </trkpt>
      <trkpt lat="48.37135" lon="2.66403">
        <ele>137.60000610352</ele>
        <time>2020-09-24T12:53:55Z</time>
      </trkpt>
      <trkpt lat="48.37131" lon="2.664">
        <ele>137.60000610352</ele>
        <time>2020-09-24T12:54:00Z</time>
      </trkpt>
      <trkpt lat="48.37129" lon="2.66395">
        <ele>137.39999389648</ele>
        <time>2020-09-24T12:54:05Z</time>
      </trkpt>
      <trkpt lat="48.37124" lon="2.66389">
        <ele>137.39999389648</ele>
        <time>2020-09-24T12:54:10Z</time>
      </trkpt>
      <trkpt lat="48.3712" lon="2.66383">
        <ele>137.39999389648</ele>
        <time>2020-09-24T12:54:15Z</time>
      </trkpt>
      <trkpt lat="48.37116" lon="2.66377">
        <ele>137.19999694824</ele>
        <time>2020-09-24T12:54:20Z</time>
      </trkpt>
      <trkpt lat="48.37112" lon="2.66372">
        <ele>137.39999389648</ele>
        <time>2020-09-24T12:54:25Z</time>
      </trkpt>
      <trkpt lat="48.37108" lon="2.66366">
        <ele>137.39999389648</ele>
        <time>2020-09-24T12:54:30Z</time>
      </trkpt>
      <trkpt lat="48.37104" lon="2.66362">
        <ele>137.60000610352</ele>
        <time>2020-09-24T12:54:35Z</time>
      </trkpt>
      <trkpt lat="48.37101" lon="2.66355">
        <ele>138</ele>
        <time>2020-09-24T12:54:40Z</time>
      </trkpt>
      <trkpt lat="48.37098" lon="2.66347">
        <ele>138</ele>
        <time>2020-09-24T12:54:45Z</time>
      </trkpt>
      <trkpt lat="48.37094" lon="2.6634">
        <ele>138</ele>
        <time>2020-09-24T12:54:50Z</time>
      </trkpt>
      <trkpt lat="48.37091" lon="2.66335">
        <ele>138</ele>
        <time>2020-09-24T12:54:55Z</time>
      </trkpt>
      <trkpt lat="48.37086" lon="2.66329">
        <ele>138.19999694824</ele>
        <time>2020-09-24T12:55:00Z</time>
      </trkpt>
      <trkpt lat="48.37083" lon="2.66322">
        <ele>138.19999694824</ele>
        <time>2020-09-24T12:55:05Z</time>
      </trkpt>
      <trkpt lat="48.37079" lon="2.66315">
        <ele>138.19999694824</ele>
        <time>2020-09-24T12:55:10Z</time>
      </trkpt>
      <trkpt lat="48.37076" lon="2.66308">
        <ele>138.39999389648</ele>
        <time>2020-09-24T12:55:15Z</time>
      </trkpt>
      <trkpt lat="48.37072" lon="2.66302">
        <ele>138.60000610352</ele>
        <time>2020-09-24T12:55:20Z</time>
      </trkpt>
      <trkpt lat="48.37068" lon="2.66297">
        <ele>138.39999389648</ele>
        <time>2020-09-24T12:55:25Z</time>
      </trkpt>
      <trkpt lat="48.37065" lon="2.66292">
        <ele>138.19999694824</ele>
        <time>2020-09-24T12:55:30Z</time>
      </trkpt>
      <trkpt lat="48.37061" lon="2.66287">
        <ele>138.39999389648</ele>
        <time>2020-09-24T12:55:35Z</time>
      </trkpt>
      <trkpt lat="48.37058" lon="2.66282">
        <ele>138.39999389648</ele>
        <time>2020-09-24T12:55:40Z</time>
      </trkpt>
      <trkpt lat="48.37055" lon="2.66276">
        <ele>138.39999389648</ele>
        <time>2020-09-24T12:55:45Z</time>
      </trkpt>
      <trkpt lat="48.37051" lon="2.6627">
        <ele>138.39999389648</ele>
        <time>2020-09-24T12:55:50Z</time>
      </trkpt>
      <trkpt lat="48.37047" lon="2.66265">
        <ele>138.39999389648</ele>
        <time>2020-09-24T12:55:55Z</time>
      </trkpt>
      <trkpt lat="48.37043" lon="2.6626">
        <ele>138.39999389648</ele>
        <time>2020-09-24T12:56:00Z</time>
      </trkpt>
      <trkpt lat="48.3704" lon="2.66254">
        <ele>138.39999389648</ele>
        <time>2020-09-24T12:56:05Z</time>
      </trkpt>
      <trkpt lat="48.37036" lon="2.66247">
        <ele>138.19999694824</ele>
        <time>2020-09-24T12:56:10Z</time>
      </trkpt>
      <trkpt lat="48.37032" lon="2.66241">
        <ele>138</ele>
        <time>2020-09-24T12:56:15Z</time>
      </trkpt>
      <trkpt lat="48.37028" lon="2.66234">
        <ele>137.80000305176</ele>
        <time>2020-09-24T12:56:20Z</time>
      </trkpt>
      <trkpt lat="48.37024" lon="2.66229">
        <ele>137.60000610352</ele>
        <time>2020-09-24T12:56:25Z</time>
      </trkpt>
      <trkpt lat="48.3702" lon="2.66222">
        <ele>137.60000610352</ele>
        <time>2020-09-24T12:56:30Z</time>
      </trkpt>
      <trkpt lat="48.37016" lon="2.66215">
        <ele>137.60000610352</ele>
        <time>2020-09-24T12:56:35Z</time>
      </trkpt>
      <trkpt lat="48.37012" lon="2.66208">
        <ele>137.80000305176</ele>
        <time>2020-09-24T12:56:40Z</time>
      </trkpt>
      <trkpt lat="48.37009" lon="2.66202">
        <ele>138</ele>
        <time>2020-09-24T12:56:45Z</time>
      </trkpt>
      <trkpt lat="48.37003" lon="2.66197">
        <ele>137.60000610352</ele>
        <time>2020-09-24T12:56:50Z</time>
      </trkpt>
      <trkpt lat="48.36999" lon="2.66191">
        <ele>137.39999389648</ele>
        <time>2020-09-24T12:56:55Z</time>
      </trkpt>
      <trkpt lat="48.36996" lon="2.66183">
        <ele>136.80000305176</ele>
        <time>2020-09-24T12:57:00Z</time>
      </trkpt>
      <trkpt lat="48.36991" lon="2.66177">
        <ele>136.39999389648</ele>
        <time>2020-09-24T12:57:05Z</time>
      </trkpt>
      <trkpt lat="48.36987" lon="2.66172">
        <ele>136.60000610352</ele>
        <time>2020-09-24T12:57:10Z</time>
      </trkpt>
      <trkpt lat="48.36982" lon="2.66166">
        <ele>136.80000305176</ele>
        <time>2020-09-24T12:57:15Z</time>
      </trkpt>
      <trkpt lat="48.36979" lon="2.66159">
        <ele>137</ele>
        <time>2020-09-24T12:57:20Z</time>
      </trkpt>
      <trkpt lat="48.36974" lon="2.66153">
        <ele>136.60000610352</ele>
        <time>2020-09-24T12:57:25Z</time>
      </trkpt>
      <trkpt lat="48.36971" lon="2.66147">
        <ele>136.39999389648</ele>
        <time>2020-09-24T12:57:30Z</time>
      </trkpt>
      <trkpt lat="48.36967" lon="2.6614">
        <ele>136.39999389648</ele>
        <time>2020-09-24T12:57:35Z</time>
      </trkpt>
      <trkpt lat="48.36962" lon="2.66134">
        <ele>136.39999389648</ele>
        <time>2020-09-24T12:57:40Z</time>
      </trkpt>
      <trkpt lat="48.36959" lon="2.66127">
        <ele>136.39999389648</ele>
        <time>2020-09-24T12:57:45Z</time>
      </trkpt>
      <trkpt lat="48.36956" lon="2.66121">
        <ele>136.39999389648</ele>
        <time>2020-09-24T12:57:50Z</time>
      </trkpt>
      <trkpt lat="48.36952" lon="2.66115">
        <ele>136.39999389648</ele>
        <time>2020-09-24T12:57:55Z</time>
      </trkpt>
      <trkpt lat="48.36947" lon="2.66109">
        <ele>136.60000610352</ele>
        <time>2020-09-24T12:58:00Z</time>
      </trkpt>
      <trkpt lat="48.36944" lon="2.66102">
        <ele>136.80000305176</ele>
        <time>2020-09-24T12:58:05Z</time>
      </trkpt>
      <trkpt lat="48.3694" lon="2.66095">
        <ele>136.80000305176</ele>
        <time>2020-09-24T12:58:10Z</time>
      </trkpt>
      <trkpt lat="48.36936" lon="2.66089">
        <ele>137</ele>
        <time>2020-09-24T12:58:15Z</time>
      </trkpt>
      <trkpt lat="48.36932" lon="2.66083">
        <ele>137</ele>
        <time>2020-09-24T12:58:20Z</time>
      </trkpt>
      <trkpt lat="48.36928" lon="2.66078">
        <ele>137.19999694824</ele>
        <time>2020-09-24T12:58:25Z</time>
      </trkpt>
      <trkpt lat="48.36924" lon="2.66072">
        <ele>137.39999389648</ele>
        <time>2020-09-24T12:58:30Z</time>
      </trkpt>
      <trkpt lat="48.3692" lon="2.66065">
        <ele>137.39999389648</ele>
        <time>2020-09-24T12:58:35Z</time>
      </trkpt>
      <trkpt lat="48.36916" lon="2.66059">
        <ele>137.39999389648</ele>
        <time>2020-09-24T12:58:40Z</time>
      </trkpt>
      <trkpt lat="48.36913" lon="2.66053">
        <ele>137.60000610352</ele>
        <time>2020-09-24T12:58:45Z</time>
      </trkpt>
      <trkpt lat="48.3691" lon="2.66047">
        <ele>137.60000610352</ele>
        <time>2020-09-24T12:58:50Z</time>
      </trkpt>
      <trkpt lat="48.36905" lon="2.66041">
        <ele>137.60000610352</ele>
        <time>2020-09-24T12:58:55Z</time>
      </trkpt>
      <trkpt lat="48.369" lon="2.66036">
        <ele>137.39999389648</ele>
        <time>2020-09-24T12:59:00Z</time>
      </trkpt>
      <trkpt lat="48.36896" lon="2.66028">
        <ele>137.60000610352</ele>
        <time>2020-09-24T12:59:05Z</time>
      </trkpt>
      <trkpt lat="48.36892" lon="2.66021">
        <ele>137.60000610352</ele>
        <time>2020-09-24T12:59:10Z</time>
      </trkpt>
      <trkpt lat="48.36888" lon="2.66014">
        <ele>137.80000305176</ele>
        <time>2020-09-24T12:59:15Z</time>
      </trkpt>
      <trkpt lat="48.36884" lon="2.66008">
        <ele>137.80000305176</ele>
        <time>2020-09-24T12:59:20Z</time>
      </trkpt>
      <trkpt lat="48.36879" lon="2.66003">
        <ele>137.60000610352</ele>
        <time>2020-09-24T12:59:25Z</time>
      </trkpt>
      <trkpt lat="48.36877" lon="2.65997">
        <ele>137.60000610352</ele>
        <time>2020-09-24T12:59:30Z</time>
      </trkpt>
      <trkpt lat="48.36875" lon="2.6599">
        <ele>137.39999389648</ele>
        <time>2020-09-24T12:59:35Z</time>
      </trkpt>
      <trkpt lat="48.36876" lon="2.65978">
        <ele>136.80000305176</ele>
        <time>2020-09-24T12:59:55Z</time>
      </trkpt>
      <trkpt lat="48.36875" lon="2.65979">
        <ele>136.80000305176</ele>
        <time>2020-09-24T13:00:00Z</time>
      </trkpt>
      <trkpt lat="48.36875" lon="2.65986">
        <ele>136.80000305176</ele>
        <time>2020-09-24T13:00:55Z</time>
      </trkpt>
      <trkpt lat="48.36875" lon="2.65985">
        <ele>136.80000305176</ele>
        <time>2020-09-24T13:01:00Z</time>
      </trkpt>
      <trkpt lat="48.36875" lon="2.65985">
        <ele>136.80000305176</ele>
        <time>2020-09-24T13:01:05Z</time>
      </trkpt>
      <trkpt lat="48.36875" lon="2.65985">
        <ele>136.80000305176</ele>
        <time>2020-09-24T13:01:10Z</time>
      </trkpt>
      <trkpt lat="48.36875" lon="2.65984">
        <ele>136.80000305176</ele>
        <time>2020-09-24T13:01:20Z</time>
      </trkpt>
      <trkpt lat="48.36879" lon="2.65973">
        <ele>136.80000305176</ele>
        <time>2020-09-24T13:01:55Z</time>
      </trkpt>
      <trkpt lat="48.36879" lon="2.65972">
        <ele>136.80000305176</ele>
        <time>2020-09-24T13:02:00Z</time>
      </trkpt>
      <trkpt lat="48.36882" lon="2.65967">
        <ele>136.80000305176</ele>
        <time>2020-09-24T13:02:05Z</time>
      </trkpt>
      <trkpt lat="48.36884" lon="2.65959">
        <ele>136.80000305176</ele>
        <time>2020-09-24T13:02:10Z</time>
      </trkpt>
      <trkpt lat="48.36886" lon="2.65953">
        <ele>136.19999694824</ele>
        <time>2020-09-24T13:02:15Z</time>
      </trkpt>
      <trkpt lat="48.36888" lon="2.65947">
        <ele>136</ele>
        <time>2020-09-24T13:02:20Z</time>
      </trkpt>
      <trkpt lat="48.36892" lon="2.65941">
        <ele>135.80000305176</ele>
        <time>2020-09-24T13:02:25Z</time>
      </trkpt>
      <trkpt lat="48.36897" lon="2.65937">
        <ele>135.60000610352</ele>
        <time>2020-09-24T13:02:30Z</time>
      </trkpt>
      <trkpt lat="48.36901" lon="2.65931">
        <ele>135</ele>
        <time>2020-09-24T13:02:35Z</time>
      </trkpt>
      <trkpt lat="48.36905" lon="2.65926">
        <ele>134.60000610352</ele>
        <time>2020-09-24T13:02:40Z</time>
      </trkpt>
      <trkpt lat="48.3691" lon="2.6592">
        <ele>134.39999389648</ele>
        <time>2020-09-24T13:02:45Z</time>
      </trkpt>
      <trkpt lat="48.36913" lon="2.65914">
        <ele>133.80000305176</ele>
        <time>2020-09-24T13:02:50Z</time>
      </trkpt>
      <trkpt lat="48.36918" lon="2.65908">
        <ele>133.60000610352</ele>
        <time>2020-09-24T13:02:55Z</time>
      </trkpt>
      <trkpt lat="48.36922" lon="2.65902">
        <ele>133.39999389648</ele>
        <time>2020-09-24T13:03:00Z</time>
      </trkpt>
      <trkpt lat="48.36927" lon="2.65897">
        <ele>133</ele>
        <time>2020-09-24T13:03:05Z</time>
      </trkpt>
      <trkpt lat="48.3693" lon="2.65889">
        <ele>132.80000305176</ele>
        <time>2020-09-24T13:03:10Z</time>
      </trkpt>
      <trkpt lat="48.36933" lon="2.65883">
        <ele>132.80000305176</ele>
        <time>2020-09-24T13:03:15Z</time>
      </trkpt>
      <trkpt lat="48.36937" lon="2.65878">
        <ele>133.19999694824</ele>
        <time>2020-09-24T13:03:20Z</time>
      </trkpt>
      <trkpt lat="48.3694" lon="2.65872">
        <ele>133.39999389648</ele>
        <time>2020-09-24T13:03:25Z</time>
      </trkpt>
      <trkpt lat="48.36945" lon="2.65867">
        <ele>133.39999389648</ele>
        <time>2020-09-24T13:03:30Z</time>
      </trkpt>
      <trkpt lat="48.36948" lon="2.65862">
        <ele>133.60000610352</ele>
        <time>2020-09-24T13:03:35Z</time>
      </trkpt>
      <trkpt lat="48.36953" lon="2.65857">
        <ele>134</ele>
        <time>2020-09-24T13:03:40Z</time>
      </trkpt>
      <trkpt lat="48.36957" lon="2.6585">
        <ele>134.19999694824</ele>
        <time>2020-09-24T13:03:45Z</time>
      </trkpt>
      <trkpt lat="48.36961" lon="2.65844">
        <ele>134.60000610352</ele>
        <time>2020-09-24T13:03:50Z</time>
      </trkpt>
      <trkpt lat="48.36964" lon="2.65839">
        <ele>134.60000610352</ele>
        <time>2020-09-24T13:03:55Z</time>
      </trkpt>
      <trkpt lat="48.36967" lon="2.65834">
        <ele>134.60000610352</ele>
        <time>2020-09-24T13:04:00Z</time>
      </trkpt>
      <trkpt lat="48.36972" lon="2.65829">
        <ele>134.60000610352</ele>
        <time>2020-09-24T13:04:05Z</time>
      </trkpt>
      <trkpt lat="48.36977" lon="2.65823">
        <ele>134.80000305176</ele>
        <time>2020-09-24T13:04:10Z</time>
      </trkpt>
      <trkpt lat="48.36982" lon="2.65817">
        <ele>134.80000305176</ele>
        <time>2020-09-24T13:04:15Z</time>
      </trkpt>
      <trkpt lat="48.36985" lon="2.65812">
        <ele>134.60000610352</ele>
        <time>2020-09-24T13:04:20Z</time>
      </trkpt>
      <trkpt lat="48.3699" lon="2.65806">
        <ele>134.80000305176</ele>
        <time>2020-09-24T13:04:25Z</time>
      </trkpt>
      <trkpt lat="48.36995" lon="2.65801">
        <ele>134.80000305176</ele>
        <time>2020-09-24T13:04:30Z</time>
      </trkpt>
      <trkpt lat="48.36999" lon="2.65795">
        <ele>134.80000305176</ele>
        <time>2020-09-24T13:04:35Z</time>
      </trkpt>
      <trkpt lat="48.37002" lon="2.65789">
        <ele>134.80000305176</ele>
        <time>2020-09-24T13:04:40Z</time>
      </trkpt>
      <trkpt lat="48.37007" lon="2.65783">
        <ele>135</ele>
        <time>2020-09-24T13:04:45Z</time>
      </trkpt>
      <trkpt lat="48.3701" lon="2.65776">
        <ele>135.19999694824</ele>
        <time>2020-09-24T13:04:50Z</time>
      </trkpt>
      <trkpt lat="48.37015" lon="2.6577">
        <ele>135.19999694824</ele>
        <time>2020-09-24T13:04:55Z</time>
      </trkpt>
      <trkpt lat="48.37019" lon="2.65764">
        <ele>135.19999694824</ele>
        <time>2020-09-24T13:05:00Z</time>
      </trkpt>
      <trkpt lat="48.37023" lon="2.65759">
        <ele>135.60000610352</ele>
        <time>2020-09-24T13:05:05Z</time>
      </trkpt>
      <trkpt lat="48.37027" lon="2.65753">
        <ele>135.60000610352</ele>
        <time>2020-09-24T13:05:10Z</time>
      </trkpt>
      <trkpt lat="48.37032" lon="2.65747">
        <ele>135.60000610352</ele>
        <time>2020-09-24T13:05:15Z</time>
      </trkpt>
      <trkpt lat="48.37036" lon="2.65741">
        <ele>135.19999694824</ele>
        <time>2020-09-24T13:05:20Z</time>
      </trkpt>
      <trkpt lat="48.37041" lon="2.65734">
        <ele>135.19999694824</ele>
        <time>2020-09-24T13:05:25Z</time>
      </trkpt>
      <trkpt lat="48.37045" lon="2.65728">
        <ele>135.19999694824</ele>
        <time>2020-09-24T13:05:30Z</time>
      </trkpt>
      <trkpt lat="48.37049" lon="2.65722">
        <ele>135.39999389648</ele>
        <time>2020-09-24T13:05:35Z</time>
      </trkpt>
      <trkpt lat="48.37051" lon="2.65716">
        <ele>135</ele>
        <time>2020-09-24T13:05:40Z</time>
      </trkpt>
      <trkpt lat="48.37053" lon="2.65711">
        <ele>135</ele>
        <time>2020-09-24T13:05:45Z</time>
      </trkpt>
      <trkpt lat="48.37057" lon="2.65706">
        <ele>135.39999389648</ele>
        <time>2020-09-24T13:05:50Z</time>
      </trkpt>
      <trkpt lat="48.37061" lon="2.657">
        <ele>134.80000305176</ele>
        <time>2020-09-24T13:05:55Z</time>
      </trkpt>
      <trkpt lat="48.37065" lon="2.65695">
        <ele>134.80000305176</ele>
        <time>2020-09-24T13:06:00Z</time>
      </trkpt>
      <trkpt lat="48.37069" lon="2.65689">
        <ele>134.80000305176</ele>
        <time>2020-09-24T13:06:05Z</time>
      </trkpt>
      <trkpt lat="48.37074" lon="2.65684">
        <ele>134.80000305176</ele>
        <time>2020-09-24T13:06:10Z</time>
      </trkpt>
      <trkpt lat="48.37077" lon="2.65679">
        <ele>134.80000305176</ele>
        <time>2020-09-24T13:06:15Z</time>
      </trkpt>
      <trkpt lat="48.37082" lon="2.65674">
        <ele>134.80000305176</ele>
        <time>2020-09-24T13:06:20Z</time>
      </trkpt>
      <trkpt lat="48.37086" lon="2.65668">
        <ele>134.80000305176</ele>
        <time>2020-09-24T13:06:25Z</time>
      </trkpt>
      <trkpt lat="48.37091" lon="2.65663">
        <ele>134.80000305176</ele>
        <time>2020-09-24T13:06:30Z</time>
      </trkpt>
      <trkpt lat="48.37094" lon="2.65655">
        <ele>134.80000305176</ele>
        <time>2020-09-24T13:06:35Z</time>
      </trkpt>
      <trkpt lat="48.37097" lon="2.65649">
        <ele>134.80000305176</ele>
        <time>2020-09-24T13:06:40Z</time>
      </trkpt>
      <trkpt lat="48.37101" lon="2.65644">
        <ele>134.80000305176</ele>
        <time>2020-09-24T13:06:45Z</time>
      </trkpt>
      <trkpt lat="48.37105" lon="2.6564">
        <ele>134.60000610352</ele>
        <time>2020-09-24T13:06:50Z</time>
      </trkpt>
      <trkpt lat="48.37109" lon="2.65636">
        <ele>134.60000610352</ele>
        <time>2020-09-24T13:06:55Z</time>
      </trkpt>
      <trkpt lat="48.37113" lon="2.65629">
        <ele>134.39999389648</ele>
        <time>2020-09-24T13:07:00Z</time>
      </trkpt>
      <trkpt lat="48.37117" lon="2.65623">
        <ele>134.60000610352</ele>
        <time>2020-09-24T13:07:05Z</time>
      </trkpt>
      <trkpt lat="48.37119" lon="2.65618">
        <ele>134.80000305176</ele>
        <time>2020-09-24T13:07:10Z</time>
      </trkpt>
      <trkpt lat="48.37125" lon="2.65612">
        <ele>135.19999694824</ele>
        <time>2020-09-24T13:07:15Z</time>
      </trkpt>
      <trkpt lat="48.37128" lon="2.65607">
        <ele>134.60000610352</ele>
        <time>2020-09-24T13:07:20Z</time>
      </trkpt>
      <trkpt lat="48.37132" lon="2.656">
        <ele>134.19999694824</ele>
        <time>2020-09-24T13:07:25Z</time>
      </trkpt>
      <trkpt lat="48.37135" lon="2.65594">
        <ele>134.19999694824</ele>
        <time>2020-09-24T13:07:30Z</time>
      </trkpt>
      <trkpt lat="48.3714" lon="2.65589">
        <ele>134</ele>
        <time>2020-09-24T13:07:35Z</time>
      </trkpt>
      <trkpt lat="48.37143" lon="2.65585">
        <ele>133.39999389648</ele>
        <time>2020-09-24T13:07:40Z</time>
      </trkpt>
      <trkpt lat="48.37147" lon="2.6558">
        <ele>133.19999694824</ele>
        <time>2020-09-24T13:07:45Z</time>
      </trkpt>
      <trkpt lat="48.37152" lon="2.65575">
        <ele>132.80000305176</ele>
        <time>2020-09-24T13:07:50Z</time>
      </trkpt>
      <trkpt lat="48.37157" lon="2.65571">
        <ele>132.60000610352</ele>
        <time>2020-09-24T13:07:55Z</time>
      </trkpt>
      <trkpt lat="48.3716" lon="2.65568">
        <ele>132.19999694824</ele>
        <time>2020-09-24T13:08:00Z</time>
      </trkpt>
      <trkpt lat="48.37165" lon="2.65567">
        <ele>130.80000305176</ele>
        <time>2020-09-24T13:08:05Z</time>
      </trkpt>
      <trkpt lat="48.3717" lon="2.65564">
        <ele>130.19999694824</ele>
        <time>2020-09-24T13:08:10Z</time>
      </trkpt>
      <trkpt lat="48.37176" lon="2.6556">
        <ele>129.60000610352</ele>
        <time>2020-09-24T13:08:15Z</time>
      </trkpt>
      <trkpt lat="48.3718" lon="2.65558">
        <ele>129</ele>
        <time>2020-09-24T13:08:20Z</time>
      </trkpt>
      <trkpt lat="48.37184" lon="2.65556">
        <ele>128</ele>
        <time>2020-09-24T13:08:25Z</time>
      </trkpt>
      <trkpt lat="48.3719" lon="2.65553">
        <ele>126.80000305176</ele>
        <time>2020-09-24T13:08:30Z</time>
      </trkpt>
      <trkpt lat="48.37196" lon="2.65552">
        <ele>126</ele>
        <time>2020-09-24T13:08:35Z</time>
      </trkpt>
      <trkpt lat="48.372" lon="2.6555">
        <ele>125.40000152588</ele>
        <time>2020-09-24T13:08:40Z</time>
      </trkpt>
      <trkpt lat="48.37207" lon="2.65547">
        <ele>125</ele>
        <time>2020-09-24T13:08:45Z</time>
      </trkpt>
      <trkpt lat="48.37213" lon="2.65546">
        <ele>125</ele>
        <time>2020-09-24T13:08:50Z</time>
      </trkpt>
      <trkpt lat="48.3722" lon="2.65545">
        <ele>125.19999694824</ele>
        <time>2020-09-24T13:08:55Z</time>
      </trkpt>
      <trkpt lat="48.37224" lon="2.65543">
        <ele>125.40000152588</ele>
        <time>2020-09-24T13:09:00Z</time>
      </trkpt>
      <trkpt lat="48.37223" lon="2.65547">
        <ele>124</ele>
        <time>2020-09-24T13:11:25Z</time>
      </trkpt>
      <trkpt lat="48.37223" lon="2.65546">
        <ele>124</ele>
        <time>2020-09-24T13:11:30Z</time>
      </trkpt>
      <trkpt lat="48.37223" lon="2.65546">
        <ele>123.59999847412</ele>
        <time>2020-09-24T13:11:35Z</time>
      </trkpt>
      <trkpt lat="48.37224" lon="2.65546">
        <ele>123.40000152588</ele>
        <time>2020-09-24T13:11:40Z</time>
      </trkpt>
      <trkpt lat="48.37224" lon="2.65546">
        <ele>124.40000152588</ele>
        <time>2020-09-24T13:11:45Z</time>
      </trkpt>
      <trkpt lat="48.37229" lon="2.65545">
        <ele>124.40000152588</ele>
        <time>2020-09-24T13:12:00Z</time>
      </trkpt>
      <trkpt lat="48.37234" lon="2.65541">
        <ele>124.80000305176</ele>
        <time>2020-09-24T13:12:05Z</time>
      </trkpt>
      <trkpt lat="48.37241" lon="2.65536">
        <ele>125</ele>
        <time>2020-09-24T13:12:10Z</time>
      </trkpt>
      <trkpt lat="48.37247" lon="2.65534">
        <ele>125</ele>
        <time>2020-09-24T13:12:15Z</time>
      </trkpt>
      <trkpt lat="48.3725" lon="2.65531">
        <ele>125</ele>
        <time>2020-09-24T13:12:20Z</time>
      </trkpt>
      <trkpt lat="48.37255" lon="2.6553">
        <ele>125.19999694824</ele>
        <time>2020-09-24T13:12:25Z</time>
      </trkpt>
      <trkpt lat="48.3726" lon="2.65529">
        <ele>125.19999694824</ele>
        <time>2020-09-24T13:12:30Z</time>
      </trkpt>
      <trkpt lat="48.37265" lon="2.65526">
        <ele>125.19999694824</ele>
        <time>2020-09-24T13:12:35Z</time>
      </trkpt>
      <trkpt lat="48.37271" lon="2.6552">
        <ele>125.19999694824</ele>
        <time>2020-09-24T13:12:40Z</time>
      </trkpt>
      <trkpt lat="48.37274" lon="2.65514">
        <ele>125.19999694824</ele>
        <time>2020-09-24T13:12:45Z</time>
      </trkpt>
      <trkpt lat="48.37276" lon="2.65509">
        <ele>125.40000152588</ele>
        <time>2020-09-24T13:12:50Z</time>
      </trkpt>
      <trkpt lat="48.37279" lon="2.65505">
        <ele>125.40000152588</ele>
        <time>2020-09-24T13:12:55Z</time>
      </trkpt>
      <trkpt lat="48.37282" lon="2.65498">
        <ele>125.59999847412</ele>
        <time>2020-09-24T13:13:00Z</time>
      </trkpt>
      <trkpt lat="48.37282" lon="2.65493">
        <ele>125.59999847412</ele>
        <time>2020-09-24T13:13:05Z</time>
      </trkpt>
      <trkpt lat="48.37285" lon="2.65485">
        <ele>126</ele>
        <time>2020-09-24T13:13:10Z</time>
      </trkpt>
      <trkpt lat="48.37287" lon="2.65477">
        <ele>126</ele>
        <time>2020-09-24T13:13:15Z</time>
      </trkpt>
      <trkpt lat="48.37289" lon="2.65471">
        <ele>126.40000152588</ele>
        <time>2020-09-24T13:13:20Z</time>
      </trkpt>
      <trkpt lat="48.37292" lon="2.65463">
        <ele>126.59999847412</ele>
        <time>2020-09-24T13:13:25Z</time>
      </trkpt>
      <trkpt lat="48.37295" lon="2.65455">
        <ele>126.80000305176</ele>
        <time>2020-09-24T13:13:30Z</time>
      </trkpt>
      <trkpt lat="48.37297" lon="2.65446">
        <ele>127.19999694824</ele>
        <time>2020-09-24T13:13:35Z</time>
      </trkpt>
      <trkpt lat="48.373" lon="2.65439">
        <ele>127.40000152588</ele>
        <time>2020-09-24T13:13:40Z</time>
      </trkpt>
      <trkpt lat="48.37302" lon="2.65432">
        <ele>127.19999694824</ele>
        <time>2020-09-24T13:13:45Z</time>
      </trkpt>
      <trkpt lat="48.37305" lon="2.65425">
        <ele>127.40000152588</ele>
        <time>2020-09-24T13:13:50Z</time>
      </trkpt>
      <trkpt lat="48.37307" lon="2.65418">
        <ele>127.59999847412</ele>
        <time>2020-09-24T13:13:55Z</time>
      </trkpt>
      <trkpt lat="48.3731" lon="2.65411">
        <ele>128</ele>
        <time>2020-09-24T13:14:00Z</time>
      </trkpt>
      <trkpt lat="48.37313" lon="2.65403">
        <ele>128.19999694824</ele>
        <time>2020-09-24T13:14:05Z</time>
      </trkpt>
      <trkpt lat="48.37316" lon="2.65394">
        <ele>128.39999389648</ele>
        <time>2020-09-24T13:14:10Z</time>
      </trkpt>
      <trkpt lat="48.3732" lon="2.65385">
        <ele>128.60000610352</ele>
        <time>2020-09-24T13:14:15Z</time>
      </trkpt>
      <trkpt lat="48.37323" lon="2.65377">
        <ele>129</ele>
        <time>2020-09-24T13:14:20Z</time>
      </trkpt>
      <trkpt lat="48.37326" lon="2.65367">
        <ele>129.39999389648</ele>
        <time>2020-09-24T13:14:25Z</time>
      </trkpt>
      <trkpt lat="48.37328" lon="2.6536">
        <ele>130.19999694824</ele>
        <time>2020-09-24T13:14:30Z</time>
      </trkpt>
      <trkpt lat="48.37332" lon="2.65351">
        <ele>130.60000610352</ele>
        <time>2020-09-24T13:14:35Z</time>
      </trkpt>
      <trkpt lat="48.37335" lon="2.65342">
        <ele>130.80000305176</ele>
        <time>2020-09-24T13:14:40Z</time>
      </trkpt>
      <trkpt lat="48.37338" lon="2.65334">
        <ele>131</ele>
        <time>2020-09-24T13:14:45Z</time>
      </trkpt>
      <trkpt lat="48.37341" lon="2.65325">
        <ele>131</ele>
        <time>2020-09-24T13:14:50Z</time>
      </trkpt>
      <trkpt lat="48.37343" lon="2.65316">
        <ele>131</ele>
        <time>2020-09-24T13:14:55Z</time>
      </trkpt>
      <trkpt lat="48.37346" lon="2.65307">
        <ele>131</ele>
        <time>2020-09-24T13:15:00Z</time>
      </trkpt>
      <trkpt lat="48.37349" lon="2.65298">
        <ele>131</ele>
        <time>2020-09-24T13:15:05Z</time>
      </trkpt>
      <trkpt lat="48.37351" lon="2.65289">
        <ele>131</ele>
        <time>2020-09-24T13:15:10Z</time>
      </trkpt>
      <trkpt lat="48.37355" lon="2.65281">
        <ele>131.19999694824</ele>
        <time>2020-09-24T13:15:15Z</time>
      </trkpt>
      <trkpt lat="48.37358" lon="2.65272">
        <ele>131.19999694824</ele>
        <time>2020-09-24T13:15:20Z</time>
      </trkpt>
      <trkpt lat="48.3736" lon="2.65264">
        <ele>131.19999694824</ele>
        <time>2020-09-24T13:15:25Z</time>
      </trkpt>
      <trkpt lat="48.37363" lon="2.65256">
        <ele>131.19999694824</ele>
        <time>2020-09-24T13:15:30Z</time>
      </trkpt>
      <trkpt lat="48.37365" lon="2.65248">
        <ele>131.19999694824</ele>
        <time>2020-09-24T13:15:35Z</time>
      </trkpt>
      <trkpt lat="48.37368" lon="2.65241">
        <ele>131</ele>
        <time>2020-09-24T13:15:40Z</time>
      </trkpt>
      <trkpt lat="48.3737" lon="2.65234">
        <ele>131.19999694824</ele>
        <time>2020-09-24T13:15:45Z</time>
      </trkpt>
      <trkpt lat="48.37372" lon="2.65227">
        <ele>131.19999694824</ele>
        <time>2020-09-24T13:15:50Z</time>
      </trkpt>
      <trkpt lat="48.37373" lon="2.65224">
        <ele>131.19999694824</ele>
        <time>2020-09-24T13:15:55Z</time>
      </trkpt>
      <trkpt lat="48.37373" lon="2.65221">
        <ele>130.80000305176</ele>
        <time>2020-09-24T13:16:00Z</time>
      </trkpt>
      <trkpt lat="48.37375" lon="2.65217">
        <ele>130.80000305176</ele>
        <time>2020-09-24T13:16:05Z</time>
      </trkpt>
      <trkpt lat="48.37378" lon="2.65212">
        <ele>130.80000305176</ele>
        <time>2020-09-24T13:16:10Z</time>
      </trkpt>
      <trkpt lat="48.3738" lon="2.65204">
        <ele>130.60000610352</ele>
        <time>2020-09-24T13:16:15Z</time>
      </trkpt>
      <trkpt lat="48.37382" lon="2.65196">
        <ele>130.19999694824</ele>
        <time>2020-09-24T13:16:20Z</time>
      </trkpt>
      <trkpt lat="48.37384" lon="2.65187">
        <ele>130.39999389648</ele>
        <time>2020-09-24T13:16:25Z</time>
      </trkpt>
      <trkpt lat="48.37386" lon="2.6518">
        <ele>130.19999694824</ele>
        <time>2020-09-24T13:16:30Z</time>
      </trkpt>
      <trkpt lat="48.37388" lon="2.65171">
        <ele>130.60000610352</ele>
        <time>2020-09-24T13:16:35Z</time>
      </trkpt>
      <trkpt lat="48.37389" lon="2.65164">
        <ele>130.80000305176</ele>
        <time>2020-09-24T13:16:40Z</time>
      </trkpt>
      <trkpt lat="48.37391" lon="2.65157">
        <ele>130.60000610352</ele>
        <time>2020-09-24T13:16:45Z</time>
      </trkpt>
      <trkpt lat="48.37394" lon="2.65148">
        <ele>130.19999694824</ele>
        <time>2020-09-24T13:16:50Z</time>
      </trkpt>
      <trkpt lat="48.37396" lon="2.6514">
        <ele>130</ele>
        <time>2020-09-24T13:16:55Z</time>
      </trkpt>
      <trkpt lat="48.37399" lon="2.65133">
        <ele>130.19999694824</ele>
        <time>2020-09-24T13:17:00Z</time>
      </trkpt>
      <trkpt lat="48.37401" lon="2.65126">
        <ele>130.19999694824</ele>
        <time>2020-09-24T13:17:05Z</time>
      </trkpt>
      <trkpt lat="48.37404" lon="2.65119">
        <ele>130.19999694824</ele>
        <time>2020-09-24T13:17:10Z</time>
      </trkpt>
      <trkpt lat="48.37407" lon="2.6511">
        <ele>130.19999694824</ele>
        <time>2020-09-24T13:17:15Z</time>
      </trkpt>
      <trkpt lat="48.3741" lon="2.65099">
        <ele>130</ele>
        <time>2020-09-24T13:17:20Z</time>
      </trkpt>
      <trkpt lat="48.37413" lon="2.65089">
        <ele>129.80000305176</ele>
        <time>2020-09-24T13:17:25Z</time>
      </trkpt>
      <trkpt lat="48.37416" lon="2.65082">
        <ele>129.80000305176</ele>
        <time>2020-09-24T13:17:30Z</time>
      </trkpt>
      <trkpt lat="48.3742" lon="2.65074">
        <ele>130</ele>
        <time>2020-09-24T13:17:35Z</time>
      </trkpt>
      <trkpt lat="48.37421" lon="2.65067">
        <ele>130.60000610352</ele>
        <time>2020-09-24T13:17:40Z</time>
      </trkpt>
      <trkpt lat="48.37424" lon="2.6506">
        <ele>130.60000610352</ele>
        <time>2020-09-24T13:17:45Z</time>
      </trkpt>
      <trkpt lat="48.37425" lon="2.65052">
        <ele>130.80000305176</ele>
        <time>2020-09-24T13:17:50Z</time>
      </trkpt>
      <trkpt lat="48.37428" lon="2.65045">
        <ele>131</ele>
        <time>2020-09-24T13:17:55Z</time>
      </trkpt>
      <trkpt lat="48.37431" lon="2.65039">
        <ele>131.19999694824</ele>
        <time>2020-09-24T13:18:00Z</time>
      </trkpt>
      <trkpt lat="48.37433" lon="2.65032">
        <ele>131.39999389648</ele>
        <time>2020-09-24T13:18:05Z</time>
      </trkpt>
      <trkpt lat="48.37436" lon="2.65024">
        <ele>131.60000610352</ele>
        <time>2020-09-24T13:18:10Z</time>
      </trkpt>
      <trkpt lat="48.37438" lon="2.65015">
        <ele>131.80000305176</ele>
        <time>2020-09-24T13:18:15Z</time>
      </trkpt>
      <trkpt lat="48.37441" lon="2.65007">
        <ele>132.19999694824</ele>
        <time>2020-09-24T13:18:20Z</time>
      </trkpt>
      <trkpt lat="48.37444" lon="2.65">
        <ele>132.19999694824</ele>
        <time>2020-09-24T13:18:25Z</time>
      </trkpt>
      <trkpt lat="48.37446" lon="2.64995">
        <ele>132.19999694824</ele>
        <time>2020-09-24T13:18:30Z</time>
      </trkpt>
      <trkpt lat="48.37448" lon="2.64989">
        <ele>132</ele>
        <time>2020-09-24T13:18:35Z</time>
      </trkpt>
      <trkpt lat="48.3745" lon="2.64982">
        <ele>132</ele>
        <time>2020-09-24T13:18:40Z</time>
      </trkpt>
      <trkpt lat="48.37452" lon="2.64974">
        <ele>132.39999389648</ele>
        <time>2020-09-24T13:18:45Z</time>
      </trkpt>
      <trkpt lat="48.37454" lon="2.64966">
        <ele>132.60000610352</ele>
        <time>2020-09-24T13:18:50Z</time>
      </trkpt>
      <trkpt lat="48.37456" lon="2.64956">
        <ele>133.60000610352</ele>
        <time>2020-09-24T13:18:55Z</time>
      </trkpt>
      <trkpt lat="48.37458" lon="2.64946">
        <ele>133.80000305176</ele>
        <time>2020-09-24T13:19:00Z</time>
      </trkpt>
      <trkpt lat="48.3746" lon="2.64937">
        <ele>133.39999389648</ele>
        <time>2020-09-24T13:19:05Z</time>
      </trkpt>
      <trkpt lat="48.37464" lon="2.64929">
        <ele>133.39999389648</ele>
        <time>2020-09-24T13:19:10Z</time>
      </trkpt>
      <trkpt lat="48.37466" lon="2.64923">
        <ele>133.39999389648</ele>
        <time>2020-09-24T13:19:15Z</time>
      </trkpt>
      <trkpt lat="48.37469" lon="2.64916">
        <ele>133.39999389648</ele>
        <time>2020-09-24T13:19:20Z</time>
      </trkpt>
      <trkpt lat="48.37471" lon="2.64909">
        <ele>133.60000610352</ele>
        <time>2020-09-24T13:19:25Z</time>
      </trkpt>
      <trkpt lat="48.37473" lon="2.64902">
        <ele>133.80000305176</ele>
        <time>2020-09-24T13:19:30Z</time>
      </trkpt>
      <trkpt lat="48.37477" lon="2.64894">
        <ele>134.19999694824</ele>
        <time>2020-09-24T13:19:35Z</time>
      </trkpt>
      <trkpt lat="48.37479" lon="2.64888">
        <ele>133.80000305176</ele>
        <time>2020-09-24T13:19:40Z</time>
      </trkpt>
      <trkpt lat="48.37482" lon="2.64881">
        <ele>133.80000305176</ele>
        <time>2020-09-24T13:19:45Z</time>
      </trkpt>
      <trkpt lat="48.37487" lon="2.6488">
        <ele>134.39999389648</ele>
        <time>2020-09-24T13:19:50Z</time>
      </trkpt>
      <trkpt lat="48.37493" lon="2.64884">
        <ele>134.60000610352</ele>
        <time>2020-09-24T13:19:55Z</time>
      </trkpt>
      <trkpt lat="48.37497" lon="2.6489">
        <ele>135</ele>
        <time>2020-09-24T13:20:00Z</time>
      </trkpt>
      <trkpt lat="48.37501" lon="2.64897">
        <ele>135</ele>
        <time>2020-09-24T13:20:05Z</time>
      </trkpt>
      <trkpt lat="48.37502" lon="2.64904">
        <ele>134.80000305176</ele>
        <time>2020-09-24T13:20:10Z</time>
      </trkpt>
      <trkpt lat="48.37505" lon="2.6491">
        <ele>134.80000305176</ele>
        <time>2020-09-24T13:20:15Z</time>
      </trkpt>
      <trkpt lat="48.37509" lon="2.64917">
        <ele>134.60000610352</ele>
        <time>2020-09-24T13:20:20Z</time>
      </trkpt>
      <trkpt lat="48.37512" lon="2.64923">
        <ele>134.60000610352</ele>
        <time>2020-09-24T13:20:25Z</time>
      </trkpt>
      <trkpt lat="48.37515" lon="2.64929">
        <ele>134.60000610352</ele>
        <time>2020-09-24T13:20:30Z</time>
      </trkpt>
      <trkpt lat="48.37518" lon="2.64935">
        <ele>134.60000610352</ele>
        <time>2020-09-24T13:20:35Z</time>
      </trkpt>
      <trkpt lat="48.37522" lon="2.64943">
        <ele>134.39999389648</ele>
        <time>2020-09-24T13:20:40Z</time>
      </trkpt>
      <trkpt lat="48.37525" lon="2.64948">
        <ele>134.39999389648</ele>
        <time>2020-09-24T13:20:45Z</time>
      </trkpt>
      <trkpt lat="48.37529" lon="2.64956">
        <ele>134.39999389648</ele>
        <time>2020-09-24T13:20:50Z</time>
      </trkpt>
      <trkpt lat="48.37531" lon="2.64963">
        <ele>134.39999389648</ele>
        <time>2020-09-24T13:20:55Z</time>
      </trkpt>
      <trkpt lat="48.37533" lon="2.64969">
        <ele>134.39999389648</ele>
        <time>2020-09-24T13:21:00Z</time>
      </trkpt>
      <trkpt lat="48.37536" lon="2.64976">
        <ele>134.60000610352</ele>
        <time>2020-09-24T13:21:05Z</time>
      </trkpt>
      <trkpt lat="48.37538" lon="2.64983">
        <ele>134.80000305176</ele>
        <time>2020-09-24T13:21:10Z</time>
      </trkpt>
      <trkpt lat="48.37542" lon="2.6499">
        <ele>134.80000305176</ele>
        <time>2020-09-24T13:21:15Z</time>
      </trkpt>
      <trkpt lat="48.37545" lon="2.64997">
        <ele>134.80000305176</ele>
        <time>2020-09-24T13:21:20Z</time>
      </trkpt>
      <trkpt lat="48.37548" lon="2.65005">
        <ele>135</ele>
        <time>2020-09-24T13:21:25Z</time>
      </trkpt>
      <trkpt lat="48.3755" lon="2.65013">
        <ele>135.19999694824</ele>
        <time>2020-09-24T13:21:30Z</time>
      </trkpt>
      <trkpt lat="48.37553" lon="2.65019">
        <ele>135.39999389648</ele>
        <time>2020-09-24T13:21:35Z</time>
      </trkpt>
      <trkpt lat="48.37557" lon="2.65025">
        <ele>135.60000610352</ele>
        <time>2020-09-24T13:21:40Z</time>
      </trkpt>
      <trkpt lat="48.37558" lon="2.65032">
        <ele>135.80000305176</ele>
        <time>2020-09-24T13:21:45Z</time>
      </trkpt>
      <trkpt lat="48.37561" lon="2.65037">
        <ele>135.39999389648</ele>
        <time>2020-09-24T13:21:50Z</time>
      </trkpt>
      <trkpt lat="48.37562" lon="2.65042">
        <ele>135.19999694824</ele>
        <time>2020-09-24T13:21:55Z</time>
      </trkpt>
      <trkpt lat="48.37564" lon="2.65049">
        <ele>135</ele>
        <time>2020-09-24T13:22:00Z</time>
      </trkpt>
      <trkpt lat="48.37569" lon="2.65056">
        <ele>135</ele>
        <time>2020-09-24T13:22:05Z</time>
      </trkpt>
      <trkpt lat="48.37573" lon="2.65063">
        <ele>134.80000305176</ele>
        <time>2020-09-24T13:22:10Z</time>
      </trkpt>
      <trkpt lat="48.37576" lon="2.65069">
        <ele>134.80000305176</ele>
        <time>2020-09-24T13:22:15Z</time>
      </trkpt>
      <trkpt lat="48.37579" lon="2.65076">
        <ele>134.80000305176</ele>
        <time>2020-09-24T13:22:20Z</time>
      </trkpt>
      <trkpt lat="48.37582" lon="2.65081">
        <ele>134.80000305176</ele>
        <time>2020-09-24T13:22:25Z</time>
      </trkpt>
      <trkpt lat="48.37585" lon="2.6509">
        <ele>134.80000305176</ele>
        <time>2020-09-24T13:22:30Z</time>
      </trkpt>
      <trkpt lat="48.37586" lon="2.65097">
        <ele>134.80000305176</ele>
        <time>2020-09-24T13:22:35Z</time>
      </trkpt>
      <trkpt lat="48.37588" lon="2.65104">
        <ele>135.39999389648</ele>
        <time>2020-09-24T13:22:40Z</time>
      </trkpt>
      <trkpt lat="48.37591" lon="2.65113">
        <ele>135.60000610352</ele>
        <time>2020-09-24T13:22:45Z</time>
      </trkpt>
      <trkpt lat="48.37594" lon="2.6512">
        <ele>135.60000610352</ele>
        <time>2020-09-24T13:22:50Z</time>
      </trkpt>
      <trkpt lat="48.37598" lon="2.65127">
        <ele>135.39999389648</ele>
        <time>2020-09-24T13:22:55Z</time>
      </trkpt>
      <trkpt lat="48.37602" lon="2.65134">
        <ele>135.60000610352</ele>
        <time>2020-09-24T13:23:00Z</time>
      </trkpt>
      <trkpt lat="48.37604" lon="2.6514">
        <ele>135.60000610352</ele>
        <time>2020-09-24T13:23:05Z</time>
      </trkpt>
      <trkpt lat="48.37607" lon="2.65148">
        <ele>136</ele>
        <time>2020-09-24T13:23:10Z</time>
      </trkpt>
      <trkpt lat="48.37607" lon="2.65155">
        <ele>135.80000305176</ele>
        <time>2020-09-24T13:23:15Z</time>
      </trkpt>
      <trkpt lat="48.37609" lon="2.65162">
        <ele>135.60000610352</ele>
        <time>2020-09-24T13:23:20Z</time>
      </trkpt>
      <trkpt lat="48.37612" lon="2.65168">
        <ele>135.60000610352</ele>
        <time>2020-09-24T13:23:25Z</time>
      </trkpt>
      <trkpt lat="48.37617" lon="2.65174">
        <ele>135.39999389648</ele>
        <time>2020-09-24T13:23:30Z</time>
      </trkpt>
      <trkpt lat="48.37622" lon="2.65182">
        <ele>134.80000305176</ele>
        <time>2020-09-24T13:23:36Z</time>
      </trkpt>
      <trkpt lat="48.37625" lon="2.65189">
        <ele>134.19999694824</ele>
        <time>2020-09-24T13:23:41Z</time>
      </trkpt>
      <trkpt lat="48.37627" lon="2.65196">
        <ele>133.60000610352</ele>
        <time>2020-09-24T13:23:46Z</time>
      </trkpt>
      <trkpt lat="48.3763" lon="2.65204">
        <ele>133.19999694824</ele>
        <time>2020-09-24T13:23:51Z</time>
      </trkpt>
      <trkpt lat="48.37634" lon="2.65211">
        <ele>132.80000305176</ele>
        <time>2020-09-24T13:23:56Z</time>
      </trkpt>
      <trkpt lat="48.37636" lon="2.65218">
        <ele>132.39999389648</ele>
        <time>2020-09-24T13:24:01Z</time>
      </trkpt>
      <trkpt lat="48.37639" lon="2.65224">
        <ele>132.19999694824</ele>
        <time>2020-09-24T13:24:06Z</time>
      </trkpt>
      <trkpt lat="48.37641" lon="2.6523">
        <ele>132.19999694824</ele>
        <time>2020-09-24T13:24:11Z</time>
      </trkpt>
      <trkpt lat="48.37643" lon="2.65238">
        <ele>132</ele>
        <time>2020-09-24T13:24:16Z</time>
      </trkpt>
      <trkpt lat="48.37645" lon="2.65244">
        <ele>131.39999389648</ele>
        <time>2020-09-24T13:24:21Z</time>
      </trkpt>
      <trkpt lat="48.37648" lon="2.6525">
        <ele>131</ele>
        <time>2020-09-24T13:24:26Z</time>
      </trkpt>
      <trkpt lat="48.37652" lon="2.65256">
        <ele>130.80000305176</ele>
        <time>2020-09-24T13:24:31Z</time>
      </trkpt>
      <trkpt lat="48.37656" lon="2.6526">
        <ele>130.39999389648</ele>
        <time>2020-09-24T13:24:36Z</time>
      </trkpt>
      <trkpt lat="48.37658" lon="2.65265">
        <ele>129.19999694824</ele>
        <time>2020-09-24T13:24:41Z</time>
      </trkpt>
      <trkpt lat="48.37659" lon="2.65272">
        <ele>128</ele>
        <time>2020-09-24T13:24:46Z</time>
      </trkpt>
      <trkpt lat="48.37661" lon="2.65278">
        <ele>126.80000305176</ele>
        <time>2020-09-24T13:24:51Z</time>
      </trkpt>
      <trkpt lat="48.37664" lon="2.65286">
        <ele>126.19999694824</ele>
        <time>2020-09-24T13:24:56Z</time>
      </trkpt>
      <trkpt lat="48.37668" lon="2.65293">
        <ele>125.59999847412</ele>
        <time>2020-09-24T13:25:01Z</time>
      </trkpt>
      <trkpt lat="48.37672" lon="2.653">
        <ele>125</ele>
        <time>2020-09-24T13:25:06Z</time>
      </trkpt>
      <trkpt lat="48.37674" lon="2.65307">
        <ele>124.80000305176</ele>
        <time>2020-09-24T13:25:11Z</time>
      </trkpt>
      <trkpt lat="48.37677" lon="2.65314">
        <ele>124.19999694824</ele>
        <time>2020-09-24T13:25:16Z</time>
      </trkpt>
      <trkpt lat="48.37681" lon="2.65321">
        <ele>123.80000305176</ele>
        <time>2020-09-24T13:25:21Z</time>
      </trkpt>
      <trkpt lat="48.37685" lon="2.65328">
        <ele>123.59999847412</ele>
        <time>2020-09-24T13:25:26Z</time>
      </trkpt>
      <trkpt lat="48.37688" lon="2.65335">
        <ele>123</ele>
        <time>2020-09-24T13:25:31Z</time>
      </trkpt>
      <trkpt lat="48.37691" lon="2.65342">
        <ele>122.59999847412</ele>
        <time>2020-09-24T13:25:36Z</time>
      </trkpt>
      <trkpt lat="48.37693" lon="2.65346">
        <ele>122</ele>
        <time>2020-09-24T13:25:41Z</time>
      </trkpt>
      <trkpt lat="48.37696" lon="2.6535">
        <ele>121.80000305176</ele>
        <time>2020-09-24T13:25:46Z</time>
      </trkpt>
      <trkpt lat="48.37698" lon="2.65356">
        <ele>121</ele>
        <time>2020-09-24T13:25:51Z</time>
      </trkpt>
      <trkpt lat="48.37699" lon="2.65362">
        <ele>120.40000152588</ele>
        <time>2020-09-24T13:25:56Z</time>
      </trkpt>
      <trkpt lat="48.37702" lon="2.65368">
        <ele>120.19999694824</ele>
        <time>2020-09-24T13:26:01Z</time>
      </trkpt>
      <trkpt lat="48.37704" lon="2.65376">
        <ele>119.19999694824</ele>
        <time>2020-09-24T13:26:06Z</time>
      </trkpt>
      <trkpt lat="48.37706" lon="2.65382">
        <ele>118.80000305176</ele>
        <time>2020-09-24T13:26:11Z</time>
      </trkpt>
      <trkpt lat="48.3771" lon="2.65389">
        <ele>118.19999694824</ele>
        <time>2020-09-24T13:26:16Z</time>
      </trkpt>
      <trkpt lat="48.37712" lon="2.65397">
        <ele>117.80000305176</ele>
        <time>2020-09-24T13:26:21Z</time>
      </trkpt>
      <trkpt lat="48.37713" lon="2.65408">
        <ele>117.59999847412</ele>
        <time>2020-09-24T13:26:26Z</time>
      </trkpt>
      <trkpt lat="48.37715" lon="2.65416">
        <ele>117</ele>
        <time>2020-09-24T13:26:31Z</time>
      </trkpt>
      <trkpt lat="48.37718" lon="2.65424">
        <ele>116.40000152588</ele>
        <time>2020-09-24T13:26:36Z</time>
      </trkpt>
      <trkpt lat="48.37718" lon="2.65432">
        <ele>116</ele>
        <time>2020-09-24T13:26:41Z</time>
      </trkpt>
      <trkpt lat="48.37719" lon="2.6544">
        <ele>115.59999847412</ele>
        <time>2020-09-24T13:26:46Z</time>
      </trkpt>
      <trkpt lat="48.3772" lon="2.65446">
        <ele>115.19999694824</ele>
        <time>2020-09-24T13:26:51Z</time>
      </trkpt>
      <trkpt lat="48.37722" lon="2.65452">
        <ele>114.80000305176</ele>
        <time>2020-09-24T13:26:56Z</time>
      </trkpt>
      <trkpt lat="48.37725" lon="2.65457">
        <ele>114.59999847412</ele>
        <time>2020-09-24T13:27:01Z</time>
      </trkpt>
      <trkpt lat="48.37727" lon="2.65463">
        <ele>114.19999694824</ele>
        <time>2020-09-24T13:27:06Z</time>
      </trkpt>
      <trkpt lat="48.37731" lon="2.65469">
        <ele>113.80000305176</ele>
        <time>2020-09-24T13:27:11Z</time>
      </trkpt>
      <trkpt lat="48.37733" lon="2.65477">
        <ele>113.59999847412</ele>
        <time>2020-09-24T13:27:16Z</time>
      </trkpt>
      <trkpt lat="48.37739" lon="2.65485">
        <ele>113.19999694824</ele>
        <time>2020-09-24T13:27:21Z</time>
      </trkpt>
      <trkpt lat="48.37743" lon="2.65492">
        <ele>112.59999847412</ele>
        <time>2020-09-24T13:27:26Z</time>
      </trkpt>
      <trkpt lat="48.37746" lon="2.65499">
        <ele>112</ele>
        <time>2020-09-24T13:27:31Z</time>
      </trkpt>
      <trkpt lat="48.37749" lon="2.65507">
        <ele>111.19999694824</ele>
        <time>2020-09-24T13:27:36Z</time>
      </trkpt>
      <trkpt lat="48.3775" lon="2.65514">
        <ele>111.19999694824</ele>
        <time>2020-09-24T13:27:41Z</time>
      </trkpt>
      <trkpt lat="48.37751" lon="2.65521">
        <ele>110.80000305176</ele>
        <time>2020-09-24T13:27:46Z</time>
      </trkpt>
      <trkpt lat="48.37754" lon="2.65529">
        <ele>110.40000152588</ele>
        <time>2020-09-24T13:27:51Z</time>
      </trkpt>
      <trkpt lat="48.37755" lon="2.65537">
        <ele>110</ele>
        <time>2020-09-24T13:27:56Z</time>
      </trkpt>
      <trkpt lat="48.37755" lon="2.65547">
        <ele>109.40000152588</ele>
        <time>2020-09-24T13:28:01Z</time>
      </trkpt>
      <trkpt lat="48.37756" lon="2.65556">
        <ele>109</ele>
        <time>2020-09-24T13:28:06Z</time>
      </trkpt>
      <trkpt lat="48.37757" lon="2.65565">
        <ele>108.59999847412</ele>
        <time>2020-09-24T13:28:11Z</time>
      </trkpt>
      <trkpt lat="48.37756" lon="2.65575">
        <ele>108.19999694824</ele>
        <time>2020-09-24T13:28:16Z</time>
      </trkpt>
      <trkpt lat="48.37757" lon="2.65582">
        <ele>107.80000305176</ele>
        <time>2020-09-24T13:28:21Z</time>
      </trkpt>
      <trkpt lat="48.37756" lon="2.65591">
        <ele>107.40000152588</ele>
        <time>2020-09-24T13:28:26Z</time>
      </trkpt>
      <trkpt lat="48.37756" lon="2.656">
        <ele>107.19999694824</ele>
        <time>2020-09-24T13:28:31Z</time>
      </trkpt>
      <trkpt lat="48.3776" lon="2.65602">
        <ele>107</ele>
        <time>2020-09-24T13:28:46Z</time>
      </trkpt>
      <trkpt lat="48.37761" lon="2.65601">
        <ele>107</ele>
        <time>2020-09-24T13:28:51Z</time>
      </trkpt>
      <trkpt lat="48.37761" lon="2.65603">
        <ele>106.80000305176</ele>
        <time>2020-09-24T13:29:06Z</time>
      </trkpt>
      <trkpt lat="48.37762" lon="2.65604">
        <ele>106.80000305176</ele>
        <time>2020-09-24T13:29:11Z</time>
      </trkpt>
      <trkpt lat="48.37763" lon="2.65605">
        <ele>106.80000305176</ele>
        <time>2020-09-24T13:29:16Z</time>
      </trkpt>
      <trkpt lat="48.37763" lon="2.65605">
        <ele>107</ele>
        <time>2020-09-24T13:29:21Z</time>
      </trkpt>
      <trkpt lat="48.37763" lon="2.65605">
        <ele>107</ele>
        <time>2020-09-24T13:29:26Z</time>
      </trkpt>
      <trkpt lat="48.37763" lon="2.65605">
        <ele>107.19999694824</ele>
        <time>2020-09-24T13:29:36Z</time>
      </trkpt>
      <trkpt lat="48.37763" lon="2.65606">
        <ele>107.19999694824</ele>
        <time>2020-09-24T13:29:41Z</time>
      </trkpt>
      <trkpt lat="48.37763" lon="2.65606">
        <ele>107.19999694824</ele>
        <time>2020-09-24T13:29:46Z</time>
      </trkpt>
      <trkpt lat="48.37762" lon="2.65606">
        <ele>107.19999694824</ele>
        <time>2020-09-24T13:29:51Z</time>
      </trkpt>
      <trkpt lat="48.37762" lon="2.65605">
        <ele>107.19999694824</ele>
        <time>2020-09-24T13:30:01Z</time>
      </trkpt>
      <trkpt lat="48.37761" lon="2.65605">
        <ele>107.19999694824</ele>
        <time>2020-09-24T13:31:41Z</time>
      </trkpt>
      <trkpt lat="48.37761" lon="2.65604">
        <ele>107.19999694824</ele>
        <time>2020-09-24T13:31:46Z</time>
      </trkpt>
      <trkpt lat="48.37762" lon="2.65604">
        <ele>107.19999694824</ele>
        <time>2020-09-24T13:31:51Z</time>
      </trkpt>
      <trkpt lat="48.37761" lon="2.65605">
        <ele>107.19999694824</ele>
        <time>2020-09-24T13:31:56Z</time>
      </trkpt>
      <trkpt lat="48.37762" lon="2.65605">
        <ele>107.19999694824</ele>
        <time>2020-09-24T13:32:01Z</time>
      </trkpt>
      <trkpt lat="48.37762" lon="2.65605">
        <ele>107.19999694824</ele>
        <time>2020-09-24T13:32:06Z</time>
      </trkpt>
      <trkpt lat="48.37762" lon="2.65604">
        <ele>107.19999694824</ele>
        <time>2020-09-24T13:32:11Z</time>
      </trkpt>
      <trkpt lat="48.37764" lon="2.65604">
        <ele>107.19999694824</ele>
        <time>2020-09-24T13:32:16Z</time>
      </trkpt>
      <trkpt lat="48.37766" lon="2.65608">
        <ele>107.19999694824</ele>
        <time>2020-09-24T13:33:56Z</time>
      </trkpt>
      <trkpt lat="48.37772" lon="2.65606">
        <ele>107.19999694824</ele>
        <time>2020-09-24T13:34:01Z</time>
      </trkpt>
      <trkpt lat="48.37777" lon="2.65607">
        <ele>107.19999694824</ele>
        <time>2020-09-24T13:34:06Z</time>
      </trkpt>
      <trkpt lat="48.37781" lon="2.65607">
        <ele>107.19999694824</ele>
        <time>2020-09-24T13:34:11Z</time>
      </trkpt>
      <trkpt lat="48.37785" lon="2.65607">
        <ele>107.19999694824</ele>
        <time>2020-09-24T13:34:16Z</time>
      </trkpt>
      <trkpt lat="48.37791" lon="2.65607">
        <ele>107.19999694824</ele>
        <time>2020-09-24T13:34:21Z</time>
      </trkpt>
      <trkpt lat="48.37796" lon="2.65607">
        <ele>107.19999694824</ele>
        <time>2020-09-24T13:34:26Z</time>
      </trkpt>
      <trkpt lat="48.37802" lon="2.65607">
        <ele>107.19999694824</ele>
        <time>2020-09-24T13:34:31Z</time>
      </trkpt>
      <trkpt lat="48.37807" lon="2.65609">
        <ele>107.19999694824</ele>
        <time>2020-09-24T13:34:36Z</time>
      </trkpt>
      <trkpt lat="48.37812" lon="2.65611">
        <ele>107.19999694824</ele>
        <time>2020-09-24T13:34:41Z</time>
      </trkpt>
      <trkpt lat="48.37816" lon="2.65613">
        <ele>107.19999694824</ele>
        <time>2020-09-24T13:34:46Z</time>
      </trkpt>
      <trkpt lat="48.37822" lon="2.65614">
        <ele>107.19999694824</ele>
        <time>2020-09-24T13:34:51Z</time>
      </trkpt>
      <trkpt lat="48.37827" lon="2.65616">
        <ele>107.19999694824</ele>
        <time>2020-09-24T13:34:56Z</time>
      </trkpt>
      <trkpt lat="48.37831" lon="2.65618">
        <ele>107.19999694824</ele>
        <time>2020-09-24T13:35:01Z</time>
      </trkpt>
      <trkpt lat="48.37835" lon="2.65618">
        <ele>107.19999694824</ele>
        <time>2020-09-24T13:35:06Z</time>
      </trkpt>
      <trkpt lat="48.37842" lon="2.65619">
        <ele>107.19999694824</ele>
        <time>2020-09-24T13:35:11Z</time>
      </trkpt>
      <trkpt lat="48.37847" lon="2.65621">
        <ele>107.19999694824</ele>
        <time>2020-09-24T13:35:16Z</time>
      </trkpt>
      <trkpt lat="48.37851" lon="2.65625">
        <ele>107.19999694824</ele>
        <time>2020-09-24T13:35:21Z</time>
      </trkpt>
      <trkpt lat="48.37857" lon="2.65628">
        <ele>107</ele>
        <time>2020-09-24T13:35:26Z</time>
      </trkpt>
      <trkpt lat="48.37861" lon="2.65627">
        <ele>106.80000305176</ele>
        <time>2020-09-24T13:35:31Z</time>
      </trkpt>
      <trkpt lat="48.37865" lon="2.65627">
        <ele>106.80000305176</ele>
        <time>2020-09-24T13:35:36Z</time>
      </trkpt>
      <trkpt lat="48.37869" lon="2.65627">
        <ele>106.59999847412</ele>
        <time>2020-09-24T13:35:41Z</time>
      </trkpt>
      <trkpt lat="48.37873" lon="2.65629">
        <ele>106.59999847412</ele>
        <time>2020-09-24T13:35:46Z</time>
      </trkpt>
      <trkpt lat="48.37881" lon="2.65632">
        <ele>106.59999847412</ele>
        <time>2020-09-24T13:35:51Z</time>
      </trkpt>
      <trkpt lat="48.37887" lon="2.65635">
        <ele>106.40000152588</ele>
        <time>2020-09-24T13:35:56Z</time>
      </trkpt>
      <trkpt lat="48.37894" lon="2.65639">
        <ele>106.40000152588</ele>
        <time>2020-09-24T13:36:01Z</time>
      </trkpt>
      <trkpt lat="48.37899" lon="2.65647">
        <ele>106.40000152588</ele>
        <time>2020-09-24T13:36:06Z</time>
      </trkpt>
      <trkpt lat="48.37901" lon="2.65657">
        <ele>106.40000152588</ele>
        <time>2020-09-24T13:36:11Z</time>
      </trkpt>
      <trkpt lat="48.37905" lon="2.65665">
        <ele>106.40000152588</ele>
        <time>2020-09-24T13:36:16Z</time>
      </trkpt>
      <trkpt lat="48.37908" lon="2.65672">
        <ele>106.19999694824</ele>
        <time>2020-09-24T13:36:21Z</time>
      </trkpt>
      <trkpt lat="48.37909" lon="2.6568">
        <ele>106.19999694824</ele>
        <time>2020-09-24T13:36:26Z</time>
      </trkpt>
      <trkpt lat="48.37912" lon="2.6569">
        <ele>106.19999694824</ele>
        <time>2020-09-24T13:36:31Z</time>
      </trkpt>
      <trkpt lat="48.37915" lon="2.65698">
        <ele>106</ele>
        <time>2020-09-24T13:36:36Z</time>
      </trkpt>
      <trkpt lat="48.37917" lon="2.65705">
        <ele>105.80000305176</ele>
        <time>2020-09-24T13:36:41Z</time>
      </trkpt>
      <trkpt lat="48.3792" lon="2.65708">
        <ele>105.80000305176</ele>
        <time>2020-09-24T13:36:46Z</time>
      </trkpt>
      <trkpt lat="48.37922" lon="2.65714">
        <ele>105.80000305176</ele>
        <time>2020-09-24T13:36:51Z</time>
      </trkpt>
      <trkpt lat="48.37925" lon="2.65722">
        <ele>105.80000305176</ele>
        <time>2020-09-24T13:36:56Z</time>
      </trkpt>
      <trkpt lat="48.37928" lon="2.65729">
        <ele>105.80000305176</ele>
        <time>2020-09-24T13:37:01Z</time>
      </trkpt>
      <trkpt lat="48.37931" lon="2.65737">
        <ele>105.40000152588</ele>
        <time>2020-09-24T13:37:06Z</time>
      </trkpt>
      <trkpt lat="48.37935" lon="2.65744">
        <ele>105.40000152588</ele>
        <time>2020-09-24T13:37:11Z</time>
      </trkpt>
      <trkpt lat="48.37936" lon="2.65752">
        <ele>105.40000152588</ele>
        <time>2020-09-24T13:37:16Z</time>
      </trkpt>
      <trkpt lat="48.37939" lon="2.65759">
        <ele>105.40000152588</ele>
        <time>2020-09-24T13:37:21Z</time>
      </trkpt>
      <trkpt lat="48.3794" lon="2.65764">
        <ele>105.40000152588</ele>
        <time>2020-09-24T13:37:26Z</time>
      </trkpt>
      <trkpt lat="48.37943" lon="2.6577">
        <ele>105.19999694824</ele>
        <time>2020-09-24T13:37:31Z</time>
      </trkpt>
      <trkpt lat="48.37948" lon="2.65775">
        <ele>105.19999694824</ele>
        <time>2020-09-24T13:37:36Z</time>
      </trkpt>
      <trkpt lat="48.37952" lon="2.6578">
        <ele>105.40000152588</ele>
        <time>2020-09-24T13:37:41Z</time>
      </trkpt>
      <trkpt lat="48.37958" lon="2.65785">
        <ele>105.19999694824</ele>
        <time>2020-09-24T13:37:46Z</time>
      </trkpt>
      <trkpt lat="48.37962" lon="2.65789">
        <ele>105.19999694824</ele>
        <time>2020-09-24T13:37:51Z</time>
      </trkpt>
      <trkpt lat="48.37966" lon="2.65794">
        <ele>105.19999694824</ele>
        <time>2020-09-24T13:37:56Z</time>
      </trkpt>
      <trkpt lat="48.3797" lon="2.65797">
        <ele>105.19999694824</ele>
        <time>2020-09-24T13:38:01Z</time>
      </trkpt>
      <trkpt lat="48.37974" lon="2.65801">
        <ele>105.40000152588</ele>
        <time>2020-09-24T13:38:06Z</time>
      </trkpt>
      <trkpt lat="48.37981" lon="2.65806">
        <ele>105.19999694824</ele>
        <time>2020-09-24T13:38:11Z</time>
      </trkpt>
      <trkpt lat="48.37986" lon="2.65809">
        <ele>105.19999694824</ele>
        <time>2020-09-24T13:38:16Z</time>
      </trkpt>
      <trkpt lat="48.37991" lon="2.65813">
        <ele>105</ele>
        <time>2020-09-24T13:38:21Z</time>
      </trkpt>
      <trkpt lat="48.37997" lon="2.65818">
        <ele>105</ele>
        <time>2020-09-24T13:38:26Z</time>
      </trkpt>
      <trkpt lat="48.38" lon="2.65822">
        <ele>105</ele>
        <time>2020-09-24T13:38:31Z</time>
      </trkpt>
      <trkpt lat="48.38004" lon="2.65825">
        <ele>104.80000305176</ele>
        <time>2020-09-24T13:38:36Z</time>
      </trkpt>
      <trkpt lat="48.38009" lon="2.65829">
        <ele>104.80000305176</ele>
        <time>2020-09-24T13:38:41Z</time>
      </trkpt>
      <trkpt lat="48.38012" lon="2.65832">
        <ele>104.59999847412</ele>
        <time>2020-09-24T13:38:46Z</time>
      </trkpt>
      <trkpt lat="48.38016" lon="2.65837">
        <ele>104.19999694824</ele>
        <time>2020-09-24T13:38:51Z</time>
      </trkpt>
      <trkpt lat="48.3802" lon="2.65841">
        <ele>104</ele>
        <time>2020-09-24T13:38:56Z</time>
      </trkpt>
      <trkpt lat="48.38023" lon="2.65845">
        <ele>103.59999847412</ele>
        <time>2020-09-24T13:39:01Z</time>
      </trkpt>
      <trkpt lat="48.38027" lon="2.65851">
        <ele>103</ele>
        <time>2020-09-24T13:39:06Z</time>
      </trkpt>
      <trkpt lat="48.38032" lon="2.65855">
        <ele>102.80000305176</ele>
        <time>2020-09-24T13:39:11Z</time>
      </trkpt>
      <trkpt lat="48.38038" lon="2.65858">
        <ele>102.19999694824</ele>
        <time>2020-09-24T13:39:16Z</time>
      </trkpt>
      <trkpt lat="48.38042" lon="2.65859">
        <ele>102</ele>
        <time>2020-09-24T13:39:21Z</time>
      </trkpt>
      <trkpt lat="48.38047" lon="2.65859">
        <ele>101.40000152588</ele>
        <time>2020-09-24T13:39:26Z</time>
      </trkpt>
      <trkpt lat="48.38052" lon="2.65858">
        <ele>101</ele>
        <time>2020-09-24T13:39:31Z</time>
      </trkpt>
      <trkpt lat="48.38059" lon="2.65857">
        <ele>100.59999847412</ele>
        <time>2020-09-24T13:39:36Z</time>
      </trkpt>
      <trkpt lat="48.38064" lon="2.65858">
        <ele>100</ele>
        <time>2020-09-24T13:39:41Z</time>
      </trkpt>
      <trkpt lat="48.3807" lon="2.65857">
        <ele>99.800003051758</ele>
        <time>2020-09-24T13:39:46Z</time>
      </trkpt>
      <trkpt lat="48.38078" lon="2.65856">
        <ele>99.400001525879</ele>
        <time>2020-09-24T13:39:51Z</time>
      </trkpt>
      <trkpt lat="48.38083" lon="2.65858">
        <ele>99.199996948242</ele>
        <time>2020-09-24T13:39:56Z</time>
      </trkpt>
      <trkpt lat="48.38091" lon="2.65861">
        <ele>99</ele>
        <time>2020-09-24T13:40:01Z</time>
      </trkpt>
      <trkpt lat="48.38096" lon="2.65863">
        <ele>98.800003051758</ele>
        <time>2020-09-24T13:40:06Z</time>
      </trkpt>
      <trkpt lat="48.381" lon="2.65865">
        <ele>98.599998474121</ele>
        <time>2020-09-24T13:40:11Z</time>
      </trkpt>
      <trkpt lat="48.38104" lon="2.65869">
        <ele>98.400001525879</ele>
        <time>2020-09-24T13:40:16Z</time>
      </trkpt>
      <trkpt lat="48.3811" lon="2.65872">
        <ele>98.400001525879</ele>
        <time>2020-09-24T13:40:21Z</time>
      </trkpt>
      <trkpt lat="48.38117" lon="2.65874">
        <ele>98.400001525879</ele>
        <time>2020-09-24T13:40:26Z</time>
      </trkpt>
      <trkpt lat="48.38124" lon="2.65875">
        <ele>98.400001525879</ele>
        <time>2020-09-24T13:40:31Z</time>
      </trkpt>
      <trkpt lat="48.38131" lon="2.65877">
        <ele>98.400001525879</ele>
        <time>2020-09-24T13:40:36Z</time>
      </trkpt>
      <trkpt lat="48.38137" lon="2.6588">
        <ele>98.199996948242</ele>
        <time>2020-09-24T13:40:41Z</time>
      </trkpt>
      <trkpt lat="48.38142" lon="2.65883">
        <ele>98</ele>
        <time>2020-09-24T13:40:46Z</time>
      </trkpt>
      <trkpt lat="48.38147" lon="2.65888">
        <ele>97.800003051758</ele>
        <time>2020-09-24T13:40:51Z</time>
      </trkpt>
      <trkpt lat="48.38152" lon="2.65892">
        <ele>97.800003051758</ele>
        <time>2020-09-24T13:40:56Z</time>
      </trkpt>
      <trkpt lat="48.38156" lon="2.65898">
        <ele>97.800003051758</ele>
        <time>2020-09-24T13:41:01Z</time>
      </trkpt>
      <trkpt lat="48.38157" lon="2.65904">
        <ele>97.800003051758</ele>
        <time>2020-09-24T13:41:06Z</time>
      </trkpt>
      <trkpt lat="48.38157" lon="2.65913">
        <ele>97.800003051758</ele>
        <time>2020-09-24T13:41:11Z</time>
      </trkpt>
      <trkpt lat="48.38158" lon="2.65922">
        <ele>97.800003051758</ele>
        <time>2020-09-24T13:41:16Z</time>
      </trkpt>
      <trkpt lat="48.38158" lon="2.65931">
        <ele>97.800003051758</ele>
        <time>2020-09-24T13:41:21Z</time>
      </trkpt>
      <trkpt lat="48.38158" lon="2.65941">
        <ele>97.800003051758</ele>
        <time>2020-09-24T13:41:26Z</time>
      </trkpt>
      <trkpt lat="48.38159" lon="2.65948">
        <ele>98</ele>
        <time>2020-09-24T13:41:31Z</time>
      </trkpt>
      <trkpt lat="48.3816" lon="2.65957">
        <ele>98</ele>
        <time>2020-09-24T13:41:36Z</time>
      </trkpt>
      <trkpt lat="48.38161" lon="2.65965">
        <ele>97.800003051758</ele>
        <time>2020-09-24T13:41:41Z</time>
      </trkpt>
      <trkpt lat="48.38161" lon="2.65973">
        <ele>97.800003051758</ele>
        <time>2020-09-24T13:41:46Z</time>
      </trkpt>
      <trkpt lat="48.38161" lon="2.65981">
        <ele>97.800003051758</ele>
        <time>2020-09-24T13:41:51Z</time>
      </trkpt>
      <trkpt lat="48.38163" lon="2.6599">
        <ele>98</ele>
        <time>2020-09-24T13:41:56Z</time>
      </trkpt>
      <trkpt lat="48.38162" lon="2.65997">
        <ele>98</ele>
        <time>2020-09-24T13:42:01Z</time>
      </trkpt>
      <trkpt lat="48.38163" lon="2.66006">
        <ele>98</ele>
        <time>2020-09-24T13:42:06Z</time>
      </trkpt>
      <trkpt lat="48.38163" lon="2.66015">
        <ele>98</ele>
        <time>2020-09-24T13:42:11Z</time>
      </trkpt>
      <trkpt lat="48.38163" lon="2.66023">
        <ele>98.199996948242</ele>
        <time>2020-09-24T13:42:16Z</time>
      </trkpt>
      <trkpt lat="48.38162" lon="2.66031">
        <ele>98.400001525879</ele>
        <time>2020-09-24T13:42:21Z</time>
      </trkpt>
      <trkpt lat="48.38161" lon="2.6604">
        <ele>98.400001525879</ele>
        <time>2020-09-24T13:42:26Z</time>
      </trkpt>
      <trkpt lat="48.3816" lon="2.66048">
        <ele>98.599998474121</ele>
        <time>2020-09-24T13:42:31Z</time>
      </trkpt>
      <trkpt lat="48.38159" lon="2.66055">
        <ele>98.599998474121</ele>
        <time>2020-09-24T13:42:36Z</time>
      </trkpt>
      <trkpt lat="48.38158" lon="2.66063">
        <ele>98.599998474121</ele>
        <time>2020-09-24T13:42:41Z</time>
      </trkpt>
      <trkpt lat="48.38157" lon="2.66071">
        <ele>98.800003051758</ele>
        <time>2020-09-24T13:42:46Z</time>
      </trkpt>
      <trkpt lat="48.38157" lon="2.66079">
        <ele>98.599998474121</ele>
        <time>2020-09-24T13:42:51Z</time>
      </trkpt>
      <trkpt lat="48.38157" lon="2.66087">
        <ele>98.599998474121</ele>
        <time>2020-09-24T13:42:56Z</time>
      </trkpt>
      <trkpt lat="48.38157" lon="2.66097">
        <ele>98.599998474121</ele>
        <time>2020-09-24T13:43:01Z</time>
      </trkpt>
      <trkpt lat="48.38156" lon="2.66106">
        <ele>98.599998474121</ele>
        <time>2020-09-24T13:43:06Z</time>
      </trkpt>
      <trkpt lat="48.38155" lon="2.66116">
        <ele>98.599998474121</ele>
        <time>2020-09-24T13:43:11Z</time>
      </trkpt>
      <trkpt lat="48.38155" lon="2.66124">
        <ele>98.800003051758</ele>
        <time>2020-09-24T13:43:16Z</time>
      </trkpt>
      <trkpt lat="48.38154" lon="2.66133">
        <ele>98.800003051758</ele>
        <time>2020-09-24T13:43:21Z</time>
      </trkpt>
      <trkpt lat="48.38155" lon="2.66142">
        <ele>98.800003051758</ele>
        <time>2020-09-24T13:43:26Z</time>
      </trkpt>
      <trkpt lat="48.38153" lon="2.66151">
        <ele>99</ele>
        <time>2020-09-24T13:43:31Z</time>
      </trkpt>
      <trkpt lat="48.38152" lon="2.66159">
        <ele>99</ele>
        <time>2020-09-24T13:43:36Z</time>
      </trkpt>
      <trkpt lat="48.38153" lon="2.66164">
        <ele>99.199996948242</ele>
        <time>2020-09-24T13:43:41Z</time>
      </trkpt>
      <trkpt lat="48.38153" lon="2.66171">
        <ele>99.400001525879</ele>
        <time>2020-09-24T13:43:46Z</time>
      </trkpt>
      <trkpt lat="48.38152" lon="2.66179">
        <ele>99.400001525879</ele>
        <time>2020-09-24T13:43:51Z</time>
      </trkpt>
      <trkpt lat="48.38151" lon="2.6619">
        <ele>99.400001525879</ele>
        <time>2020-09-24T13:43:56Z</time>
      </trkpt>
      <trkpt lat="48.38149" lon="2.66199">
        <ele>99.599998474121</ele>
        <time>2020-09-24T13:44:01Z</time>
      </trkpt>
      <trkpt lat="48.38148" lon="2.66209">
        <ele>99.800003051758</ele>
        <time>2020-09-24T13:44:06Z</time>
      </trkpt>
      <trkpt lat="48.38146" lon="2.66216">
        <ele>100</ele>
        <time>2020-09-24T13:44:11Z</time>
      </trkpt>
      <trkpt lat="48.38147" lon="2.66225">
        <ele>100</ele>
        <time>2020-09-24T13:44:16Z</time>
      </trkpt>
      <trkpt lat="48.38145" lon="2.66232">
        <ele>100.19999694824</ele>
        <time>2020-09-24T13:44:21Z</time>
      </trkpt>
      <trkpt lat="48.38144" lon="2.6624">
        <ele>100.19999694824</ele>
        <time>2020-09-24T13:44:26Z</time>
      </trkpt>
      <trkpt lat="48.38141" lon="2.66247">
        <ele>100</ele>
        <time>2020-09-24T13:44:31Z</time>
      </trkpt>
      <trkpt lat="48.3814" lon="2.66256">
        <ele>100</ele>
        <time>2020-09-24T13:44:36Z</time>
      </trkpt>
      <trkpt lat="48.38139" lon="2.66266">
        <ele>99.599998474121</ele>
        <time>2020-09-24T13:44:41Z</time>
      </trkpt>
      <trkpt lat="48.38137" lon="2.66274">
        <ele>99.400001525879</ele>
        <time>2020-09-24T13:44:46Z</time>
      </trkpt>
      <trkpt lat="48.38135" lon="2.66282">
        <ele>99.400001525879</ele>
        <time>2020-09-24T13:44:51Z</time>
      </trkpt>
      <trkpt lat="48.38136" lon="2.6629">
        <ele>99.199996948242</ele>
        <time>2020-09-24T13:44:56Z</time>
      </trkpt>
      <trkpt lat="48.38134" lon="2.66297">
        <ele>98.800003051758</ele>
        <time>2020-09-24T13:45:01Z</time>
      </trkpt>
      <trkpt lat="48.38132" lon="2.66306">
        <ele>98.800003051758</ele>
        <time>2020-09-24T13:45:06Z</time>
      </trkpt>
      <trkpt lat="48.38132" lon="2.66314">
        <ele>98.800003051758</ele>
        <time>2020-09-24T13:45:11Z</time>
      </trkpt>
      <trkpt lat="48.38129" lon="2.66322">
        <ele>98.800003051758</ele>
        <time>2020-09-24T13:45:16Z</time>
      </trkpt>
      <trkpt lat="48.38129" lon="2.66331">
        <ele>98.800003051758</ele>
        <time>2020-09-24T13:45:21Z</time>
      </trkpt>
      <trkpt lat="48.38128" lon="2.66341">
        <ele>98.800003051758</ele>
        <time>2020-09-24T13:45:26Z</time>
      </trkpt>
      <trkpt lat="48.38128" lon="2.66349">
        <ele>98.800003051758</ele>
        <time>2020-09-24T13:45:31Z</time>
      </trkpt>
      <trkpt lat="48.38128" lon="2.66356">
        <ele>98.800003051758</ele>
        <time>2020-09-24T13:45:36Z</time>
      </trkpt>
      <trkpt lat="48.38128" lon="2.66364">
        <ele>98.800003051758</ele>
        <time>2020-09-24T13:45:41Z</time>
      </trkpt>
      <trkpt lat="48.38126" lon="2.66372">
        <ele>98.599998474121</ele>
        <time>2020-09-24T13:45:46Z</time>
      </trkpt>
      <trkpt lat="48.38127" lon="2.66382">
        <ele>98.599998474121</ele>
        <time>2020-09-24T13:45:51Z</time>
      </trkpt>
      <trkpt lat="48.38128" lon="2.66389">
        <ele>98.599998474121</ele>
        <time>2020-09-24T13:45:56Z</time>
      </trkpt>
      <trkpt lat="48.38126" lon="2.66397">
        <ele>98.400001525879</ele>
        <time>2020-09-24T13:46:01Z</time>
      </trkpt>
      <trkpt lat="48.38126" lon="2.66407">
        <ele>98.400001525879</ele>
        <time>2020-09-24T13:46:06Z</time>
      </trkpt>
      <trkpt lat="48.38123" lon="2.66415">
        <ele>98.199996948242</ele>
        <time>2020-09-24T13:46:11Z</time>
      </trkpt>
      <trkpt lat="48.3812" lon="2.66424">
        <ele>98</ele>
        <time>2020-09-24T13:46:16Z</time>
      </trkpt>
      <trkpt lat="48.38121" lon="2.66432">
        <ele>97.800003051758</ele>
        <time>2020-09-24T13:46:21Z</time>
      </trkpt>
      <trkpt lat="48.3812" lon="2.6644">
        <ele>97.800003051758</ele>
        <time>2020-09-24T13:46:26Z</time>
      </trkpt>
      <trkpt lat="48.38118" lon="2.66448">
        <ele>98</ele>
        <time>2020-09-24T13:46:31Z</time>
      </trkpt>
      <trkpt lat="48.38118" lon="2.66455">
        <ele>98</ele>
        <time>2020-09-24T13:46:36Z</time>
      </trkpt>
      <trkpt lat="48.38117" lon="2.66464">
        <ele>98.199996948242</ele>
        <time>2020-09-24T13:46:41Z</time>
      </trkpt>
      <trkpt lat="48.38116" lon="2.66474">
        <ele>98.199996948242</ele>
        <time>2020-09-24T13:46:46Z</time>
      </trkpt>
      <trkpt lat="48.38115" lon="2.66483">
        <ele>98.400001525879</ele>
        <time>2020-09-24T13:46:51Z</time>
      </trkpt>
      <trkpt lat="48.38114" lon="2.66493">
        <ele>98.599998474121</ele>
        <time>2020-09-24T13:46:56Z</time>
      </trkpt>
      <trkpt lat="48.38113" lon="2.66501">
        <ele>98.599998474121</ele>
        <time>2020-09-24T13:47:01Z</time>
      </trkpt>
      <trkpt lat="48.38114" lon="2.66509">
        <ele>98.599998474121</ele>
        <time>2020-09-24T13:47:06Z</time>
      </trkpt>
      <trkpt lat="48.38112" lon="2.66517">
        <ele>98.599998474121</ele>
        <time>2020-09-24T13:47:11Z</time>
      </trkpt>
      <trkpt lat="48.38112" lon="2.66526">
        <ele>98.199996948242</ele>
        <time>2020-09-24T13:47:16Z</time>
      </trkpt>
      <trkpt lat="48.38111" lon="2.66535">
        <ele>98</ele>
        <time>2020-09-24T13:47:21Z</time>
      </trkpt>
      <trkpt lat="48.38111" lon="2.66543">
        <ele>98</ele>
        <time>2020-09-24T13:47:26Z</time>
      </trkpt>
      <trkpt lat="48.38113" lon="2.66551">
        <ele>98</ele>
        <time>2020-09-24T13:47:31Z</time>
      </trkpt>
      <trkpt lat="48.38112" lon="2.6656">
        <ele>98</ele>
        <time>2020-09-24T13:47:36Z</time>
      </trkpt>
      <trkpt lat="48.38111" lon="2.66569">
        <ele>98</ele>
        <time>2020-09-24T13:47:41Z</time>
      </trkpt>
      <trkpt lat="48.38109" lon="2.66579">
        <ele>98</ele>
        <time>2020-09-24T13:47:46Z</time>
      </trkpt>
      <trkpt lat="48.38107" lon="2.66586">
        <ele>98.199996948242</ele>
        <time>2020-09-24T13:47:51Z</time>
      </trkpt>
      <trkpt lat="48.38106" lon="2.66596">
        <ele>98.199996948242</ele>
        <time>2020-09-24T13:47:56Z</time>
      </trkpt>
      <trkpt lat="48.38105" lon="2.66602">
        <ele>98.400001525879</ele>
        <time>2020-09-24T13:48:01Z</time>
      </trkpt>
      <trkpt lat="48.38105" lon="2.66612">
        <ele>98.599998474121</ele>
        <time>2020-09-24T13:48:06Z</time>
      </trkpt>
      <trkpt lat="48.38104" lon="2.6662">
        <ele>98.599998474121</ele>
        <time>2020-09-24T13:48:11Z</time>
      </trkpt>
      <trkpt lat="48.38104" lon="2.66628">
        <ele>98.800003051758</ele>
        <time>2020-09-24T13:48:16Z</time>
      </trkpt>
      <trkpt lat="48.38104" lon="2.66637">
        <ele>98.800003051758</ele>
        <time>2020-09-24T13:48:21Z</time>
      </trkpt>
      <trkpt lat="48.38106" lon="2.66646">
        <ele>98.599998474121</ele>
        <time>2020-09-24T13:48:26Z</time>
      </trkpt>
      <trkpt lat="48.38104" lon="2.66654">
        <ele>98.599998474121</ele>
        <time>2020-09-24T13:48:31Z</time>
      </trkpt>
      <trkpt lat="48.38104" lon="2.66664">
        <ele>98.800003051758</ele>
        <time>2020-09-24T13:48:36Z</time>
      </trkpt>
      <trkpt lat="48.38101" lon="2.66671">
        <ele>98.599998474121</ele>
        <time>2020-09-24T13:48:41Z</time>
      </trkpt>
      <trkpt lat="48.381" lon="2.66677">
        <ele>98.599998474121</ele>
        <time>2020-09-24T13:48:46Z</time>
      </trkpt>
      <trkpt lat="48.381" lon="2.66688">
        <ele>98.400001525879</ele>
        <time>2020-09-24T13:48:51Z</time>
      </trkpt>
      <trkpt lat="48.381" lon="2.66696">
        <ele>98.400001525879</ele>
        <time>2020-09-24T13:48:56Z</time>
      </trkpt>
      <trkpt lat="48.38097" lon="2.66705">
        <ele>98.599998474121</ele>
        <time>2020-09-24T13:49:01Z</time>
      </trkpt>
      <trkpt lat="48.38096" lon="2.66714">
        <ele>98.599998474121</ele>
        <time>2020-09-24T13:49:06Z</time>
      </trkpt>
      <trkpt lat="48.38094" lon="2.66722">
        <ele>98.599998474121</ele>
        <time>2020-09-24T13:49:11Z</time>
      </trkpt>
      <trkpt lat="48.38094" lon="2.66732">
        <ele>98.599998474121</ele>
        <time>2020-09-24T13:49:16Z</time>
      </trkpt>
      <trkpt lat="48.38092" lon="2.6674">
        <ele>98.800003051758</ele>
        <time>2020-09-24T13:49:21Z</time>
      </trkpt>
      <trkpt lat="48.38092" lon="2.66747">
        <ele>98.800003051758</ele>
        <time>2020-09-24T13:49:26Z</time>
      </trkpt>
      <trkpt lat="48.38091" lon="2.66756">
        <ele>99.199996948242</ele>
        <time>2020-09-24T13:49:31Z</time>
      </trkpt>
      <trkpt lat="48.3809" lon="2.66766">
        <ele>99.400001525879</ele>
        <time>2020-09-24T13:49:36Z</time>
      </trkpt>
      <trkpt lat="48.38091" lon="2.66774">
        <ele>99.400001525879</ele>
        <time>2020-09-24T13:49:41Z</time>
      </trkpt>
      <trkpt lat="48.3809" lon="2.66783">
        <ele>99.400001525879</ele>
        <time>2020-09-24T13:49:46Z</time>
      </trkpt>
      <trkpt lat="48.3809" lon="2.66793">
        <ele>99.199996948242</ele>
        <time>2020-09-24T13:49:51Z</time>
      </trkpt>
      <trkpt lat="48.38088" lon="2.66802">
        <ele>99.199996948242</ele>
        <time>2020-09-24T13:49:56Z</time>
      </trkpt>
      <trkpt lat="48.38088" lon="2.66811">
        <ele>99.199996948242</ele>
        <time>2020-09-24T13:50:01Z</time>
      </trkpt>
      <trkpt lat="48.38086" lon="2.66818">
        <ele>99</ele>
        <time>2020-09-24T13:50:06Z</time>
      </trkpt>
      <trkpt lat="48.38085" lon="2.66827">
        <ele>99</ele>
        <time>2020-09-24T13:50:11Z</time>
      </trkpt>
      <trkpt lat="48.38085" lon="2.66835">
        <ele>99</ele>
        <time>2020-09-24T13:50:16Z</time>
      </trkpt>
      <trkpt lat="48.38086" lon="2.66843">
        <ele>99.199996948242</ele>
        <time>2020-09-24T13:50:21Z</time>
      </trkpt>
      <trkpt lat="48.38083" lon="2.66851">
        <ele>99.199996948242</ele>
        <time>2020-09-24T13:50:26Z</time>
      </trkpt>
      <trkpt lat="48.38085" lon="2.66859">
        <ele>99.400001525879</ele>
        <time>2020-09-24T13:50:31Z</time>
      </trkpt>
      <trkpt lat="48.38084" lon="2.66866">
        <ele>99.599998474121</ele>
        <time>2020-09-24T13:50:36Z</time>
      </trkpt>
      <trkpt lat="48.38083" lon="2.66875">
        <ele>99.800003051758</ele>
        <time>2020-09-24T13:50:41Z</time>
      </trkpt>
      <trkpt lat="48.38082" lon="2.66883">
        <ele>100.19999694824</ele>
        <time>2020-09-24T13:50:46Z</time>
      </trkpt>
      <trkpt lat="48.38081" lon="2.66892">
        <ele>100.40000152588</ele>
        <time>2020-09-24T13:50:51Z</time>
      </trkpt>
      <trkpt lat="48.38082" lon="2.66901">
        <ele>100.80000305176</ele>
        <time>2020-09-24T13:50:56Z</time>
      </trkpt>
      <trkpt lat="48.38081" lon="2.66908">
        <ele>101</ele>
        <time>2020-09-24T13:51:01Z</time>
      </trkpt>
      <trkpt lat="48.3808" lon="2.66915">
        <ele>101.40000152588</ele>
        <time>2020-09-24T13:51:06Z</time>
      </trkpt>
      <trkpt lat="48.38079" lon="2.66922">
        <ele>101.80000305176</ele>
        <time>2020-09-24T13:51:11Z</time>
      </trkpt>
      <trkpt lat="48.38077" lon="2.66931">
        <ele>101.80000305176</ele>
        <time>2020-09-24T13:51:16Z</time>
      </trkpt>
      <trkpt lat="48.38076" lon="2.6694">
        <ele>102</ele>
        <time>2020-09-24T13:51:21Z</time>
      </trkpt>
      <trkpt lat="48.38076" lon="2.66949">
        <ele>102.19999694824</ele>
        <time>2020-09-24T13:51:26Z</time>
      </trkpt>
      <trkpt lat="48.38075" lon="2.66957">
        <ele>102.59999847412</ele>
        <time>2020-09-24T13:51:31Z</time>
      </trkpt>
      <trkpt lat="48.38075" lon="2.66964">
        <ele>102.80000305176</ele>
        <time>2020-09-24T13:51:36Z</time>
      </trkpt>
      <trkpt lat="48.38073" lon="2.66972">
        <ele>103</ele>
        <time>2020-09-24T13:51:41Z</time>
      </trkpt>
      <trkpt lat="48.38073" lon="2.66981">
        <ele>103</ele>
        <time>2020-09-24T13:51:46Z</time>
      </trkpt>
      <trkpt lat="48.38072" lon="2.66988">
        <ele>103.40000152588</ele>
        <time>2020-09-24T13:51:51Z</time>
      </trkpt>
      <trkpt lat="48.38072" lon="2.66996">
        <ele>103.59999847412</ele>
        <time>2020-09-24T13:51:56Z</time>
      </trkpt>
      <trkpt lat="48.38072" lon="2.67004">
        <ele>103.59999847412</ele>
        <time>2020-09-24T13:52:01Z</time>
      </trkpt>
      <trkpt lat="48.38071" lon="2.67013">
        <ele>103.59999847412</ele>
        <time>2020-09-24T13:52:06Z</time>
      </trkpt>
      <trkpt lat="48.38069" lon="2.67024">
        <ele>103.80000305176</ele>
        <time>2020-09-24T13:52:11Z</time>
      </trkpt>
      <trkpt lat="48.38069" lon="2.67036">
        <ele>103.59999847412</ele>
        <time>2020-09-24T13:52:16Z</time>
      </trkpt>
      <trkpt lat="48.38067" lon="2.67044">
        <ele>103.59999847412</ele>
        <time>2020-09-24T13:52:21Z</time>
      </trkpt>
      <trkpt lat="48.38065" lon="2.67052">
        <ele>103.59999847412</ele>
        <time>2020-09-24T13:52:26Z</time>
      </trkpt>
      <trkpt lat="48.38065" lon="2.6706">
        <ele>103.80000305176</ele>
        <time>2020-09-24T13:52:31Z</time>
      </trkpt>
      <trkpt lat="48.38065" lon="2.67065">
        <ele>104</ele>
        <time>2020-09-24T13:52:36Z</time>
      </trkpt>
      <trkpt lat="48.38069" lon="2.67072">
        <ele>104.19999694824</ele>
        <time>2020-09-24T13:52:41Z</time>
      </trkpt>
      <trkpt lat="48.38066" lon="2.67081">
        <ele>104.19999694824</ele>
        <time>2020-09-24T13:52:46Z</time>
      </trkpt>
      <trkpt lat="48.38067" lon="2.67091">
        <ele>104.40000152588</ele>
        <time>2020-09-24T13:52:51Z</time>
      </trkpt>
      <trkpt lat="48.38066" lon="2.67099">
        <ele>104.59999847412</ele>
        <time>2020-09-24T13:52:56Z</time>
      </trkpt>
      <trkpt lat="48.38067" lon="2.67106">
        <ele>104.40000152588</ele>
        <time>2020-09-24T13:53:01Z</time>
      </trkpt>
      <trkpt lat="48.38067" lon="2.67114">
        <ele>104.80000305176</ele>
        <time>2020-09-24T13:53:06Z</time>
      </trkpt>
      <trkpt lat="48.38068" lon="2.67121">
        <ele>104.80000305176</ele>
        <time>2020-09-24T13:53:11Z</time>
      </trkpt>
      <trkpt lat="48.38068" lon="2.67127">
        <ele>105.19999694824</ele>
        <time>2020-09-24T13:53:16Z</time>
      </trkpt>
      <trkpt lat="48.38067" lon="2.67128">
        <ele>105.40000152588</ele>
        <time>2020-09-24T13:53:26Z</time>
      </trkpt>
      <trkpt lat="48.38067" lon="2.67129">
        <ele>105.40000152588</ele>
        <time>2020-09-24T13:55:46Z</time>
      </trkpt>
      <trkpt lat="48.38069" lon="2.67129">
        <ele>105.40000152588</ele>
        <time>2020-09-24T14:01:26Z</time>
      </trkpt>
      <trkpt lat="48.38069" lon="2.67125">
        <ele>105.40000152588</ele>
        <time>2020-09-24T14:04:56Z</time>
      </trkpt>
      <trkpt lat="48.3807" lon="2.67125">
        <ele>105.40000152588</ele>
        <time>2020-09-24T14:05:01Z</time>
      </trkpt>
      <trkpt lat="48.38069" lon="2.67125">
        <ele>105.40000152588</ele>
        <time>2020-09-24T14:05:06Z</time>
      </trkpt>
      <trkpt lat="48.38071" lon="2.67124">
        <ele>105.40000152588</ele>
        <time>2020-09-24T14:05:16Z</time>
      </trkpt>
      <trkpt lat="48.38071" lon="2.67124">
        <ele>105.40000152588</ele>
        <time>2020-09-24T14:05:21Z</time>
      </trkpt>
      <trkpt lat="48.38072" lon="2.67124">
        <ele>105.40000152588</ele>
        <time>2020-09-24T14:05:26Z</time>
      </trkpt>
      <trkpt lat="48.38071" lon="2.67123">
        <ele>105.40000152588</ele>
        <time>2020-09-24T14:05:31Z</time>
      </trkpt>
      <trkpt lat="48.38072" lon="2.67121">
        <ele>105.40000152588</ele>
        <time>2020-09-24T14:05:41Z</time>
      </trkpt>
      <trkpt lat="48.38072" lon="2.67119">
        <ele>105.40000152588</ele>
        <time>2020-09-24T14:05:46Z</time>
      </trkpt>
      <trkpt lat="48.38073" lon="2.67119">
        <ele>105.40000152588</ele>
        <time>2020-09-24T14:05:51Z</time>
      </trkpt>
      <trkpt lat="48.38074" lon="2.6712">
        <ele>105.40000152588</ele>
        <time>2020-09-24T14:06:41Z</time>
      </trkpt>
      <trkpt lat="48.38073" lon="2.67119">
        <ele>105.40000152588</ele>
        <time>2020-09-24T14:06:46Z</time>
      </trkpt>
      <trkpt lat="48.38074" lon="2.67117">
        <ele>105.40000152588</ele>
        <time>2020-09-24T14:06:51Z</time>
      </trkpt>
      <trkpt lat="48.38074" lon="2.67115">
        <ele>105.40000152588</ele>
        <time>2020-09-24T14:06:56Z</time>
      </trkpt>
      <trkpt lat="48.38075" lon="2.67114">
        <ele>105.40000152588</ele>
        <time>2020-09-24T14:07:01Z</time>
      </trkpt>
      <trkpt lat="48.38075" lon="2.67113">
        <ele>105.40000152588</ele>
        <time>2020-09-24T14:07:06Z</time>
      </trkpt>
      <trkpt lat="48.38075" lon="2.67113">
        <ele>105.40000152588</ele>
        <time>2020-09-24T14:07:11Z</time>
      </trkpt>
      <trkpt lat="48.38075" lon="2.67113">
        <ele>105.40000152588</ele>
        <time>2020-09-24T14:07:16Z</time>
      </trkpt>
      <trkpt lat="48.38075" lon="2.67113">
        <ele>105.40000152588</ele>
        <time>2020-09-24T14:07:21Z</time>
      </trkpt>
      <trkpt lat="48.38075" lon="2.67113">
        <ele>105.40000152588</ele>
        <time>2020-09-24T14:07:26Z</time>
      </trkpt>
      <trkpt lat="48.38075" lon="2.67113">
        <ele>105.40000152588</ele>
        <time>2020-09-24T14:07:31Z</time>
      </trkpt>
      <trkpt lat="48.38075" lon="2.67112">
        <ele>105.40000152588</ele>
        <time>2020-09-24T14:07:36Z</time>
      </trkpt>
      <trkpt lat="48.38075" lon="2.67111">
        <ele>105.40000152588</ele>
        <time>2020-09-24T14:07:41Z</time>
      </trkpt>
      <trkpt lat="48.38076" lon="2.6711">
        <ele>105.40000152588</ele>
        <time>2020-09-24T14:07:46Z</time>
      </trkpt>
      <trkpt lat="48.38077" lon="2.67109">
        <ele>105.40000152588</ele>
        <time>2020-09-24T14:07:51Z</time>
      </trkpt>
      <trkpt lat="48.38077" lon="2.67111">
        <ele>105.40000152588</ele>
        <time>2020-09-24T14:07:56Z</time>
      </trkpt>
      <trkpt lat="48.38081" lon="2.67112">
        <ele>105.40000152588</ele>
        <time>2020-09-24T14:08:01Z</time>
      </trkpt>
      <trkpt lat="48.38087" lon="2.67112">
        <ele>105.40000152588</ele>
        <time>2020-09-24T14:08:06Z</time>
      </trkpt>
      <trkpt lat="48.38092" lon="2.67112">
        <ele>105.40000152588</ele>
        <time>2020-09-24T14:08:11Z</time>
      </trkpt>
      <trkpt lat="48.38096" lon="2.67111">
        <ele>106.59999847412</ele>
        <time>2020-09-24T14:08:16Z</time>
      </trkpt>
      <trkpt lat="48.38101" lon="2.6711">
        <ele>106.59999847412</ele>
        <time>2020-09-24T14:08:21Z</time>
      </trkpt>
      <trkpt lat="48.38107" lon="2.67108">
        <ele>106.59999847412</ele>
        <time>2020-09-24T14:08:26Z</time>
      </trkpt>
      <trkpt lat="48.38113" lon="2.67106">
        <ele>106.80000305176</ele>
        <time>2020-09-24T14:08:31Z</time>
      </trkpt>
      <trkpt lat="48.38117" lon="2.67103">
        <ele>107</ele>
        <time>2020-09-24T14:08:36Z</time>
      </trkpt>
      <trkpt lat="48.38121" lon="2.67099">
        <ele>107.40000152588</ele>
        <time>2020-09-24T14:08:41Z</time>
      </trkpt>
      <trkpt lat="48.38126" lon="2.67094">
        <ele>107.40000152588</ele>
        <time>2020-09-24T14:08:46Z</time>
      </trkpt>
      <trkpt lat="48.38132" lon="2.67093">
        <ele>107.59999847412</ele>
        <time>2020-09-24T14:08:51Z</time>
      </trkpt>
      <trkpt lat="48.38138" lon="2.67091">
        <ele>107.80000305176</ele>
        <time>2020-09-24T14:08:56Z</time>
      </trkpt>
      <trkpt lat="48.38143" lon="2.67089">
        <ele>108.19999694824</ele>
        <time>2020-09-24T14:09:01Z</time>
      </trkpt>
      <trkpt lat="48.38148" lon="2.67086">
        <ele>108.40000152588</ele>
        <time>2020-09-24T14:09:06Z</time>
      </trkpt>
      <trkpt lat="48.38153" lon="2.67082">
        <ele>108.40000152588</ele>
        <time>2020-09-24T14:09:11Z</time>
      </trkpt>
      <trkpt lat="48.38159" lon="2.67079">
        <ele>108.40000152588</ele>
        <time>2020-09-24T14:09:16Z</time>
      </trkpt>
      <trkpt lat="48.38165" lon="2.67077">
        <ele>108.40000152588</ele>
        <time>2020-09-24T14:09:21Z</time>
      </trkpt>
      <trkpt lat="48.3817" lon="2.67074">
        <ele>108.40000152588</ele>
        <time>2020-09-24T14:09:26Z</time>
      </trkpt>
      <trkpt lat="48.38174" lon="2.67072">
        <ele>108.19999694824</ele>
        <time>2020-09-24T14:09:31Z</time>
      </trkpt>
      <trkpt lat="48.3818" lon="2.67069">
        <ele>108.40000152588</ele>
        <time>2020-09-24T14:09:36Z</time>
      </trkpt>
      <trkpt lat="48.38186" lon="2.67067">
        <ele>108.40000152588</ele>
        <time>2020-09-24T14:09:41Z</time>
      </trkpt>
      <trkpt lat="48.38191" lon="2.67063">
        <ele>108.40000152588</ele>
        <time>2020-09-24T14:09:46Z</time>
      </trkpt>
      <trkpt lat="48.38194" lon="2.6706">
        <ele>108.40000152588</ele>
        <time>2020-09-24T14:09:51Z</time>
      </trkpt>
      <trkpt lat="48.38199" lon="2.67059">
        <ele>108.59999847412</ele>
        <time>2020-09-24T14:09:56Z</time>
      </trkpt>
      <trkpt lat="48.38206" lon="2.67057">
        <ele>108.59999847412</ele>
        <time>2020-09-24T14:10:01Z</time>
      </trkpt>
      <trkpt lat="48.38212" lon="2.67056">
        <ele>108.59999847412</ele>
        <time>2020-09-24T14:10:06Z</time>
      </trkpt>
      <trkpt lat="48.38217" lon="2.67053">
        <ele>108.59999847412</ele>
        <time>2020-09-24T14:10:11Z</time>
      </trkpt>
      <trkpt lat="48.38223" lon="2.67052">
        <ele>108.59999847412</ele>
        <time>2020-09-24T14:10:16Z</time>
      </trkpt>
      <trkpt lat="48.38228" lon="2.67051">
        <ele>108.80000305176</ele>
        <time>2020-09-24T14:10:21Z</time>
      </trkpt>
      <trkpt lat="48.38234" lon="2.6705">
        <ele>109.19999694824</ele>
        <time>2020-09-24T14:10:26Z</time>
      </trkpt>
      <trkpt lat="48.38239" lon="2.67049">
        <ele>109.40000152588</ele>
        <time>2020-09-24T14:10:31Z</time>
      </trkpt>
      <trkpt lat="48.38246" lon="2.67047">
        <ele>109.59999847412</ele>
        <time>2020-09-24T14:10:36Z</time>
      </trkpt>
      <trkpt lat="48.38253" lon="2.67044">
        <ele>109.59999847412</ele>
        <time>2020-09-24T14:10:41Z</time>
      </trkpt>
      <trkpt lat="48.38258" lon="2.67041">
        <ele>110</ele>
        <time>2020-09-24T14:10:46Z</time>
      </trkpt>
      <trkpt lat="48.38262" lon="2.67037">
        <ele>110.19999694824</ele>
        <time>2020-09-24T14:10:51Z</time>
      </trkpt>
      <trkpt lat="48.38268" lon="2.67035">
        <ele>110.19999694824</ele>
        <time>2020-09-24T14:10:56Z</time>
      </trkpt>
      <trkpt lat="48.38272" lon="2.67032">
        <ele>110.40000152588</ele>
        <time>2020-09-24T14:11:01Z</time>
      </trkpt>
      <trkpt lat="48.38278" lon="2.67028">
        <ele>110.59999847412</ele>
        <time>2020-09-24T14:11:06Z</time>
      </trkpt>
      <trkpt lat="48.38283" lon="2.67026">
        <ele>110.80000305176</ele>
        <time>2020-09-24T14:11:11Z</time>
      </trkpt>
      <trkpt lat="48.38288" lon="2.67023">
        <ele>110.80000305176</ele>
        <time>2020-09-24T14:11:16Z</time>
      </trkpt>
      <trkpt lat="48.38294" lon="2.67019">
        <ele>110.59999847412</ele>
        <time>2020-09-24T14:11:21Z</time>
      </trkpt>
      <trkpt lat="48.383" lon="2.67019">
        <ele>110.80000305176</ele>
        <time>2020-09-24T14:11:26Z</time>
      </trkpt>
      <trkpt lat="48.38305" lon="2.67021">
        <ele>110.80000305176</ele>
        <time>2020-09-24T14:11:31Z</time>
      </trkpt>
      <trkpt lat="48.3831" lon="2.67025">
        <ele>110.80000305176</ele>
        <time>2020-09-24T14:11:36Z</time>
      </trkpt>
      <trkpt lat="48.38316" lon="2.67027">
        <ele>110.59999847412</ele>
        <time>2020-09-24T14:11:41Z</time>
      </trkpt>
      <trkpt lat="48.3832" lon="2.67031">
        <ele>110.59999847412</ele>
        <time>2020-09-24T14:11:46Z</time>
      </trkpt>
      <trkpt lat="48.38325" lon="2.67036">
        <ele>110.80000305176</ele>
        <time>2020-09-24T14:11:51Z</time>
      </trkpt>
      <trkpt lat="48.38329" lon="2.6704">
        <ele>110.80000305176</ele>
        <time>2020-09-24T14:11:56Z</time>
      </trkpt>
      <trkpt lat="48.38334" lon="2.67042">
        <ele>111</ele>
        <time>2020-09-24T14:12:01Z</time>
      </trkpt>
      <trkpt lat="48.38338" lon="2.67045">
        <ele>111.19999694824</ele>
        <time>2020-09-24T14:12:06Z</time>
      </trkpt>
      <trkpt lat="48.38346" lon="2.6705">
        <ele>111.19999694824</ele>
        <time>2020-09-24T14:12:11Z</time>
      </trkpt>
      <trkpt lat="48.3835" lon="2.67053">
        <ele>111.19999694824</ele>
        <time>2020-09-24T14:12:16Z</time>
      </trkpt>
      <trkpt lat="48.38356" lon="2.67057">
        <ele>111.19999694824</ele>
        <time>2020-09-24T14:12:21Z</time>
      </trkpt>
      <trkpt lat="48.38362" lon="2.67059">
        <ele>111.19999694824</ele>
        <time>2020-09-24T14:12:26Z</time>
      </trkpt>
      <trkpt lat="48.38367" lon="2.67062">
        <ele>111.40000152588</ele>
        <time>2020-09-24T14:12:31Z</time>
      </trkpt>
      <trkpt lat="48.38373" lon="2.67064">
        <ele>111.40000152588</ele>
        <time>2020-09-24T14:12:36Z</time>
      </trkpt>
      <trkpt lat="48.38379" lon="2.67067">
        <ele>111.19999694824</ele>
        <time>2020-09-24T14:12:41Z</time>
      </trkpt>
      <trkpt lat="48.38385" lon="2.6707">
        <ele>111</ele>
        <time>2020-09-24T14:12:46Z</time>
      </trkpt>
      <trkpt lat="48.38387" lon="2.67072">
        <ele>111</ele>
        <time>2020-09-24T14:12:51Z</time>
      </trkpt>
      <trkpt lat="48.38395" lon="2.67077">
        <ele>111</ele>
        <time>2020-09-24T14:12:56Z</time>
      </trkpt>
      <trkpt lat="48.38402" lon="2.67079">
        <ele>111</ele>
        <time>2020-09-24T14:13:01Z</time>
      </trkpt>
      <trkpt lat="48.38406" lon="2.67081">
        <ele>111</ele>
        <time>2020-09-24T14:13:06Z</time>
      </trkpt>
      <trkpt lat="48.38411" lon="2.67083">
        <ele>111</ele>
        <time>2020-09-24T14:13:11Z</time>
      </trkpt>
      <trkpt lat="48.38419" lon="2.67087">
        <ele>111</ele>
        <time>2020-09-24T14:13:16Z</time>
      </trkpt>
      <trkpt lat="48.38425" lon="2.67089">
        <ele>110.80000305176</ele>
        <time>2020-09-24T14:13:21Z</time>
      </trkpt>
      <trkpt lat="48.38429" lon="2.67092">
        <ele>110.59999847412</ele>
        <time>2020-09-24T14:13:26Z</time>
      </trkpt>
      <trkpt lat="48.38434" lon="2.67093">
        <ele>110.59999847412</ele>
        <time>2020-09-24T14:13:31Z</time>
      </trkpt>
      <trkpt lat="48.38438" lon="2.67095">
        <ele>110.19999694824</ele>
        <time>2020-09-24T14:13:36Z</time>
      </trkpt>
      <trkpt lat="48.38443" lon="2.67099">
        <ele>110</ele>
        <time>2020-09-24T14:13:41Z</time>
      </trkpt>
      <trkpt lat="48.38449" lon="2.67103">
        <ele>109.80000305176</ele>
        <time>2020-09-24T14:13:46Z</time>
      </trkpt>
      <trkpt lat="48.38455" lon="2.67108">
        <ele>110</ele>
        <time>2020-09-24T14:13:51Z</time>
      </trkpt>
      <trkpt lat="48.38461" lon="2.67115">
        <ele>110.19999694824</ele>
        <time>2020-09-24T14:13:56Z</time>
      </trkpt>
      <trkpt lat="48.38467" lon="2.67118">
        <ele>110.40000152588</ele>
        <time>2020-09-24T14:14:01Z</time>
      </trkpt>
      <trkpt lat="48.38471" lon="2.67126">
        <ele>110.40000152588</ele>
        <time>2020-09-24T14:14:06Z</time>
      </trkpt>
      <trkpt lat="48.38473" lon="2.67132">
        <ele>110.19999694824</ele>
        <time>2020-09-24T14:14:11Z</time>
      </trkpt>
      <trkpt lat="48.38477" lon="2.6714">
        <ele>110.19999694824</ele>
        <time>2020-09-24T14:14:16Z</time>
      </trkpt>
      <trkpt lat="48.3848" lon="2.67146">
        <ele>110.59999847412</ele>
        <time>2020-09-24T14:14:21Z</time>
      </trkpt>
      <trkpt lat="48.38483" lon="2.67154">
        <ele>110.80000305176</ele>
        <time>2020-09-24T14:14:26Z</time>
      </trkpt>
      <trkpt lat="48.38486" lon="2.67159">
        <ele>111</ele>
        <time>2020-09-24T14:14:31Z</time>
      </trkpt>
      <trkpt lat="48.3849" lon="2.67166">
        <ele>111</ele>
        <time>2020-09-24T14:14:36Z</time>
      </trkpt>
      <trkpt lat="48.38494" lon="2.67173">
        <ele>111</ele>
        <time>2020-09-24T14:14:41Z</time>
      </trkpt>
      <trkpt lat="48.38498" lon="2.67178">
        <ele>111</ele>
        <time>2020-09-24T14:14:46Z</time>
      </trkpt>
      <trkpt lat="48.38503" lon="2.67186">
        <ele>111</ele>
        <time>2020-09-24T14:14:51Z</time>
      </trkpt>
      <trkpt lat="48.38505" lon="2.6719">
        <ele>111.19999694824</ele>
        <time>2020-09-24T14:14:56Z</time>
      </trkpt>
      <trkpt lat="48.38508" lon="2.67199">
        <ele>111.19999694824</ele>
        <time>2020-09-24T14:15:01Z</time>
      </trkpt>
      <trkpt lat="48.38512" lon="2.67204">
        <ele>111.19999694824</ele>
        <time>2020-09-24T14:15:06Z</time>
      </trkpt>
      <trkpt lat="48.38514" lon="2.67213">
        <ele>111.19999694824</ele>
        <time>2020-09-24T14:15:11Z</time>
      </trkpt>
      <trkpt lat="48.38519" lon="2.67218">
        <ele>111.19999694824</ele>
        <time>2020-09-24T14:15:16Z</time>
      </trkpt>
      <trkpt lat="48.38524" lon="2.67225">
        <ele>111</ele>
        <time>2020-09-24T14:15:21Z</time>
      </trkpt>
      <trkpt lat="48.38525" lon="2.67231">
        <ele>111</ele>
        <time>2020-09-24T14:15:26Z</time>
      </trkpt>
      <trkpt lat="48.3853" lon="2.67239">
        <ele>111</ele>
        <time>2020-09-24T14:15:31Z</time>
      </trkpt>
      <trkpt lat="48.38533" lon="2.67246">
        <ele>111</ele>
        <time>2020-09-24T14:15:36Z</time>
      </trkpt>
      <trkpt lat="48.38537" lon="2.67253">
        <ele>111.19999694824</ele>
        <time>2020-09-24T14:15:41Z</time>
      </trkpt>
      <trkpt lat="48.3854" lon="2.67259">
        <ele>111.19999694824</ele>
        <time>2020-09-24T14:15:46Z</time>
      </trkpt>
      <trkpt lat="48.38543" lon="2.67266">
        <ele>111.19999694824</ele>
        <time>2020-09-24T14:15:51Z</time>
      </trkpt>
      <trkpt lat="48.38546" lon="2.67272">
        <ele>111.19999694824</ele>
        <time>2020-09-24T14:15:56Z</time>
      </trkpt>
      <trkpt lat="48.38548" lon="2.67278">
        <ele>111.40000152588</ele>
        <time>2020-09-24T14:16:01Z</time>
      </trkpt>
      <trkpt lat="48.38551" lon="2.67285">
        <ele>111.59999847412</ele>
        <time>2020-09-24T14:16:06Z</time>
      </trkpt>
      <trkpt lat="48.38555" lon="2.67291">
        <ele>111.80000305176</ele>
        <time>2020-09-24T14:16:11Z</time>
      </trkpt>
      <trkpt lat="48.38561" lon="2.67297">
        <ele>111.59999847412</ele>
        <time>2020-09-24T14:16:16Z</time>
      </trkpt>
      <trkpt lat="48.38563" lon="2.67304">
        <ele>111.59999847412</ele>
        <time>2020-09-24T14:16:21Z</time>
      </trkpt>
      <trkpt lat="48.38565" lon="2.6731">
        <ele>111.59999847412</ele>
        <time>2020-09-24T14:16:26Z</time>
      </trkpt>
      <trkpt lat="48.38568" lon="2.67316">
        <ele>111.59999847412</ele>
        <time>2020-09-24T14:16:31Z</time>
      </trkpt>
      <trkpt lat="48.38572" lon="2.67323">
        <ele>111.59999847412</ele>
        <time>2020-09-24T14:16:36Z</time>
      </trkpt>
      <trkpt lat="48.38575" lon="2.67328">
        <ele>111.59999847412</ele>
        <time>2020-09-24T14:16:41Z</time>
      </trkpt>
      <trkpt lat="48.38578" lon="2.67331">
        <ele>111.19999694824</ele>
        <time>2020-09-24T14:16:46Z</time>
      </trkpt>
      <trkpt lat="48.3858" lon="2.67333">
        <ele>111.19999694824</ele>
        <time>2020-09-24T14:16:51Z</time>
      </trkpt>
      <trkpt lat="48.38583" lon="2.67334">
        <ele>111.19999694824</ele>
        <time>2020-09-24T14:16:56Z</time>
      </trkpt>
      <trkpt lat="48.38585" lon="2.67334">
        <ele>111.19999694824</ele>
        <time>2020-09-24T14:17:01Z</time>
      </trkpt>
      <trkpt lat="48.38588" lon="2.67333">
        <ele>111.19999694824</ele>
        <time>2020-09-24T14:17:06Z</time>
      </trkpt>
      <trkpt lat="48.38588" lon="2.67333">
        <ele>111.19999694824</ele>
        <time>2020-09-24T14:17:11Z</time>
      </trkpt>
      <trkpt lat="48.3859" lon="2.67331">
        <ele>111.19999694824</ele>
        <time>2020-09-24T14:17:16Z</time>
      </trkpt>
      <trkpt lat="48.38593" lon="2.67328">
        <ele>111.19999694824</ele>
        <time>2020-09-24T14:17:21Z</time>
      </trkpt>
      <trkpt lat="48.38597" lon="2.67323">
        <ele>111.19999694824</ele>
        <time>2020-09-24T14:17:26Z</time>
      </trkpt>
      <trkpt lat="48.38602" lon="2.6732">
        <ele>111.19999694824</ele>
        <time>2020-09-24T14:17:31Z</time>
      </trkpt>
      <trkpt lat="48.38608" lon="2.67316">
        <ele>110.59999847412</ele>
        <time>2020-09-24T14:17:36Z</time>
      </trkpt>
      <trkpt lat="48.38612" lon="2.67311">
        <ele>110.40000152588</ele>
        <time>2020-09-24T14:17:41Z</time>
      </trkpt>
      <trkpt lat="48.38617" lon="2.67307">
        <ele>110.40000152588</ele>
        <time>2020-09-24T14:17:46Z</time>
      </trkpt>
      <trkpt lat="48.38621" lon="2.67304">
        <ele>110.40000152588</ele>
        <time>2020-09-24T14:17:51Z</time>
      </trkpt>
      <trkpt lat="48.38625" lon="2.673">
        <ele>110.40000152588</ele>
        <time>2020-09-24T14:17:56Z</time>
      </trkpt>
      <trkpt lat="48.3863" lon="2.67296">
        <ele>110.59999847412</ele>
        <time>2020-09-24T14:18:01Z</time>
      </trkpt>
      <trkpt lat="48.38636" lon="2.67292">
        <ele>110.59999847412</ele>
        <time>2020-09-24T14:18:06Z</time>
      </trkpt>
      <trkpt lat="48.38641" lon="2.67288">
        <ele>110.80000305176</ele>
        <time>2020-09-24T14:18:11Z</time>
      </trkpt>
      <trkpt lat="48.38644" lon="2.67286">
        <ele>111.19999694824</ele>
        <time>2020-09-24T14:18:16Z</time>
      </trkpt>
      <trkpt lat="48.3865" lon="2.67283">
        <ele>111.19999694824</ele>
        <time>2020-09-24T14:18:21Z</time>
      </trkpt>
      <trkpt lat="48.38655" lon="2.67281">
        <ele>111.19999694824</ele>
        <time>2020-09-24T14:18:26Z</time>
      </trkpt>
      <trkpt lat="48.3866" lon="2.67278">
        <ele>111.40000152588</ele>
        <time>2020-09-24T14:18:31Z</time>
      </trkpt>
      <trkpt lat="48.38666" lon="2.67275">
        <ele>111.59999847412</ele>
        <time>2020-09-24T14:18:36Z</time>
      </trkpt>
      <trkpt lat="48.38671" lon="2.67275">
        <ele>111.80000305176</ele>
        <time>2020-09-24T14:18:41Z</time>
      </trkpt>
      <trkpt lat="48.38679" lon="2.67273">
        <ele>112</ele>
        <time>2020-09-24T14:18:46Z</time>
      </trkpt>
      <trkpt lat="48.38684" lon="2.67271">
        <ele>112.19999694824</ele>
        <time>2020-09-24T14:18:51Z</time>
      </trkpt>
      <trkpt lat="48.3869" lon="2.67267">
        <ele>112.80000305176</ele>
        <time>2020-09-24T14:18:56Z</time>
      </trkpt>
      <trkpt lat="48.38696" lon="2.67266">
        <ele>113.19999694824</ele>
        <time>2020-09-24T14:19:01Z</time>
      </trkpt>
      <trkpt lat="48.38701" lon="2.67264">
        <ele>113.80000305176</ele>
        <time>2020-09-24T14:19:06Z</time>
      </trkpt>
      <trkpt lat="48.38705" lon="2.67263">
        <ele>114</ele>
        <time>2020-09-24T14:19:11Z</time>
      </trkpt>
      <trkpt lat="48.3871" lon="2.6726">
        <ele>113.80000305176</ele>
        <time>2020-09-24T14:19:16Z</time>
      </trkpt>
      <trkpt lat="48.38714" lon="2.67259">
        <ele>113.59999847412</ele>
        <time>2020-09-24T14:19:21Z</time>
      </trkpt>
      <trkpt lat="48.38719" lon="2.67258">
        <ele>113.59999847412</ele>
        <time>2020-09-24T14:19:26Z</time>
      </trkpt>
      <trkpt lat="48.38724" lon="2.67257">
        <ele>113.59999847412</ele>
        <time>2020-09-24T14:19:31Z</time>
      </trkpt>
      <trkpt lat="48.38728" lon="2.67257">
        <ele>113.40000152588</ele>
        <time>2020-09-24T14:19:36Z</time>
      </trkpt>
      <trkpt lat="48.38734" lon="2.67257">
        <ele>113.19999694824</ele>
        <time>2020-09-24T14:19:41Z</time>
      </trkpt>
      <trkpt lat="48.3874" lon="2.67253">
        <ele>113</ele>
        <time>2020-09-24T14:19:46Z</time>
      </trkpt>
      <trkpt lat="48.38745" lon="2.6725">
        <ele>112.80000305176</ele>
        <time>2020-09-24T14:19:51Z</time>
      </trkpt>
      <trkpt lat="48.3875" lon="2.67249">
        <ele>112.40000152588</ele>
        <time>2020-09-24T14:19:56Z</time>
      </trkpt>
      <trkpt lat="48.38755" lon="2.67248">
        <ele>112.19999694824</ele>
        <time>2020-09-24T14:20:01Z</time>
      </trkpt>
      <trkpt lat="48.38759" lon="2.67244">
        <ele>111.80000305176</ele>
        <time>2020-09-24T14:20:06Z</time>
      </trkpt>
      <trkpt lat="48.38765" lon="2.67241">
        <ele>111.40000152588</ele>
        <time>2020-09-24T14:20:11Z</time>
      </trkpt>
      <trkpt lat="48.38771" lon="2.67236">
        <ele>111</ele>
        <time>2020-09-24T14:20:16Z</time>
      </trkpt>
      <trkpt lat="48.38778" lon="2.67232">
        <ele>110.59999847412</ele>
        <time>2020-09-24T14:20:21Z</time>
      </trkpt>
      <trkpt lat="48.38785" lon="2.67229">
        <ele>110</ele>
        <time>2020-09-24T14:20:26Z</time>
      </trkpt>
      <trkpt lat="48.38789" lon="2.67227">
        <ele>110</ele>
        <time>2020-09-24T14:20:31Z</time>
      </trkpt>
      <trkpt lat="48.38794" lon="2.67225">
        <ele>109.59999847412</ele>
        <time>2020-09-24T14:20:36Z</time>
      </trkpt>
      <trkpt lat="48.388" lon="2.67223">
        <ele>108.80000305176</ele>
        <time>2020-09-24T14:20:41Z</time>
      </trkpt>
      <trkpt lat="48.38805" lon="2.6722">
        <ele>108.19999694824</ele>
        <time>2020-09-24T14:20:46Z</time>
      </trkpt>
      <trkpt lat="48.3881" lon="2.67216">
        <ele>107.80000305176</ele>
        <time>2020-09-24T14:20:51Z</time>
      </trkpt>
      <trkpt lat="48.38813" lon="2.67215">
        <ele>107</ele>
        <time>2020-09-24T14:20:56Z</time>
      </trkpt>
      <trkpt lat="48.38815" lon="2.67214">
        <ele>106.40000152588</ele>
        <time>2020-09-24T14:21:01Z</time>
      </trkpt>
      <trkpt lat="48.3882" lon="2.67212">
        <ele>105.80000305176</ele>
        <time>2020-09-24T14:21:06Z</time>
      </trkpt>
      <trkpt lat="48.38825" lon="2.67209">
        <ele>105.40000152588</ele>
        <time>2020-09-24T14:21:11Z</time>
      </trkpt>
      <trkpt lat="48.38832" lon="2.67206">
        <ele>104.80000305176</ele>
        <time>2020-09-24T14:21:16Z</time>
      </trkpt>
      <trkpt lat="48.38837" lon="2.67204">
        <ele>104.59999847412</ele>
        <time>2020-09-24T14:21:21Z</time>
      </trkpt>
      <trkpt lat="48.38842" lon="2.67201">
        <ele>104.19999694824</ele>
        <time>2020-09-24T14:21:26Z</time>
      </trkpt>
      <trkpt lat="48.38847" lon="2.672">
        <ele>103.59999847412</ele>
        <time>2020-09-24T14:21:31Z</time>
      </trkpt>
      <trkpt lat="48.38853" lon="2.67199">
        <ele>103.19999694824</ele>
        <time>2020-09-24T14:21:36Z</time>
      </trkpt>
      <trkpt lat="48.38859" lon="2.67197">
        <ele>102.80000305176</ele>
        <time>2020-09-24T14:21:41Z</time>
      </trkpt>
      <trkpt lat="48.38864" lon="2.67197">
        <ele>102.40000152588</ele>
        <time>2020-09-24T14:21:46Z</time>
      </trkpt>
      <trkpt lat="48.3887" lon="2.67193">
        <ele>102.19999694824</ele>
        <time>2020-09-24T14:21:51Z</time>
      </trkpt>
      <trkpt lat="48.38876" lon="2.67191">
        <ele>101.80000305176</ele>
        <time>2020-09-24T14:21:56Z</time>
      </trkpt>
      <trkpt lat="48.38882" lon="2.6719">
        <ele>101.59999847412</ele>
        <time>2020-09-24T14:22:01Z</time>
      </trkpt>
      <trkpt lat="48.38888" lon="2.6719">
        <ele>101.40000152588</ele>
        <time>2020-09-24T14:22:06Z</time>
      </trkpt>
      <trkpt lat="48.38895" lon="2.67192">
        <ele>101.19999694824</ele>
        <time>2020-09-24T14:22:11Z</time>
      </trkpt>
      <trkpt lat="48.38901" lon="2.67195">
        <ele>100.80000305176</ele>
        <time>2020-09-24T14:22:16Z</time>
      </trkpt>
      <trkpt lat="48.38904" lon="2.67198">
        <ele>100.59999847412</ele>
        <time>2020-09-24T14:22:21Z</time>
      </trkpt>
      <trkpt lat="48.38908" lon="2.67203">
        <ele>100.59999847412</ele>
        <time>2020-09-24T14:22:26Z</time>
      </trkpt>
      <trkpt lat="48.38908" lon="2.67207">
        <ele>100.40000152588</ele>
        <time>2020-09-24T14:22:31Z</time>
      </trkpt>
      <trkpt lat="48.38906" lon="2.67209">
        <ele>100.40000152588</ele>
        <time>2020-09-24T14:22:36Z</time>
      </trkpt>
      <trkpt lat="48.38906" lon="2.67209">
        <ele>100.40000152588</ele>
        <time>2020-09-24T14:22:41Z</time>
      </trkpt>
      <trkpt lat="48.38904" lon="2.67213">
        <ele>100.40000152588</ele>
        <time>2020-09-24T14:22:46Z</time>
      </trkpt>
      <trkpt lat="48.38905" lon="2.67218">
        <ele>100.40000152588</ele>
        <time>2020-09-24T14:22:51Z</time>
      </trkpt>
      <trkpt lat="48.38904" lon="2.67223">
        <ele>100.40000152588</ele>
        <time>2020-09-24T14:22:56Z</time>
      </trkpt>
      <trkpt lat="48.38903" lon="2.6723">
        <ele>100.40000152588</ele>
        <time>2020-09-24T14:23:01Z</time>
      </trkpt>
      <trkpt lat="48.38903" lon="2.67236">
        <ele>100.59999847412</ele>
        <time>2020-09-24T14:23:06Z</time>
      </trkpt>
      <trkpt lat="48.38902" lon="2.67244">
        <ele>100.59999847412</ele>
        <time>2020-09-24T14:23:11Z</time>
      </trkpt>
      <trkpt lat="48.38901" lon="2.67252">
        <ele>100.80000305176</ele>
        <time>2020-09-24T14:23:16Z</time>
      </trkpt>
      <trkpt lat="48.38901" lon="2.67259">
        <ele>100.80000305176</ele>
        <time>2020-09-24T14:23:21Z</time>
      </trkpt>
      <trkpt lat="48.389" lon="2.67266">
        <ele>100.80000305176</ele>
        <time>2020-09-24T14:23:26Z</time>
      </trkpt>
      <trkpt lat="48.38899" lon="2.67273">
        <ele>100.59999847412</ele>
        <time>2020-09-24T14:23:31Z</time>
      </trkpt>
      <trkpt lat="48.38899" lon="2.67279">
        <ele>100.80000305176</ele>
        <time>2020-09-24T14:23:36Z</time>
      </trkpt>
      <trkpt lat="48.38897" lon="2.67287">
        <ele>101</ele>
        <time>2020-09-24T14:23:41Z</time>
      </trkpt>
      <trkpt lat="48.38896" lon="2.67295">
        <ele>101</ele>
        <time>2020-09-24T14:23:46Z</time>
      </trkpt>
      <trkpt lat="48.38894" lon="2.67304">
        <ele>101.19999694824</ele>
        <time>2020-09-24T14:23:51Z</time>
      </trkpt>
      <trkpt lat="48.38894" lon="2.67312">
        <ele>101</ele>
        <time>2020-09-24T14:23:56Z</time>
      </trkpt>
      <trkpt lat="48.38894" lon="2.67319">
        <ele>101</ele>
        <time>2020-09-24T14:24:01Z</time>
      </trkpt>
      <trkpt lat="48.38892" lon="2.67327">
        <ele>100.80000305176</ele>
        <time>2020-09-24T14:24:06Z</time>
      </trkpt>
      <trkpt lat="48.38891" lon="2.67335">
        <ele>100.80000305176</ele>
        <time>2020-09-24T14:24:11Z</time>
      </trkpt>
      <trkpt lat="48.38889" lon="2.67343">
        <ele>100.59999847412</ele>
        <time>2020-09-24T14:24:16Z</time>
      </trkpt>
      <trkpt lat="48.38888" lon="2.6735">
        <ele>100.59999847412</ele>
        <time>2020-09-24T14:24:21Z</time>
      </trkpt>
      <trkpt lat="48.38886" lon="2.67357">
        <ele>100.59999847412</ele>
        <time>2020-09-24T14:24:26Z</time>
      </trkpt>
      <trkpt lat="48.38887" lon="2.67366">
        <ele>100.59999847412</ele>
        <time>2020-09-24T14:24:31Z</time>
      </trkpt>
      <trkpt lat="48.38885" lon="2.67374">
        <ele>100.59999847412</ele>
        <time>2020-09-24T14:24:36Z</time>
      </trkpt>
      <trkpt lat="48.38883" lon="2.67382">
        <ele>100.59999847412</ele>
        <time>2020-09-24T14:24:41Z</time>
      </trkpt>
      <trkpt lat="48.38884" lon="2.67391">
        <ele>100.59999847412</ele>
        <time>2020-09-24T14:24:46Z</time>
      </trkpt>
      <trkpt lat="48.38882" lon="2.67398">
        <ele>100.40000152588</ele>
        <time>2020-09-24T14:24:51Z</time>
      </trkpt>
      <trkpt lat="48.38881" lon="2.67405">
        <ele>100.40000152588</ele>
        <time>2020-09-24T14:24:56Z</time>
      </trkpt>
      <trkpt lat="48.38881" lon="2.67414">
        <ele>100.40000152588</ele>
        <time>2020-09-24T14:25:01Z</time>
      </trkpt>
      <trkpt lat="48.38879" lon="2.67423">
        <ele>100.59999847412</ele>
        <time>2020-09-24T14:25:06Z</time>
      </trkpt>
      <trkpt lat="48.38877" lon="2.67432">
        <ele>100.80000305176</ele>
        <time>2020-09-24T14:25:11Z</time>
      </trkpt>
      <trkpt lat="48.38876" lon="2.67442">
        <ele>100.59999847412</ele>
        <time>2020-09-24T14:25:16Z</time>
      </trkpt>
      <trkpt lat="48.38874" lon="2.67451">
        <ele>100.59999847412</ele>
        <time>2020-09-24T14:25:21Z</time>
      </trkpt>
      <trkpt lat="48.38876" lon="2.67461">
        <ele>100.59999847412</ele>
        <time>2020-09-24T14:25:26Z</time>
      </trkpt>
      <trkpt lat="48.38873" lon="2.67469">
        <ele>100.59999847412</ele>
        <time>2020-09-24T14:25:31Z</time>
      </trkpt>
      <trkpt lat="48.38872" lon="2.67479">
        <ele>100.59999847412</ele>
        <time>2020-09-24T14:25:36Z</time>
      </trkpt>
      <trkpt lat="48.38871" lon="2.67488">
        <ele>100.40000152588</ele>
        <time>2020-09-24T14:25:41Z</time>
      </trkpt>
      <trkpt lat="48.3887" lon="2.67496">
        <ele>100.40000152588</ele>
        <time>2020-09-24T14:25:46Z</time>
      </trkpt>
      <trkpt lat="48.38868" lon="2.67504">
        <ele>100.40000152588</ele>
        <time>2020-09-24T14:25:51Z</time>
      </trkpt>
      <trkpt lat="48.38868" lon="2.67512">
        <ele>100.40000152588</ele>
        <time>2020-09-24T14:25:56Z</time>
      </trkpt>
      <trkpt lat="48.38865" lon="2.6752">
        <ele>100.59999847412</ele>
        <time>2020-09-24T14:26:01Z</time>
      </trkpt>
      <trkpt lat="48.38865" lon="2.67529">
        <ele>100.59999847412</ele>
        <time>2020-09-24T14:26:06Z</time>
      </trkpt>
      <trkpt lat="48.38864" lon="2.67535">
        <ele>100.40000152588</ele>
        <time>2020-09-24T14:26:11Z</time>
      </trkpt>
      <trkpt lat="48.38865" lon="2.67545">
        <ele>100.40000152588</ele>
        <time>2020-09-24T14:26:16Z</time>
      </trkpt>
      <trkpt lat="48.38863" lon="2.67553">
        <ele>100.40000152588</ele>
        <time>2020-09-24T14:26:21Z</time>
      </trkpt>
      <trkpt lat="48.38863" lon="2.67562">
        <ele>100.40000152588</ele>
        <time>2020-09-24T14:26:26Z</time>
      </trkpt>
      <trkpt lat="48.38859" lon="2.67571">
        <ele>100.19999694824</ele>
        <time>2020-09-24T14:26:31Z</time>
      </trkpt>
      <trkpt lat="48.38859" lon="2.6758">
        <ele>100.19999694824</ele>
        <time>2020-09-24T14:26:36Z</time>
      </trkpt>
      <trkpt lat="48.38857" lon="2.67589">
        <ele>100.19999694824</ele>
        <time>2020-09-24T14:26:41Z</time>
      </trkpt>
      <trkpt lat="48.38856" lon="2.67596">
        <ele>100</ele>
        <time>2020-09-24T14:26:46Z</time>
      </trkpt>
      <trkpt lat="48.38855" lon="2.67604">
        <ele>100</ele>
        <time>2020-09-24T14:26:51Z</time>
      </trkpt>
      <trkpt lat="48.38854" lon="2.67612">
        <ele>100</ele>
        <time>2020-09-24T14:26:56Z</time>
      </trkpt>
      <trkpt lat="48.38854" lon="2.67619">
        <ele>100</ele>
        <time>2020-09-24T14:27:01Z</time>
      </trkpt>
      <trkpt lat="48.38851" lon="2.67628">
        <ele>100</ele>
        <time>2020-09-24T14:27:06Z</time>
      </trkpt>
      <trkpt lat="48.38851" lon="2.67636">
        <ele>100.19999694824</ele>
        <time>2020-09-24T14:27:11Z</time>
      </trkpt>
      <trkpt lat="48.38849" lon="2.67644">
        <ele>100</ele>
        <time>2020-09-24T14:27:16Z</time>
      </trkpt>
      <trkpt lat="48.38848" lon="2.67652">
        <ele>100</ele>
        <time>2020-09-24T14:27:21Z</time>
      </trkpt>
      <trkpt lat="48.38846" lon="2.6766">
        <ele>99.800003051758</ele>
        <time>2020-09-24T14:27:26Z</time>
      </trkpt>
      <trkpt lat="48.38845" lon="2.67667">
        <ele>99.800003051758</ele>
        <time>2020-09-24T14:27:31Z</time>
      </trkpt>
      <trkpt lat="48.38843" lon="2.67675">
        <ele>99.599998474121</ele>
        <time>2020-09-24T14:27:36Z</time>
      </trkpt>
      <trkpt lat="48.38843" lon="2.67684">
        <ele>99.599998474121</ele>
        <time>2020-09-24T14:27:41Z</time>
      </trkpt>
      <trkpt lat="48.38841" lon="2.67692">
        <ele>100</ele>
        <time>2020-09-24T14:27:46Z</time>
      </trkpt>
      <trkpt lat="48.38842" lon="2.67703">
        <ele>100</ele>
        <time>2020-09-24T14:27:51Z</time>
      </trkpt>
      <trkpt lat="48.38839" lon="2.6771">
        <ele>100.19999694824</ele>
        <time>2020-09-24T14:27:56Z</time>
      </trkpt>
      <trkpt lat="48.38839" lon="2.6772">
        <ele>100.19999694824</ele>
        <time>2020-09-24T14:28:01Z</time>
      </trkpt>
      <trkpt lat="48.38836" lon="2.67728">
        <ele>100.19999694824</ele>
        <time>2020-09-24T14:28:06Z</time>
      </trkpt>
      <trkpt lat="48.38839" lon="2.67736">
        <ele>100.19999694824</ele>
        <time>2020-09-24T14:28:11Z</time>
      </trkpt>
      <trkpt lat="48.38838" lon="2.67744">
        <ele>100</ele>
        <time>2020-09-24T14:28:16Z</time>
      </trkpt>
      <trkpt lat="48.38839" lon="2.67753">
        <ele>100</ele>
        <time>2020-09-24T14:28:21Z</time>
      </trkpt>
      <trkpt lat="48.38835" lon="2.67762">
        <ele>99.800003051758</ele>
        <time>2020-09-24T14:28:26Z</time>
      </trkpt>
      <trkpt lat="48.38834" lon="2.6777">
        <ele>100</ele>
        <time>2020-09-24T14:28:31Z</time>
      </trkpt>
      <trkpt lat="48.38833" lon="2.67779">
        <ele>100.19999694824</ele>
        <time>2020-09-24T14:28:36Z</time>
      </trkpt>
      <trkpt lat="48.38832" lon="2.67785">
        <ele>100.19999694824</ele>
        <time>2020-09-24T14:28:41Z</time>
      </trkpt>
      <trkpt lat="48.38832" lon="2.67792">
        <ele>100</ele>
        <time>2020-09-24T14:28:46Z</time>
      </trkpt>
      <trkpt lat="48.38831" lon="2.678">
        <ele>99.800003051758</ele>
        <time>2020-09-24T14:28:51Z</time>
      </trkpt>
      <trkpt lat="48.38829" lon="2.67808">
        <ele>99.800003051758</ele>
        <time>2020-09-24T14:28:56Z</time>
      </trkpt>
      <trkpt lat="48.38826" lon="2.67814">
        <ele>99.800003051758</ele>
        <time>2020-09-24T14:29:01Z</time>
      </trkpt>
      <trkpt lat="48.38825" lon="2.67823">
        <ele>100</ele>
        <time>2020-09-24T14:29:06Z</time>
      </trkpt>
      <trkpt lat="48.38824" lon="2.67829">
        <ele>100</ele>
        <time>2020-09-24T14:29:11Z</time>
      </trkpt>
      <trkpt lat="48.38823" lon="2.67838">
        <ele>99.800003051758</ele>
        <time>2020-09-24T14:29:16Z</time>
      </trkpt>
      <trkpt lat="48.38824" lon="2.67846">
        <ele>99.800003051758</ele>
        <time>2020-09-24T14:29:21Z</time>
      </trkpt>
      <trkpt lat="48.38821" lon="2.67855">
        <ele>99.599998474121</ele>
        <time>2020-09-24T14:29:26Z</time>
      </trkpt>
      <trkpt lat="48.3882" lon="2.67864">
        <ele>99.599998474121</ele>
        <time>2020-09-24T14:29:31Z</time>
      </trkpt>
      <trkpt lat="48.38818" lon="2.67872">
        <ele>99.400001525879</ele>
        <time>2020-09-24T14:29:36Z</time>
      </trkpt>
      <trkpt lat="48.38817" lon="2.6788">
        <ele>99.599998474121</ele>
        <time>2020-09-24T14:29:41Z</time>
      </trkpt>
      <trkpt lat="48.38814" lon="2.67885">
        <ele>99.599998474121</ele>
        <time>2020-09-24T14:29:46Z</time>
      </trkpt>
      <trkpt lat="48.3881" lon="2.67892">
        <ele>99.800003051758</ele>
        <time>2020-09-24T14:29:51Z</time>
      </trkpt>
      <trkpt lat="48.38808" lon="2.679">
        <ele>100</ele>
        <time>2020-09-24T14:29:56Z</time>
      </trkpt>
      <trkpt lat="48.38805" lon="2.67908">
        <ele>100</ele>
        <time>2020-09-24T14:30:01Z</time>
      </trkpt>
      <trkpt lat="48.38804" lon="2.67918">
        <ele>100</ele>
        <time>2020-09-24T14:30:06Z</time>
      </trkpt>
      <trkpt lat="48.38805" lon="2.67925">
        <ele>100.19999694824</ele>
        <time>2020-09-24T14:30:11Z</time>
      </trkpt>
      <trkpt lat="48.38807" lon="2.67935">
        <ele>100.19999694824</ele>
        <time>2020-09-24T14:30:16Z</time>
      </trkpt>
      <trkpt lat="48.38808" lon="2.67943">
        <ele>100.19999694824</ele>
        <time>2020-09-24T14:30:21Z</time>
      </trkpt>
      <trkpt lat="48.38806" lon="2.67951">
        <ele>100.19999694824</ele>
        <time>2020-09-24T14:30:26Z</time>
      </trkpt>
      <trkpt lat="48.38804" lon="2.67959">
        <ele>100.19999694824</ele>
        <time>2020-09-24T14:30:31Z</time>
      </trkpt>
      <trkpt lat="48.38801" lon="2.67967">
        <ele>100</ele>
        <time>2020-09-24T14:30:36Z</time>
      </trkpt>
      <trkpt lat="48.38798" lon="2.67974">
        <ele>100.19999694824</ele>
        <time>2020-09-24T14:30:41Z</time>
      </trkpt>
      <trkpt lat="48.38797" lon="2.67982">
        <ele>100.19999694824</ele>
        <time>2020-09-24T14:30:46Z</time>
      </trkpt>
      <trkpt lat="48.38794" lon="2.67988">
        <ele>100.19999694824</ele>
        <time>2020-09-24T14:30:51Z</time>
      </trkpt>
      <trkpt lat="48.38793" lon="2.67997">
        <ele>100.40000152588</ele>
        <time>2020-09-24T14:30:56Z</time>
      </trkpt>
      <trkpt lat="48.3879" lon="2.68004">
        <ele>100.40000152588</ele>
        <time>2020-09-24T14:31:01Z</time>
      </trkpt>
      <trkpt lat="48.38787" lon="2.68012">
        <ele>100.40000152588</ele>
        <time>2020-09-24T14:31:06Z</time>
      </trkpt>
      <trkpt lat="48.38785" lon="2.68019">
        <ele>100.40000152588</ele>
        <time>2020-09-24T14:31:11Z</time>
      </trkpt>
      <trkpt lat="48.38783" lon="2.68027">
        <ele>100.59999847412</ele>
        <time>2020-09-24T14:31:16Z</time>
      </trkpt>
      <trkpt lat="48.38784" lon="2.68038">
        <ele>100.40000152588</ele>
        <time>2020-09-24T14:31:21Z</time>
      </trkpt>
      <trkpt lat="48.38786" lon="2.68047">
        <ele>100.19999694824</ele>
        <time>2020-09-24T14:31:26Z</time>
      </trkpt>
      <trkpt lat="48.38786" lon="2.68056">
        <ele>100.19999694824</ele>
        <time>2020-09-24T14:31:31Z</time>
      </trkpt>
      <trkpt lat="48.38785" lon="2.68064">
        <ele>100.40000152588</ele>
        <time>2020-09-24T14:31:36Z</time>
      </trkpt>
      <trkpt lat="48.38785" lon="2.6807">
        <ele>100.40000152588</ele>
        <time>2020-09-24T14:31:41Z</time>
      </trkpt>
      <trkpt lat="48.38784" lon="2.68078">
        <ele>100.59999847412</ele>
        <time>2020-09-24T14:31:46Z</time>
      </trkpt>
      <trkpt lat="48.38785" lon="2.68085">
        <ele>100.59999847412</ele>
        <time>2020-09-24T14:31:51Z</time>
      </trkpt>
      <trkpt lat="48.38783" lon="2.68094">
        <ele>100.59999847412</ele>
        <time>2020-09-24T14:31:56Z</time>
      </trkpt>
      <trkpt lat="48.38783" lon="2.68102">
        <ele>100.59999847412</ele>
        <time>2020-09-24T14:32:01Z</time>
      </trkpt>
      <trkpt lat="48.38781" lon="2.6811">
        <ele>100.59999847412</ele>
        <time>2020-09-24T14:32:06Z</time>
      </trkpt>
      <trkpt lat="48.3878" lon="2.68121">
        <ele>100.59999847412</ele>
        <time>2020-09-24T14:32:12Z</time>
      </trkpt>
      <trkpt lat="48.3878" lon="2.68129">
        <ele>100.80000305176</ele>
        <time>2020-09-24T14:32:17Z</time>
      </trkpt>
      <trkpt lat="48.38779" lon="2.68138">
        <ele>100.80000305176</ele>
        <time>2020-09-24T14:32:22Z</time>
      </trkpt>
      <trkpt lat="48.38778" lon="2.68148">
        <ele>101</ele>
        <time>2020-09-24T14:32:27Z</time>
      </trkpt>
      <trkpt lat="48.38776" lon="2.68157">
        <ele>101</ele>
        <time>2020-09-24T14:32:32Z</time>
      </trkpt>
      <trkpt lat="48.38775" lon="2.68166">
        <ele>101.19999694824</ele>
        <time>2020-09-24T14:32:37Z</time>
      </trkpt>
      <trkpt lat="48.38774" lon="2.68176">
        <ele>101</ele>
        <time>2020-09-24T14:32:42Z</time>
      </trkpt>
      <trkpt lat="48.38773" lon="2.68183">
        <ele>101.19999694824</ele>
        <time>2020-09-24T14:32:47Z</time>
      </trkpt>
      <trkpt lat="48.38773" lon="2.6819">
        <ele>101.19999694824</ele>
        <time>2020-09-24T14:32:52Z</time>
      </trkpt>
      <trkpt lat="48.38772" lon="2.68198">
        <ele>101</ele>
        <time>2020-09-24T14:32:57Z</time>
      </trkpt>
      <trkpt lat="48.38771" lon="2.68208">
        <ele>101</ele>
        <time>2020-09-24T14:33:02Z</time>
      </trkpt>
      <trkpt lat="48.38769" lon="2.68215">
        <ele>101</ele>
        <time>2020-09-24T14:33:07Z</time>
      </trkpt>
      <trkpt lat="48.38768" lon="2.68225">
        <ele>101.19999694824</ele>
        <time>2020-09-24T14:33:12Z</time>
      </trkpt>
      <trkpt lat="48.38767" lon="2.68234">
        <ele>101.40000152588</ele>
        <time>2020-09-24T14:33:17Z</time>
      </trkpt>
      <trkpt lat="48.38766" lon="2.68242">
        <ele>101.59999847412</ele>
        <time>2020-09-24T14:33:22Z</time>
      </trkpt>
      <trkpt lat="48.38765" lon="2.68251">
        <ele>101.80000305176</ele>
        <time>2020-09-24T14:33:27Z</time>
      </trkpt>
      <trkpt lat="48.38764" lon="2.68259">
        <ele>102</ele>
        <time>2020-09-24T14:33:32Z</time>
      </trkpt>
      <trkpt lat="48.38763" lon="2.68267">
        <ele>102</ele>
        <time>2020-09-24T14:33:37Z</time>
      </trkpt>
      <trkpt lat="48.38763" lon="2.68275">
        <ele>102</ele>
        <time>2020-09-24T14:33:42Z</time>
      </trkpt>
      <trkpt lat="48.38762" lon="2.68284">
        <ele>102</ele>
        <time>2020-09-24T14:33:47Z</time>
      </trkpt>
      <trkpt lat="48.38761" lon="2.68292">
        <ele>102.19999694824</ele>
        <time>2020-09-24T14:33:52Z</time>
      </trkpt>
      <trkpt lat="48.38758" lon="2.683">
        <ele>102.19999694824</ele>
        <time>2020-09-24T14:33:57Z</time>
      </trkpt>
      <trkpt lat="48.38758" lon="2.68308">
        <ele>102.19999694824</ele>
        <time>2020-09-24T14:34:02Z</time>
      </trkpt>
      <trkpt lat="48.38758" lon="2.68318">
        <ele>102.40000152588</ele>
        <time>2020-09-24T14:34:07Z</time>
      </trkpt>
      <trkpt lat="48.38755" lon="2.68327">
        <ele>102.59999847412</ele>
        <time>2020-09-24T14:34:12Z</time>
      </trkpt>
      <trkpt lat="48.38754" lon="2.68338">
        <ele>103</ele>
        <time>2020-09-24T14:34:17Z</time>
      </trkpt>
      <trkpt lat="48.38755" lon="2.68346">
        <ele>103.19999694824</ele>
        <time>2020-09-24T14:34:22Z</time>
      </trkpt>
      <trkpt lat="48.38755" lon="2.68354">
        <ele>103.19999694824</ele>
        <time>2020-09-24T14:34:27Z</time>
      </trkpt>
      <trkpt lat="48.38752" lon="2.68365">
        <ele>103</ele>
        <time>2020-09-24T14:34:32Z</time>
      </trkpt>
      <trkpt lat="48.3875" lon="2.68374">
        <ele>103</ele>
        <time>2020-09-24T14:34:37Z</time>
      </trkpt>
      <trkpt lat="48.38748" lon="2.68384">
        <ele>103</ele>
        <time>2020-09-24T14:34:42Z</time>
      </trkpt>
      <trkpt lat="48.38748" lon="2.68391">
        <ele>103.19999694824</ele>
        <time>2020-09-24T14:34:47Z</time>
      </trkpt>
      <trkpt lat="48.38747" lon="2.684">
        <ele>103.40000152588</ele>
        <time>2020-09-24T14:34:52Z</time>
      </trkpt>
      <trkpt lat="48.38744" lon="2.68408">
        <ele>103.40000152588</ele>
        <time>2020-09-24T14:34:57Z</time>
      </trkpt>
      <trkpt lat="48.38743" lon="2.68419">
        <ele>103.40000152588</ele>
        <time>2020-09-24T14:35:02Z</time>
      </trkpt>
      <trkpt lat="48.38743" lon="2.6843">
        <ele>103.40000152588</ele>
        <time>2020-09-24T14:35:07Z</time>
      </trkpt>
      <trkpt lat="48.38743" lon="2.68437">
        <ele>103.19999694824</ele>
        <time>2020-09-24T14:35:12Z</time>
      </trkpt>
      <trkpt lat="48.38743" lon="2.68444">
        <ele>103</ele>
        <time>2020-09-24T14:35:17Z</time>
      </trkpt>
      <trkpt lat="48.38741" lon="2.68452">
        <ele>103</ele>
        <time>2020-09-24T14:35:22Z</time>
      </trkpt>
      <trkpt lat="48.38739" lon="2.68459">
        <ele>103</ele>
        <time>2020-09-24T14:35:27Z</time>
      </trkpt>
      <trkpt lat="48.38738" lon="2.68466">
        <ele>103.19999694824</ele>
        <time>2020-09-24T14:35:32Z</time>
      </trkpt>
      <trkpt lat="48.38736" lon="2.68474">
        <ele>103.59999847412</ele>
        <time>2020-09-24T14:35:37Z</time>
      </trkpt>
      <trkpt lat="48.38734" lon="2.68483">
        <ele>103.59999847412</ele>
        <time>2020-09-24T14:35:42Z</time>
      </trkpt>
      <trkpt lat="48.38729" lon="2.68485">
        <ele>103.80000305176</ele>
        <time>2020-09-24T14:35:47Z</time>
      </trkpt>
      <trkpt lat="48.38723" lon="2.68484">
        <ele>103.80000305176</ele>
        <time>2020-09-24T14:35:52Z</time>
      </trkpt>
      <trkpt lat="48.38716" lon="2.68484">
        <ele>104</ele>
        <time>2020-09-24T14:35:57Z</time>
      </trkpt>
      <trkpt lat="48.3871" lon="2.68484">
        <ele>104</ele>
        <time>2020-09-24T14:36:02Z</time>
      </trkpt>
      <trkpt lat="48.38704" lon="2.68485">
        <ele>104.19999694824</ele>
        <time>2020-09-24T14:36:07Z</time>
      </trkpt>
      <trkpt lat="48.38699" lon="2.68487">
        <ele>104.40000152588</ele>
        <time>2020-09-24T14:36:12Z</time>
      </trkpt>
      <trkpt lat="48.38695" lon="2.68487">
        <ele>104.40000152588</ele>
        <time>2020-09-24T14:36:17Z</time>
      </trkpt>
      <trkpt lat="48.3869" lon="2.6849">
        <ele>104.59999847412</ele>
        <time>2020-09-24T14:36:22Z</time>
      </trkpt>
      <trkpt lat="48.38685" lon="2.68491">
        <ele>104.80000305176</ele>
        <time>2020-09-24T14:36:27Z</time>
      </trkpt>
      <trkpt lat="48.38679" lon="2.68491">
        <ele>105</ele>
        <time>2020-09-24T14:36:32Z</time>
      </trkpt>
      <trkpt lat="48.38673" lon="2.68491">
        <ele>105.19999694824</ele>
        <time>2020-09-24T14:36:37Z</time>
      </trkpt>
      <trkpt lat="48.38667" lon="2.68493">
        <ele>105.40000152588</ele>
        <time>2020-09-24T14:36:42Z</time>
      </trkpt>
      <trkpt lat="48.3866" lon="2.68494">
        <ele>105.40000152588</ele>
        <time>2020-09-24T14:36:47Z</time>
      </trkpt>
      <trkpt lat="48.38655" lon="2.68496">
        <ele>105.59999847412</ele>
        <time>2020-09-24T14:36:52Z</time>
      </trkpt>
      <trkpt lat="48.38649" lon="2.68496">
        <ele>105.80000305176</ele>
        <time>2020-09-24T14:36:57Z</time>
      </trkpt>
      <trkpt lat="48.38644" lon="2.68497">
        <ele>106</ele>
        <time>2020-09-24T14:37:02Z</time>
      </trkpt>
      <trkpt lat="48.38639" lon="2.68497">
        <ele>106.19999694824</ele>
        <time>2020-09-24T14:37:07Z</time>
      </trkpt>
      <trkpt lat="48.38633" lon="2.68498">
        <ele>106.59999847412</ele>
        <time>2020-09-24T14:37:12Z</time>
      </trkpt>
      <trkpt lat="48.38627" lon="2.68497">
        <ele>106.80000305176</ele>
        <time>2020-09-24T14:37:17Z</time>
      </trkpt>
      <trkpt lat="48.38622" lon="2.68496">
        <ele>106.80000305176</ele>
        <time>2020-09-24T14:37:22Z</time>
      </trkpt>
      <trkpt lat="48.38618" lon="2.68496">
        <ele>107</ele>
        <time>2020-09-24T14:37:27Z</time>
      </trkpt>
      <trkpt lat="48.38614" lon="2.68498">
        <ele>107</ele>
        <time>2020-09-24T14:37:32Z</time>
      </trkpt>
      <trkpt lat="48.38609" lon="2.68499">
        <ele>107.19999694824</ele>
        <time>2020-09-24T14:37:37Z</time>
      </trkpt>
      <trkpt lat="48.38604" lon="2.68501">
        <ele>107.19999694824</ele>
        <time>2020-09-24T14:37:42Z</time>
      </trkpt>
      <trkpt lat="48.38599" lon="2.68501">
        <ele>107.19999694824</ele>
        <time>2020-09-24T14:37:47Z</time>
      </trkpt>
      <trkpt lat="48.3859" lon="2.68503">
        <ele>107</ele>
        <time>2020-09-24T14:37:52Z</time>
      </trkpt>
      <trkpt lat="48.38586" lon="2.68504">
        <ele>106.80000305176</ele>
        <time>2020-09-24T14:37:57Z</time>
      </trkpt>
      <trkpt lat="48.38582" lon="2.68504">
        <ele>106.40000152588</ele>
        <time>2020-09-24T14:38:02Z</time>
      </trkpt>
      <trkpt lat="48.38578" lon="2.68504">
        <ele>106</ele>
        <time>2020-09-24T14:38:07Z</time>
      </trkpt>
      <trkpt lat="48.38571" lon="2.68506">
        <ele>105.80000305176</ele>
        <time>2020-09-24T14:38:12Z</time>
      </trkpt>
      <trkpt lat="48.38567" lon="2.68506">
        <ele>105.59999847412</ele>
        <time>2020-09-24T14:38:17Z</time>
      </trkpt>
      <trkpt lat="48.38562" lon="2.68506">
        <ele>105.59999847412</ele>
        <time>2020-09-24T14:38:22Z</time>
      </trkpt>
      <trkpt lat="48.38555" lon="2.68507">
        <ele>105.59999847412</ele>
        <time>2020-09-24T14:38:27Z</time>
      </trkpt>
      <trkpt lat="48.3855" lon="2.68508">
        <ele>105.40000152588</ele>
        <time>2020-09-24T14:38:32Z</time>
      </trkpt>
      <trkpt lat="48.38544" lon="2.68509">
        <ele>105.40000152588</ele>
        <time>2020-09-24T14:38:37Z</time>
      </trkpt>
      <trkpt lat="48.38539" lon="2.68508">
        <ele>105.19999694824</ele>
        <time>2020-09-24T14:38:42Z</time>
      </trkpt>
      <trkpt lat="48.38533" lon="2.68509">
        <ele>105.19999694824</ele>
        <time>2020-09-24T14:38:47Z</time>
      </trkpt>
      <trkpt lat="48.38528" lon="2.68509">
        <ele>105.40000152588</ele>
        <time>2020-09-24T14:38:52Z</time>
      </trkpt>
      <trkpt lat="48.38522" lon="2.68509">
        <ele>105.40000152588</ele>
        <time>2020-09-24T14:38:57Z</time>
      </trkpt>
      <trkpt lat="48.38515" lon="2.68509">
        <ele>105.59999847412</ele>
        <time>2020-09-24T14:39:02Z</time>
      </trkpt>
      <trkpt lat="48.38509" lon="2.68509">
        <ele>105.59999847412</ele>
        <time>2020-09-24T14:39:07Z</time>
      </trkpt>
      <trkpt lat="48.38505" lon="2.68511">
        <ele>105.59999847412</ele>
        <time>2020-09-24T14:39:12Z</time>
      </trkpt>
      <trkpt lat="48.385" lon="2.68513">
        <ele>105.59999847412</ele>
        <time>2020-09-24T14:39:17Z</time>
      </trkpt>
      <trkpt lat="48.38495" lon="2.68512">
        <ele>105.59999847412</ele>
        <time>2020-09-24T14:39:22Z</time>
      </trkpt>
      <trkpt lat="48.38491" lon="2.68512">
        <ele>105.59999847412</ele>
        <time>2020-09-24T14:39:27Z</time>
      </trkpt>
      <trkpt lat="48.38483" lon="2.68513">
        <ele>105.80000305176</ele>
        <time>2020-09-24T14:39:32Z</time>
      </trkpt>
      <trkpt lat="48.38476" lon="2.68515">
        <ele>106</ele>
        <time>2020-09-24T14:39:37Z</time>
      </trkpt>
      <trkpt lat="48.38469" lon="2.68515">
        <ele>106</ele>
        <time>2020-09-24T14:39:42Z</time>
      </trkpt>
      <trkpt lat="48.38462" lon="2.68516">
        <ele>105.80000305176</ele>
        <time>2020-09-24T14:39:47Z</time>
      </trkpt>
      <trkpt lat="48.38453" lon="2.68519">
        <ele>105.80000305176</ele>
        <time>2020-09-24T14:39:52Z</time>
      </trkpt>
      <trkpt lat="48.38446" lon="2.68519">
        <ele>105.80000305176</ele>
        <time>2020-09-24T14:39:57Z</time>
      </trkpt>
      <trkpt lat="48.38439" lon="2.68519">
        <ele>105.59999847412</ele>
        <time>2020-09-24T14:40:02Z</time>
      </trkpt>
      <trkpt lat="48.38434" lon="2.68521">
        <ele>105.59999847412</ele>
        <time>2020-09-24T14:40:07Z</time>
      </trkpt>
      <trkpt lat="48.38427" lon="2.68521">
        <ele>105.59999847412</ele>
        <time>2020-09-24T14:40:12Z</time>
      </trkpt>
      <trkpt lat="48.38421" lon="2.68522">
        <ele>105.59999847412</ele>
        <time>2020-09-24T14:40:17Z</time>
      </trkpt>
      <trkpt lat="48.38416" lon="2.68523">
        <ele>105.40000152588</ele>
        <time>2020-09-24T14:40:22Z</time>
      </trkpt>
      <trkpt lat="48.3841" lon="2.68525">
        <ele>105.40000152588</ele>
        <time>2020-09-24T14:40:27Z</time>
      </trkpt>
      <trkpt lat="48.38404" lon="2.68524">
        <ele>105.40000152588</ele>
        <time>2020-09-24T14:40:32Z</time>
      </trkpt>
      <trkpt lat="48.38398" lon="2.68525">
        <ele>105.40000152588</ele>
        <time>2020-09-24T14:40:37Z</time>
      </trkpt>
      <trkpt lat="48.38393" lon="2.68527">
        <ele>105.40000152588</ele>
        <time>2020-09-24T14:40:42Z</time>
      </trkpt>
      <trkpt lat="48.38387" lon="2.68526">
        <ele>105.40000152588</ele>
        <time>2020-09-24T14:40:47Z</time>
      </trkpt>
      <trkpt lat="48.38381" lon="2.68529">
        <ele>105.40000152588</ele>
        <time>2020-09-24T14:40:52Z</time>
      </trkpt>
      <trkpt lat="48.38374" lon="2.68529">
        <ele>105.40000152588</ele>
        <time>2020-09-24T14:40:57Z</time>
      </trkpt>
      <trkpt lat="48.38369" lon="2.68529">
        <ele>105.19999694824</ele>
        <time>2020-09-24T14:41:02Z</time>
      </trkpt>
      <trkpt lat="48.38363" lon="2.68529">
        <ele>105.19999694824</ele>
        <time>2020-09-24T14:41:07Z</time>
      </trkpt>
      <trkpt lat="48.38357" lon="2.68529">
        <ele>105.19999694824</ele>
        <time>2020-09-24T14:41:12Z</time>
      </trkpt>
      <trkpt lat="48.38352" lon="2.6853">
        <ele>105.19999694824</ele>
        <time>2020-09-24T14:41:17Z</time>
      </trkpt>
      <trkpt lat="48.38346" lon="2.68529">
        <ele>105.19999694824</ele>
        <time>2020-09-24T14:41:22Z</time>
      </trkpt>
      <trkpt lat="48.3834" lon="2.68531">
        <ele>105.19999694824</ele>
        <time>2020-09-24T14:41:27Z</time>
      </trkpt>
      <trkpt lat="48.38333" lon="2.68532">
        <ele>105.19999694824</ele>
        <time>2020-09-24T14:41:32Z</time>
      </trkpt>
      <trkpt lat="48.38327" lon="2.68532">
        <ele>105.19999694824</ele>
        <time>2020-09-24T14:41:37Z</time>
      </trkpt>
      <trkpt lat="48.38322" lon="2.68533">
        <ele>105</ele>
        <time>2020-09-24T14:41:42Z</time>
      </trkpt>
      <trkpt lat="48.38317" lon="2.68533">
        <ele>105.19999694824</ele>
        <time>2020-09-24T14:41:47Z</time>
      </trkpt>
      <trkpt lat="48.38312" lon="2.68531">
        <ele>105.19999694824</ele>
        <time>2020-09-24T14:41:52Z</time>
      </trkpt>
      <trkpt lat="48.38306" lon="2.68531">
        <ele>105.19999694824</ele>
        <time>2020-09-24T14:41:57Z</time>
      </trkpt>
      <trkpt lat="48.38301" lon="2.6853">
        <ele>105.19999694824</ele>
        <time>2020-09-24T14:42:02Z</time>
      </trkpt>
      <trkpt lat="48.38295" lon="2.68532">
        <ele>105.40000152588</ele>
        <time>2020-09-24T14:42:07Z</time>
      </trkpt>
      <trkpt lat="48.38289" lon="2.68532">
        <ele>105.59999847412</ele>
        <time>2020-09-24T14:42:12Z</time>
      </trkpt>
      <trkpt lat="48.38282" lon="2.68532">
        <ele>105.80000305176</ele>
        <time>2020-09-24T14:42:17Z</time>
      </trkpt>
      <trkpt lat="48.38277" lon="2.68531">
        <ele>106</ele>
        <time>2020-09-24T14:42:22Z</time>
      </trkpt>
      <trkpt lat="48.38271" lon="2.68529">
        <ele>106</ele>
        <time>2020-09-24T14:42:27Z</time>
      </trkpt>
      <trkpt lat="48.38266" lon="2.68525">
        <ele>106</ele>
        <time>2020-09-24T14:42:32Z</time>
      </trkpt>
      <trkpt lat="48.3826" lon="2.68518">
        <ele>106</ele>
        <time>2020-09-24T14:42:37Z</time>
      </trkpt>
      <trkpt lat="48.38254" lon="2.68515">
        <ele>106</ele>
        <time>2020-09-24T14:42:42Z</time>
      </trkpt>
      <trkpt lat="48.38249" lon="2.68511">
        <ele>106</ele>
        <time>2020-09-24T14:42:47Z</time>
      </trkpt>
      <trkpt lat="48.38244" lon="2.68506">
        <ele>106.19999694824</ele>
        <time>2020-09-24T14:42:52Z</time>
      </trkpt>
      <trkpt lat="48.3824" lon="2.68504">
        <ele>106.19999694824</ele>
        <time>2020-09-24T14:42:57Z</time>
      </trkpt>
      <trkpt lat="48.38234" lon="2.68499">
        <ele>106.19999694824</ele>
        <time>2020-09-24T14:43:02Z</time>
      </trkpt>
      <trkpt lat="48.3823" lon="2.68496">
        <ele>106.19999694824</ele>
        <time>2020-09-24T14:43:07Z</time>
      </trkpt>
      <trkpt lat="48.38226" lon="2.68492">
        <ele>106.19999694824</ele>
        <time>2020-09-24T14:43:12Z</time>
      </trkpt>
      <trkpt lat="48.38222" lon="2.68488">
        <ele>106.40000152588</ele>
        <time>2020-09-24T14:43:17Z</time>
      </trkpt>
      <trkpt lat="48.38216" lon="2.68483">
        <ele>106.40000152588</ele>
        <time>2020-09-24T14:43:22Z</time>
      </trkpt>
      <trkpt lat="48.38212" lon="2.68478">
        <ele>106.59999847412</ele>
        <time>2020-09-24T14:43:27Z</time>
      </trkpt>
      <trkpt lat="48.38207" lon="2.68474">
        <ele>106.59999847412</ele>
        <time>2020-09-24T14:43:32Z</time>
      </trkpt>
      <trkpt lat="48.38202" lon="2.68469">
        <ele>106.80000305176</ele>
        <time>2020-09-24T14:43:37Z</time>
      </trkpt>
      <trkpt lat="48.38197" lon="2.68466">
        <ele>107</ele>
        <time>2020-09-24T14:43:42Z</time>
      </trkpt>
      <trkpt lat="48.38192" lon="2.68462">
        <ele>107.19999694824</ele>
        <time>2020-09-24T14:43:47Z</time>
      </trkpt>
      <trkpt lat="48.38187" lon="2.68457">
        <ele>107</ele>
        <time>2020-09-24T14:43:52Z</time>
      </trkpt>
      <trkpt lat="48.38183" lon="2.68453">
        <ele>106.80000305176</ele>
        <time>2020-09-24T14:43:57Z</time>
      </trkpt>
      <trkpt lat="48.38178" lon="2.68448">
        <ele>107</ele>
        <time>2020-09-24T14:44:02Z</time>
      </trkpt>
      <trkpt lat="48.38173" lon="2.68445">
        <ele>106.80000305176</ele>
        <time>2020-09-24T14:44:07Z</time>
      </trkpt>
      <trkpt lat="48.38168" lon="2.68442">
        <ele>107</ele>
        <time>2020-09-24T14:44:12Z</time>
      </trkpt>
      <trkpt lat="48.38163" lon="2.68436">
        <ele>107.19999694824</ele>
        <time>2020-09-24T14:44:17Z</time>
      </trkpt>
      <trkpt lat="48.38158" lon="2.68432">
        <ele>107.59999847412</ele>
        <time>2020-09-24T14:44:22Z</time>
      </trkpt>
      <trkpt lat="48.38153" lon="2.68428">
        <ele>107.59999847412</ele>
        <time>2020-09-24T14:44:27Z</time>
      </trkpt>
      <trkpt lat="48.38149" lon="2.68422">
        <ele>107.59999847412</ele>
        <time>2020-09-24T14:44:32Z</time>
      </trkpt>
      <trkpt lat="48.38143" lon="2.68417">
        <ele>107.59999847412</ele>
        <time>2020-09-24T14:44:37Z</time>
      </trkpt>
      <trkpt lat="48.38137" lon="2.68417">
        <ele>107.59999847412</ele>
        <time>2020-09-24T14:44:42Z</time>
      </trkpt>
      <trkpt lat="48.38131" lon="2.68414">
        <ele>107.80000305176</ele>
        <time>2020-09-24T14:44:47Z</time>
      </trkpt>
      <trkpt lat="48.38125" lon="2.68409">
        <ele>107.80000305176</ele>
        <time>2020-09-24T14:44:52Z</time>
      </trkpt>
      <trkpt lat="48.3812" lon="2.68406">
        <ele>107.80000305176</ele>
        <time>2020-09-24T14:44:57Z</time>
      </trkpt>
      <trkpt lat="48.38115" lon="2.68402">
        <ele>107.80000305176</ele>
        <time>2020-09-24T14:45:02Z</time>
      </trkpt>
      <trkpt lat="48.38108" lon="2.68397">
        <ele>107.80000305176</ele>
        <time>2020-09-24T14:45:07Z</time>
      </trkpt>
      <trkpt lat="48.38105" lon="2.68392">
        <ele>108</ele>
        <time>2020-09-24T14:45:12Z</time>
      </trkpt>
      <trkpt lat="48.38099" lon="2.68387">
        <ele>108.19999694824</ele>
        <time>2020-09-24T14:45:17Z</time>
      </trkpt>
      <trkpt lat="48.38094" lon="2.68383">
        <ele>108.19999694824</ele>
        <time>2020-09-24T14:45:22Z</time>
      </trkpt>
      <trkpt lat="48.3809" lon="2.68378">
        <ele>108.19999694824</ele>
        <time>2020-09-24T14:45:27Z</time>
      </trkpt>
      <trkpt lat="48.38085" lon="2.68375">
        <ele>108.19999694824</ele>
        <time>2020-09-24T14:45:32Z</time>
      </trkpt>
      <trkpt lat="48.3808" lon="2.68369">
        <ele>108.19999694824</ele>
        <time>2020-09-24T14:45:37Z</time>
      </trkpt>
      <trkpt lat="48.38076" lon="2.68365">
        <ele>108.19999694824</ele>
        <time>2020-09-24T14:45:42Z</time>
      </trkpt>
      <trkpt lat="48.38071" lon="2.6836">
        <ele>108.40000152588</ele>
        <time>2020-09-24T14:45:47Z</time>
      </trkpt>
      <trkpt lat="48.38066" lon="2.68357">
        <ele>108.59999847412</ele>
        <time>2020-09-24T14:45:52Z</time>
      </trkpt>
      <trkpt lat="48.3806" lon="2.68351">
        <ele>108.59999847412</ele>
        <time>2020-09-24T14:45:57Z</time>
      </trkpt>
      <trkpt lat="48.38055" lon="2.68348">
        <ele>108.59999847412</ele>
        <time>2020-09-24T14:46:02Z</time>
      </trkpt>
      <trkpt lat="48.3805" lon="2.68344">
        <ele>108.59999847412</ele>
        <time>2020-09-24T14:46:07Z</time>
      </trkpt>
      <trkpt lat="48.38045" lon="2.6834">
        <ele>108.80000305176</ele>
        <time>2020-09-24T14:46:12Z</time>
      </trkpt>
      <trkpt lat="48.3804" lon="2.68335">
        <ele>109</ele>
        <time>2020-09-24T14:46:17Z</time>
      </trkpt>
      <trkpt lat="48.38035" lon="2.68333">
        <ele>109</ele>
        <time>2020-09-24T14:46:22Z</time>
      </trkpt>
      <trkpt lat="48.3803" lon="2.68327">
        <ele>109</ele>
        <time>2020-09-24T14:46:27Z</time>
      </trkpt>
      <trkpt lat="48.38026" lon="2.68325">
        <ele>109</ele>
        <time>2020-09-24T14:46:32Z</time>
      </trkpt>
      <trkpt lat="48.3802" lon="2.6832">
        <ele>109</ele>
        <time>2020-09-24T14:46:37Z</time>
      </trkpt>
      <trkpt lat="48.38015" lon="2.68317">
        <ele>109</ele>
        <time>2020-09-24T14:46:42Z</time>
      </trkpt>
      <trkpt lat="48.3801" lon="2.68314">
        <ele>109.19999694824</ele>
        <time>2020-09-24T14:46:47Z</time>
      </trkpt>
      <trkpt lat="48.38006" lon="2.68309">
        <ele>109.40000152588</ele>
        <time>2020-09-24T14:46:52Z</time>
      </trkpt>
      <trkpt lat="48.38001" lon="2.68306">
        <ele>109.59999847412</ele>
        <time>2020-09-24T14:46:57Z</time>
      </trkpt>
      <trkpt lat="48.37995" lon="2.68302">
        <ele>109.59999847412</ele>
        <time>2020-09-24T14:47:02Z</time>
      </trkpt>
      <trkpt lat="48.3799" lon="2.68297">
        <ele>109.59999847412</ele>
        <time>2020-09-24T14:47:07Z</time>
      </trkpt>
      <trkpt lat="48.37985" lon="2.68293">
        <ele>109.40000152588</ele>
        <time>2020-09-24T14:47:12Z</time>
      </trkpt>
      <trkpt lat="48.37981" lon="2.68288">
        <ele>109.59999847412</ele>
        <time>2020-09-24T14:47:17Z</time>
      </trkpt>
      <trkpt lat="48.37977" lon="2.68283">
        <ele>109.59999847412</ele>
        <time>2020-09-24T14:47:22Z</time>
      </trkpt>
      <trkpt lat="48.37971" lon="2.68279">
        <ele>109.80000305176</ele>
        <time>2020-09-24T14:47:27Z</time>
      </trkpt>
      <trkpt lat="48.37966" lon="2.68275">
        <ele>110.40000152588</ele>
        <time>2020-09-24T14:47:32Z</time>
      </trkpt>
      <trkpt lat="48.37961" lon="2.68271">
        <ele>110</ele>
        <time>2020-09-24T14:47:37Z</time>
      </trkpt>
      <trkpt lat="48.37956" lon="2.68267">
        <ele>109.80000305176</ele>
        <time>2020-09-24T14:47:42Z</time>
      </trkpt>
      <trkpt lat="48.37951" lon="2.68263">
        <ele>110.40000152588</ele>
        <time>2020-09-24T14:47:47Z</time>
      </trkpt>
      <trkpt lat="48.37946" lon="2.68261">
        <ele>110.59999847412</ele>
        <time>2020-09-24T14:47:52Z</time>
      </trkpt>
      <trkpt lat="48.3794" lon="2.68256">
        <ele>110.59999847412</ele>
        <time>2020-09-24T14:47:57Z</time>
      </trkpt>
      <trkpt lat="48.37935" lon="2.68253">
        <ele>110.59999847412</ele>
        <time>2020-09-24T14:48:02Z</time>
      </trkpt>
      <trkpt lat="48.3793" lon="2.68248">
        <ele>110.80000305176</ele>
        <time>2020-09-24T14:48:07Z</time>
      </trkpt>
      <trkpt lat="48.37925" lon="2.68246">
        <ele>111.19999694824</ele>
        <time>2020-09-24T14:48:12Z</time>
      </trkpt>
      <trkpt lat="48.37918" lon="2.68243">
        <ele>111.19999694824</ele>
        <time>2020-09-24T14:48:17Z</time>
      </trkpt>
      <trkpt lat="48.37912" lon="2.68238">
        <ele>111</ele>
        <time>2020-09-24T14:48:22Z</time>
      </trkpt>
      <trkpt lat="48.37907" lon="2.68236">
        <ele>111</ele>
        <time>2020-09-24T14:48:27Z</time>
      </trkpt>
      <trkpt lat="48.37901" lon="2.6823">
        <ele>111.19999694824</ele>
        <time>2020-09-24T14:48:32Z</time>
      </trkpt>
      <trkpt lat="48.37897" lon="2.68224">
        <ele>111.40000152588</ele>
        <time>2020-09-24T14:48:37Z</time>
      </trkpt>
      <trkpt lat="48.37894" lon="2.68217">
        <ele>111.80000305176</ele>
        <time>2020-09-24T14:48:42Z</time>
      </trkpt>
      <trkpt lat="48.37892" lon="2.6821">
        <ele>112</ele>
        <time>2020-09-24T14:48:47Z</time>
      </trkpt>
      <trkpt lat="48.37892" lon="2.68203">
        <ele>111.80000305176</ele>
        <time>2020-09-24T14:48:52Z</time>
      </trkpt>
      <trkpt lat="48.37891" lon="2.682">
        <ele>111.80000305176</ele>
        <time>2020-09-24T14:48:57Z</time>
      </trkpt>
      <trkpt lat="48.37892" lon="2.682">
        <ele>111.59999847412</ele>
        <time>2020-09-24T14:49:02Z</time>
      </trkpt>
      <trkpt lat="48.37892" lon="2.68199">
        <ele>111.59999847412</ele>
        <time>2020-09-24T14:49:07Z</time>
      </trkpt>
      <trkpt lat="48.37892" lon="2.68199">
        <ele>111.59999847412</ele>
        <time>2020-09-24T14:49:12Z</time>
      </trkpt>
      <trkpt lat="48.37893" lon="2.68199">
        <ele>111.59999847412</ele>
        <time>2020-09-24T14:49:17Z</time>
      </trkpt>
      <trkpt lat="48.37893" lon="2.68199">
        <ele>111.59999847412</ele>
        <time>2020-09-24T14:49:22Z</time>
      </trkpt>
      <trkpt lat="48.37894" lon="2.68199">
        <ele>111.59999847412</ele>
        <time>2020-09-24T14:49:27Z</time>
      </trkpt>
      <trkpt lat="48.37894" lon="2.68201">
        <ele>111.59999847412</ele>
        <time>2020-09-24T14:49:32Z</time>
      </trkpt>
      <trkpt lat="48.37895" lon="2.68201">
        <ele>111.59999847412</ele>
        <time>2020-09-24T14:49:37Z</time>
      </trkpt>
      <trkpt lat="48.37897" lon="2.68201">
        <ele>111.59999847412</ele>
        <time>2020-09-24T14:49:42Z</time>
      </trkpt>
      <trkpt lat="48.37898" lon="2.68201">
        <ele>111.59999847412</ele>
        <time>2020-09-24T14:49:47Z</time>
      </trkpt>
      <trkpt lat="48.37899" lon="2.682">
        <ele>111.59999847412</ele>
        <time>2020-09-24T14:49:52Z</time>
      </trkpt>
      <trkpt lat="48.37899" lon="2.68201">
        <ele>111.59999847412</ele>
        <time>2020-09-24T14:49:57Z</time>
      </trkpt>
      <trkpt lat="48.379" lon="2.68202">
        <ele>111.59999847412</ele>
        <time>2020-09-24T14:50:02Z</time>
      </trkpt>
      <trkpt lat="48.379" lon="2.68201">
        <ele>111.59999847412</ele>
        <time>2020-09-24T14:50:07Z</time>
      </trkpt>
      <trkpt lat="48.379" lon="2.68201">
        <ele>111.59999847412</ele>
        <time>2020-09-24T14:50:12Z</time>
      </trkpt>
      <trkpt lat="48.379" lon="2.68201">
        <ele>111.59999847412</ele>
        <time>2020-09-24T14:50:17Z</time>
      </trkpt>
      <trkpt lat="48.379" lon="2.68201">
        <ele>111.59999847412</ele>
        <time>2020-09-24T14:50:22Z</time>
      </trkpt>
      <trkpt lat="48.379" lon="2.68201">
        <ele>111.59999847412</ele>
        <time>2020-09-24T14:50:27Z</time>
      </trkpt>
      <trkpt lat="48.37899" lon="2.68201">
        <ele>111.59999847412</ele>
        <time>2020-09-24T14:50:32Z</time>
      </trkpt>
      <trkpt lat="48.37898" lon="2.68202">
        <ele>111.59999847412</ele>
        <time>2020-09-24T14:50:37Z</time>
      </trkpt>
      <trkpt lat="48.37898" lon="2.68202">
        <ele>111.59999847412</ele>
        <time>2020-09-24T14:50:42Z</time>
      </trkpt>
      <trkpt lat="48.37898" lon="2.68202">
        <ele>111.59999847412</ele>
        <time>2020-09-24T14:50:47Z</time>
      </trkpt>
      <trkpt lat="48.37898" lon="2.68203">
        <ele>111.59999847412</ele>
        <time>2020-09-24T14:50:52Z</time>
      </trkpt>
      <trkpt lat="48.37898" lon="2.68203">
        <ele>111.59999847412</ele>
        <time>2020-09-24T14:50:57Z</time>
      </trkpt>
      <trkpt lat="48.37898" lon="2.68203">
        <ele>111.59999847412</ele>
        <time>2020-09-24T14:51:02Z</time>
      </trkpt>
      <trkpt lat="48.37899" lon="2.68202">
        <ele>111.59999847412</ele>
        <time>2020-09-24T14:51:07Z</time>
      </trkpt>
      <trkpt lat="48.379" lon="2.68201">
        <ele>111.59999847412</ele>
        <time>2020-09-24T14:51:12Z</time>
      </trkpt>
      <trkpt lat="48.379" lon="2.68201">
        <ele>111.59999847412</ele>
        <time>2020-09-24T14:51:17Z</time>
      </trkpt>
      <trkpt lat="48.37901" lon="2.68201">
        <ele>111.59999847412</ele>
        <time>2020-09-24T14:51:22Z</time>
      </trkpt>
      <trkpt lat="48.37901" lon="2.68201">
        <ele>111.59999847412</ele>
        <time>2020-09-24T14:51:27Z</time>
      </trkpt>
      <trkpt lat="48.37901" lon="2.682">
        <ele>111.59999847412</ele>
        <time>2020-09-24T14:51:32Z</time>
      </trkpt>
      <trkpt lat="48.37901" lon="2.68201">
        <ele>111.59999847412</ele>
        <time>2020-09-24T14:51:37Z</time>
      </trkpt>
      <trkpt lat="48.37901" lon="2.68201">
        <ele>111.59999847412</ele>
        <time>2020-09-24T14:51:42Z</time>
      </trkpt>
      <trkpt lat="48.37901" lon="2.682">
        <ele>111.59999847412</ele>
        <time>2020-09-24T14:51:47Z</time>
      </trkpt>
      <trkpt lat="48.37902" lon="2.682">
        <ele>111.59999847412</ele>
        <time>2020-09-24T14:51:52Z</time>
      </trkpt>
      <trkpt lat="48.37903" lon="2.68198">
        <ele>111.59999847412</ele>
        <time>2020-09-24T14:51:57Z</time>
      </trkpt>
      <trkpt lat="48.37903" lon="2.68191">
        <ele>111.59999847412</ele>
        <time>2020-09-24T14:52:02Z</time>
      </trkpt>
      <trkpt lat="48.37902" lon="2.68184">
        <ele>111.59999847412</ele>
        <time>2020-09-24T14:52:07Z</time>
      </trkpt>
      <trkpt lat="48.37903" lon="2.68176">
        <ele>111.59999847412</ele>
        <time>2020-09-24T14:52:12Z</time>
      </trkpt>
      <trkpt lat="48.37903" lon="2.68168">
        <ele>112.19999694824</ele>
        <time>2020-09-24T14:52:17Z</time>
      </trkpt>
      <trkpt lat="48.37905" lon="2.68162">
        <ele>113.19999694824</ele>
        <time>2020-09-24T14:52:22Z</time>
      </trkpt>
      <trkpt lat="48.37906" lon="2.68154">
        <ele>113.19999694824</ele>
        <time>2020-09-24T14:52:27Z</time>
      </trkpt>
      <trkpt lat="48.37908" lon="2.68145">
        <ele>113.59999847412</ele>
        <time>2020-09-24T14:52:32Z</time>
      </trkpt>
      <trkpt lat="48.37909" lon="2.6814">
        <ele>113.80000305176</ele>
        <time>2020-09-24T14:52:37Z</time>
      </trkpt>
      <trkpt lat="48.37909" lon="2.68133">
        <ele>114</ele>
        <time>2020-09-24T14:52:42Z</time>
      </trkpt>
      <trkpt lat="48.37911" lon="2.68125">
        <ele>114.19999694824</ele>
        <time>2020-09-24T14:52:47Z</time>
      </trkpt>
      <trkpt lat="48.37913" lon="2.68118">
        <ele>114.19999694824</ele>
        <time>2020-09-24T14:52:52Z</time>
      </trkpt>
      <trkpt lat="48.37913" lon="2.6811">
        <ele>114.19999694824</ele>
        <time>2020-09-24T14:52:57Z</time>
      </trkpt>
      <trkpt lat="48.37913" lon="2.68104">
        <ele>114.40000152588</ele>
        <time>2020-09-24T14:53:02Z</time>
      </trkpt>
      <trkpt lat="48.37915" lon="2.68096">
        <ele>114.59999847412</ele>
        <time>2020-09-24T14:53:07Z</time>
      </trkpt>
      <trkpt lat="48.37917" lon="2.68088">
        <ele>115</ele>
        <time>2020-09-24T14:53:12Z</time>
      </trkpt>
      <trkpt lat="48.37919" lon="2.6808">
        <ele>115.59999847412</ele>
        <time>2020-09-24T14:53:17Z</time>
      </trkpt>
      <trkpt lat="48.3792" lon="2.68073">
        <ele>116</ele>
        <time>2020-09-24T14:53:22Z</time>
      </trkpt>
      <trkpt lat="48.37922" lon="2.68064">
        <ele>116.19999694824</ele>
        <time>2020-09-24T14:53:27Z</time>
      </trkpt>
      <trkpt lat="48.37924" lon="2.68056">
        <ele>116.40000152588</ele>
        <time>2020-09-24T14:53:32Z</time>
      </trkpt>
      <trkpt lat="48.37927" lon="2.68048">
        <ele>117.19999694824</ele>
        <time>2020-09-24T14:53:37Z</time>
      </trkpt>
      <trkpt lat="48.3793" lon="2.68041">
        <ele>117.80000305176</ele>
        <time>2020-09-24T14:53:42Z</time>
      </trkpt>
      <trkpt lat="48.37931" lon="2.68035">
        <ele>117.80000305176</ele>
        <time>2020-09-24T14:53:47Z</time>
      </trkpt>
      <trkpt lat="48.37931" lon="2.68029">
        <ele>118</ele>
        <time>2020-09-24T14:53:52Z</time>
      </trkpt>
      <trkpt lat="48.37934" lon="2.68023">
        <ele>118.40000152588</ele>
        <time>2020-09-24T14:53:57Z</time>
      </trkpt>
      <trkpt lat="48.37935" lon="2.68015">
        <ele>119.19999694824</ele>
        <time>2020-09-24T14:54:02Z</time>
      </trkpt>
      <trkpt lat="48.37937" lon="2.68007">
        <ele>120</ele>
        <time>2020-09-24T14:54:07Z</time>
      </trkpt>
      <trkpt lat="48.37938" lon="2.67998">
        <ele>120.40000152588</ele>
        <time>2020-09-24T14:54:12Z</time>
      </trkpt>
      <trkpt lat="48.3794" lon="2.67989">
        <ele>120.59999847412</ele>
        <time>2020-09-24T14:54:17Z</time>
      </trkpt>
      <trkpt lat="48.37942" lon="2.67981">
        <ele>120.59999847412</ele>
        <time>2020-09-24T14:54:22Z</time>
      </trkpt>
      <trkpt lat="48.37943" lon="2.67974">
        <ele>120.59999847412</ele>
        <time>2020-09-24T14:54:27Z</time>
      </trkpt>
      <trkpt lat="48.37945" lon="2.67967">
        <ele>120.80000305176</ele>
        <time>2020-09-24T14:54:32Z</time>
      </trkpt>
      <trkpt lat="48.37947" lon="2.67959">
        <ele>121</ele>
        <time>2020-09-24T14:54:37Z</time>
      </trkpt>
      <trkpt lat="48.37947" lon="2.67951">
        <ele>121</ele>
        <time>2020-09-24T14:54:42Z</time>
      </trkpt>
      <trkpt lat="48.37949" lon="2.67943">
        <ele>121</ele>
        <time>2020-09-24T14:54:47Z</time>
      </trkpt>
      <trkpt lat="48.37951" lon="2.67935">
        <ele>120.80000305176</ele>
        <time>2020-09-24T14:54:52Z</time>
      </trkpt>
      <trkpt lat="48.37952" lon="2.67927">
        <ele>120.80000305176</ele>
        <time>2020-09-24T14:54:57Z</time>
      </trkpt>
      <trkpt lat="48.37954" lon="2.6792">
        <ele>120.59999847412</ele>
        <time>2020-09-24T14:55:02Z</time>
      </trkpt>
      <trkpt lat="48.37956" lon="2.67914">
        <ele>120.59999847412</ele>
        <time>2020-09-24T14:55:07Z</time>
      </trkpt>
      <trkpt lat="48.37957" lon="2.67906">
        <ele>120.59999847412</ele>
        <time>2020-09-24T14:55:12Z</time>
      </trkpt>
      <trkpt lat="48.37958" lon="2.67898">
        <ele>120.59999847412</ele>
        <time>2020-09-24T14:55:17Z</time>
      </trkpt>
      <trkpt lat="48.37959" lon="2.67889">
        <ele>120.59999847412</ele>
        <time>2020-09-24T14:55:22Z</time>
      </trkpt>
      <trkpt lat="48.3796" lon="2.67881">
        <ele>120.80000305176</ele>
        <time>2020-09-24T14:55:27Z</time>
      </trkpt>
      <trkpt lat="48.37961" lon="2.67872">
        <ele>121</ele>
        <time>2020-09-24T14:55:32Z</time>
      </trkpt>
      <trkpt lat="48.37963" lon="2.67864">
        <ele>121.19999694824</ele>
        <time>2020-09-24T14:55:37Z</time>
      </trkpt>
      <trkpt lat="48.37964" lon="2.67855">
        <ele>121.19999694824</ele>
        <time>2020-09-24T14:55:42Z</time>
      </trkpt>
      <trkpt lat="48.37966" lon="2.67849">
        <ele>121.19999694824</ele>
        <time>2020-09-24T14:55:47Z</time>
      </trkpt>
      <trkpt lat="48.37968" lon="2.67842">
        <ele>121.40000152588</ele>
        <time>2020-09-24T14:55:52Z</time>
      </trkpt>
      <trkpt lat="48.37968" lon="2.67834">
        <ele>121.59999847412</ele>
        <time>2020-09-24T14:55:57Z</time>
      </trkpt>
      <trkpt lat="48.3797" lon="2.67826">
        <ele>122</ele>
        <time>2020-09-24T14:56:02Z</time>
      </trkpt>
      <trkpt lat="48.37972" lon="2.67819">
        <ele>122.19999694824</ele>
        <time>2020-09-24T14:56:07Z</time>
      </trkpt>
      <trkpt lat="48.37974" lon="2.67812">
        <ele>122.19999694824</ele>
        <time>2020-09-24T14:56:12Z</time>
      </trkpt>
      <trkpt lat="48.37976" lon="2.67804">
        <ele>122.40000152588</ele>
        <time>2020-09-24T14:56:17Z</time>
      </trkpt>
      <trkpt lat="48.37978" lon="2.67796">
        <ele>122.40000152588</ele>
        <time>2020-09-24T14:56:22Z</time>
      </trkpt>
      <trkpt lat="48.37979" lon="2.67788">
        <ele>122.80000305176</ele>
        <time>2020-09-24T14:56:27Z</time>
      </trkpt>
      <trkpt lat="48.37981" lon="2.67781">
        <ele>123</ele>
        <time>2020-09-24T14:56:32Z</time>
      </trkpt>
      <trkpt lat="48.37982" lon="2.67772">
        <ele>123</ele>
        <time>2020-09-24T14:56:37Z</time>
      </trkpt>
      <trkpt lat="48.37984" lon="2.67764">
        <ele>123.40000152588</ele>
        <time>2020-09-24T14:56:42Z</time>
      </trkpt>
      <trkpt lat="48.37986" lon="2.67756">
        <ele>123.59999847412</ele>
        <time>2020-09-24T14:56:47Z</time>
      </trkpt>
      <trkpt lat="48.37987" lon="2.67749">
        <ele>123.80000305176</ele>
        <time>2020-09-24T14:56:52Z</time>
      </trkpt>
      <trkpt lat="48.37988" lon="2.67742">
        <ele>123.80000305176</ele>
        <time>2020-09-24T14:56:57Z</time>
      </trkpt>
      <trkpt lat="48.37986" lon="2.67738">
        <ele>124.19999694824</ele>
        <time>2020-09-24T14:57:02Z</time>
      </trkpt>
      <trkpt lat="48.37985" lon="2.67737">
        <ele>124.40000152588</ele>
        <time>2020-09-24T14:57:07Z</time>
      </trkpt>
      <trkpt lat="48.37985" lon="2.67735">
        <ele>124.59999847412</ele>
        <time>2020-09-24T14:57:12Z</time>
      </trkpt>
      <trkpt lat="48.37985" lon="2.6774">
        <ele>124.59999847412</ele>
        <time>2020-09-24T14:57:17Z</time>
      </trkpt>
      <trkpt lat="48.37982" lon="2.67741">
        <ele>124.59999847412</ele>
        <time>2020-09-24T14:57:22Z</time>
      </trkpt>
      <trkpt lat="48.37978" lon="2.67742">
        <ele>124.80000305176</ele>
        <time>2020-09-24T14:57:27Z</time>
      </trkpt>
      <trkpt lat="48.37975" lon="2.67746">
        <ele>125</ele>
        <time>2020-09-24T14:57:32Z</time>
      </trkpt>
      <trkpt lat="48.37972" lon="2.67749">
        <ele>125</ele>
        <time>2020-09-24T14:57:37Z</time>
      </trkpt>
      <trkpt lat="48.3797" lon="2.67755">
        <ele>125</ele>
        <time>2020-09-24T14:57:42Z</time>
      </trkpt>
      <trkpt lat="48.37966" lon="2.6776">
        <ele>125</ele>
        <time>2020-09-24T14:57:47Z</time>
      </trkpt>
      <trkpt lat="48.37963" lon="2.6776">
        <ele>125</ele>
        <time>2020-09-24T14:57:52Z</time>
      </trkpt>
      <trkpt lat="48.37958" lon="2.6776">
        <ele>125.19999694824</ele>
        <time>2020-09-24T14:57:57Z</time>
      </trkpt>
      <trkpt lat="48.37955" lon="2.67761">
        <ele>125.59999847412</ele>
        <time>2020-09-24T14:58:02Z</time>
      </trkpt>
      <trkpt lat="48.37953" lon="2.67762">
        <ele>125.80000305176</ele>
        <time>2020-09-24T14:58:07Z</time>
      </trkpt>
      <trkpt lat="48.3795" lon="2.67765">
        <ele>126</ele>
        <time>2020-09-24T14:58:12Z</time>
      </trkpt>
      <trkpt lat="48.37947" lon="2.67769">
        <ele>126.59999847412</ele>
        <time>2020-09-24T14:58:17Z</time>
      </trkpt>
      <trkpt lat="48.37943" lon="2.67771">
        <ele>127.19999694824</ele>
        <time>2020-09-24T14:58:22Z</time>
      </trkpt>
      <trkpt lat="48.3794" lon="2.67774">
        <ele>127.80000305176</ele>
        <time>2020-09-24T14:58:27Z</time>
      </trkpt>
      <trkpt lat="48.37936" lon="2.67775">
        <ele>128.39999389648</ele>
        <time>2020-09-24T14:58:32Z</time>
      </trkpt>
      <trkpt lat="48.37932" lon="2.67776">
        <ele>128.80000305176</ele>
        <time>2020-09-24T14:58:37Z</time>
      </trkpt>
      <trkpt lat="48.37928" lon="2.67777">
        <ele>129.19999694824</ele>
        <time>2020-09-24T14:58:42Z</time>
      </trkpt>
      <trkpt lat="48.37924" lon="2.67777">
        <ele>129.39999389648</ele>
        <time>2020-09-24T14:58:47Z</time>
      </trkpt>
      <trkpt lat="48.3792" lon="2.67778">
        <ele>130</ele>
        <time>2020-09-24T14:58:52Z</time>
      </trkpt>
      <trkpt lat="48.37916" lon="2.67778">
        <ele>131.19999694824</ele>
        <time>2020-09-24T14:58:57Z</time>
      </trkpt>
      <trkpt lat="48.37914" lon="2.67777">
        <ele>132.19999694824</ele>
        <time>2020-09-24T14:59:02Z</time>
      </trkpt>
      <trkpt lat="48.37911" lon="2.67774">
        <ele>133.19999694824</ele>
        <time>2020-09-24T14:59:07Z</time>
      </trkpt>
      <trkpt lat="48.37908" lon="2.67774">
        <ele>133.60000610352</ele>
        <time>2020-09-24T14:59:12Z</time>
      </trkpt>
      <trkpt lat="48.37906" lon="2.67772">
        <ele>134.19999694824</ele>
        <time>2020-09-24T14:59:17Z</time>
      </trkpt>
      <trkpt lat="48.37904" lon="2.67771">
        <ele>135</ele>
        <time>2020-09-24T14:59:22Z</time>
      </trkpt>
      <trkpt lat="48.37902" lon="2.67772">
        <ele>136.39999389648</ele>
        <time>2020-09-24T14:59:27Z</time>
      </trkpt>
      <trkpt lat="48.37901" lon="2.67771">
        <ele>136.80000305176</ele>
        <time>2020-09-24T14:59:32Z</time>
      </trkpt>
      <trkpt lat="48.37898" lon="2.6777">
        <ele>137.39999389648</ele>
        <time>2020-09-24T14:59:37Z</time>
      </trkpt>
      <trkpt lat="48.37895" lon="2.67769">
        <ele>138</ele>
        <time>2020-09-24T14:59:42Z</time>
      </trkpt>
      <trkpt lat="48.37891" lon="2.6777">
        <ele>139</ele>
        <time>2020-09-24T14:59:47Z</time>
      </trkpt>
      <trkpt lat="48.37887" lon="2.67773">
        <ele>139.80000305176</ele>
        <time>2020-09-24T14:59:52Z</time>
      </trkpt>
      <trkpt lat="48.37885" lon="2.67776">
        <ele>140.19999694824</ele>
        <time>2020-09-24T14:59:57Z</time>
      </trkpt>
      <trkpt lat="48.37883" lon="2.67777">
        <ele>141</ele>
        <time>2020-09-24T15:00:02Z</time>
      </trkpt>
      <trkpt lat="48.37881" lon="2.67776">
        <ele>141.80000305176</ele>
        <time>2020-09-24T15:00:07Z</time>
      </trkpt>
      <trkpt lat="48.37879" lon="2.67773">
        <ele>142.39999389648</ele>
        <time>2020-09-24T15:00:12Z</time>
      </trkpt>
      <trkpt lat="48.37874" lon="2.67771">
        <ele>142.80000305176</ele>
        <time>2020-09-24T15:00:17Z</time>
      </trkpt>
      <trkpt lat="48.37873" lon="2.67769">
        <ele>143.19999694824</ele>
        <time>2020-09-24T15:00:22Z</time>
      </trkpt>
      <trkpt lat="48.37871" lon="2.67766">
        <ele>144.19999694824</ele>
        <time>2020-09-24T15:00:27Z</time>
      </trkpt>
      <trkpt lat="48.3787" lon="2.67763">
        <ele>144.80000305176</ele>
        <time>2020-09-24T15:00:32Z</time>
      </trkpt>
      <trkpt lat="48.37865" lon="2.67761">
        <ele>145.19999694824</ele>
        <time>2020-09-24T15:00:37Z</time>
      </trkpt>
      <trkpt lat="48.37864" lon="2.67756">
        <ele>145.80000305176</ele>
        <time>2020-09-24T15:00:42Z</time>
      </trkpt>
      <trkpt lat="48.37862" lon="2.6775">
        <ele>146.60000610352</ele>
        <time>2020-09-24T15:00:47Z</time>
      </trkpt>
      <trkpt lat="48.37861" lon="2.67747">
        <ele>147.19999694824</ele>
        <time>2020-09-24T15:00:52Z</time>
      </trkpt>
      <trkpt lat="48.37861" lon="2.67745">
        <ele>147.39999389648</ele>
        <time>2020-09-24T15:00:57Z</time>
      </trkpt>
      <trkpt lat="48.37861" lon="2.67744">
        <ele>147.60000610352</ele>
        <time>2020-09-24T15:01:02Z</time>
      </trkpt>
      <trkpt lat="48.37861" lon="2.67743">
        <ele>147.80000305176</ele>
        <time>2020-09-24T15:01:07Z</time>
      </trkpt>
      <trkpt lat="48.37861" lon="2.67741">
        <ele>147.80000305176</ele>
        <time>2020-09-24T15:01:12Z</time>
      </trkpt>
      <trkpt lat="48.37861" lon="2.67741">
        <ele>147.80000305176</ele>
        <time>2020-09-24T15:01:17Z</time>
      </trkpt>
      <trkpt lat="48.37861" lon="2.67742">
        <ele>148</ele>
        <time>2020-09-24T15:01:22Z</time>
      </trkpt>
      <trkpt lat="48.37859" lon="2.67742">
        <ele>148.19999694824</ele>
        <time>2020-09-24T15:01:27Z</time>
      </trkpt>
      <trkpt lat="48.37858" lon="2.67741">
        <ele>148.39999389648</ele>
        <time>2020-09-24T15:01:32Z</time>
      </trkpt>
      <trkpt lat="48.37858" lon="2.6774">
        <ele>148.39999389648</ele>
        <time>2020-09-24T15:01:37Z</time>
      </trkpt>
      <trkpt lat="48.37859" lon="2.6774">
        <ele>148.60000610352</ele>
        <time>2020-09-24T15:01:42Z</time>
      </trkpt>
      <trkpt lat="48.37859" lon="2.67741">
        <ele>148.60000610352</ele>
        <time>2020-09-24T15:01:47Z</time>
      </trkpt>
      <trkpt lat="48.3786" lon="2.67741">
        <ele>148.60000610352</ele>
        <time>2020-09-24T15:01:52Z</time>
      </trkpt>
      <trkpt lat="48.3786" lon="2.67737">
        <ele>148.60000610352</ele>
        <time>2020-09-24T15:01:57Z</time>
      </trkpt>
      <trkpt lat="48.37857" lon="2.67734">
        <ele>148.60000610352</ele>
        <time>2020-09-24T15:02:02Z</time>
      </trkpt>
      <trkpt lat="48.37852" lon="2.67734">
        <ele>148.80000305176</ele>
        <time>2020-09-24T15:02:07Z</time>
      </trkpt>
      <trkpt lat="48.37848" lon="2.67732">
        <ele>149.39999389648</ele>
        <time>2020-09-24T15:02:12Z</time>
      </trkpt>
      <trkpt lat="48.37847" lon="2.6773">
        <ele>149.80000305176</ele>
        <time>2020-09-24T15:02:17Z</time>
      </trkpt>
      <trkpt lat="48.37843" lon="2.67729">
        <ele>150.60000610352</ele>
        <time>2020-09-24T15:02:22Z</time>
      </trkpt>
      <trkpt lat="48.37842" lon="2.67728">
        <ele>150.80000305176</ele>
        <time>2020-09-24T15:02:27Z</time>
      </trkpt>
      <trkpt lat="48.37842" lon="2.67725">
        <ele>151</ele>
        <time>2020-09-24T15:02:32Z</time>
      </trkpt>
      <trkpt lat="48.37841" lon="2.67725">
        <ele>151.19999694824</ele>
        <time>2020-09-24T15:02:37Z</time>
      </trkpt>
      <trkpt lat="48.37841" lon="2.67724">
        <ele>151.19999694824</ele>
        <time>2020-09-24T15:02:42Z</time>
      </trkpt>
      <trkpt lat="48.37841" lon="2.67723">
        <ele>151.19999694824</ele>
        <time>2020-09-24T15:02:47Z</time>
      </trkpt>
      <trkpt lat="48.37841" lon="2.67723">
        <ele>151</ele>
        <time>2020-09-24T15:02:52Z</time>
      </trkpt>
      <trkpt lat="48.37842" lon="2.67722">
        <ele>151</ele>
        <time>2020-09-24T15:02:57Z</time>
      </trkpt>
      <trkpt lat="48.37842" lon="2.67721">
        <ele>151</ele>
        <time>2020-09-24T15:03:02Z</time>
      </trkpt>
      <trkpt lat="48.37842" lon="2.67719">
        <ele>150.80000305176</ele>
        <time>2020-09-24T15:03:07Z</time>
      </trkpt>
      <trkpt lat="48.37842" lon="2.67715">
        <ele>150.80000305176</ele>
        <time>2020-09-24T15:03:12Z</time>
      </trkpt>
      <trkpt lat="48.37842" lon="2.67713">
        <ele>151</ele>
        <time>2020-09-24T15:03:17Z</time>
      </trkpt>
      <trkpt lat="48.37841" lon="2.67713">
        <ele>151</ele>
        <time>2020-09-24T15:03:22Z</time>
      </trkpt>
      <trkpt lat="48.37841" lon="2.67711">
        <ele>151</ele>
        <time>2020-09-24T15:03:27Z</time>
      </trkpt>
      <trkpt lat="48.37841" lon="2.67709">
        <ele>151</ele>
        <time>2020-09-24T15:03:32Z</time>
      </trkpt>
      <trkpt lat="48.37841" lon="2.67709">
        <ele>151</ele>
        <time>2020-09-24T15:03:37Z</time>
      </trkpt>
      <trkpt lat="48.37841" lon="2.67709">
        <ele>151</ele>
        <time>2020-09-24T15:03:42Z</time>
      </trkpt>
      <trkpt lat="48.37841" lon="2.67709">
        <ele>151</ele>
        <time>2020-09-24T15:03:47Z</time>
      </trkpt>
      <trkpt lat="48.37842" lon="2.67711">
        <ele>151.39999389648</ele>
        <time>2020-09-24T15:05:47Z</time>
      </trkpt>
      <trkpt lat="48.37839" lon="2.6771">
        <ele>151.39999389648</ele>
        <time>2020-09-24T15:05:52Z</time>
      </trkpt>
      <trkpt lat="48.37837" lon="2.67706">
        <ele>151.60000610352</ele>
        <time>2020-09-24T15:05:57Z</time>
      </trkpt>
      <trkpt lat="48.37833" lon="2.67704">
        <ele>151.39999389648</ele>
        <time>2020-09-24T15:06:02Z</time>
      </trkpt>
      <trkpt lat="48.37831" lon="2.67705">
        <ele>151</ele>
        <time>2020-09-24T15:06:07Z</time>
      </trkpt>
      <trkpt lat="48.37828" lon="2.67706">
        <ele>150.39999389648</ele>
        <time>2020-09-24T15:06:12Z</time>
      </trkpt>
      <trkpt lat="48.37825" lon="2.67706">
        <ele>149.60000610352</ele>
        <time>2020-09-24T15:06:17Z</time>
      </trkpt>
      <trkpt lat="48.37824" lon="2.67707">
        <ele>149.19999694824</ele>
        <time>2020-09-24T15:06:22Z</time>
      </trkpt>
      <trkpt lat="48.37823" lon="2.6771">
        <ele>148.80000305176</ele>
        <time>2020-09-24T15:06:27Z</time>
      </trkpt>
      <trkpt lat="48.37822" lon="2.67713">
        <ele>148.39999389648</ele>
        <time>2020-09-24T15:06:32Z</time>
      </trkpt>
      <trkpt lat="48.37819" lon="2.67715">
        <ele>148</ele>
        <time>2020-09-24T15:06:37Z</time>
      </trkpt>
      <trkpt lat="48.37816" lon="2.67719">
        <ele>147.19999694824</ele>
        <time>2020-09-24T15:06:42Z</time>
      </trkpt>
      <trkpt lat="48.37812" lon="2.67722">
        <ele>146.39999389648</ele>
        <time>2020-09-24T15:06:47Z</time>
      </trkpt>
      <trkpt lat="48.37811" lon="2.67724">
        <ele>146</ele>
        <time>2020-09-24T15:06:52Z</time>
      </trkpt>
      <trkpt lat="48.37809" lon="2.67724">
        <ele>145.80000305176</ele>
        <time>2020-09-24T15:06:57Z</time>
      </trkpt>
      <trkpt lat="48.37807" lon="2.67724">
        <ele>145.19999694824</ele>
        <time>2020-09-24T15:07:02Z</time>
      </trkpt>
      <trkpt lat="48.37806" lon="2.67724">
        <ele>144.80000305176</ele>
        <time>2020-09-24T15:07:07Z</time>
      </trkpt>
      <trkpt lat="48.37804" lon="2.67724">
        <ele>144.39999389648</ele>
        <time>2020-09-24T15:07:12Z</time>
      </trkpt>
      <trkpt lat="48.37803" lon="2.67725">
        <ele>144</ele>
        <time>2020-09-24T15:07:17Z</time>
      </trkpt>
      <trkpt lat="48.378" lon="2.67728">
        <ele>143.60000610352</ele>
        <time>2020-09-24T15:07:22Z</time>
      </trkpt>
      <trkpt lat="48.378" lon="2.67729">
        <ele>142.60000610352</ele>
        <time>2020-09-24T15:07:27Z</time>
      </trkpt>
      <trkpt lat="48.37799" lon="2.67731">
        <ele>142.19999694824</ele>
        <time>2020-09-24T15:07:32Z</time>
      </trkpt>
      <trkpt lat="48.37796" lon="2.67732">
        <ele>141.80000305176</ele>
        <time>2020-09-24T15:07:37Z</time>
      </trkpt>
      <trkpt lat="48.37792" lon="2.67736">
        <ele>141.19999694824</ele>
        <time>2020-09-24T15:07:42Z</time>
      </trkpt>
      <trkpt lat="48.37788" lon="2.67736">
        <ele>140.60000610352</ele>
        <time>2020-09-24T15:07:47Z</time>
      </trkpt>
      <trkpt lat="48.37783" lon="2.67738">
        <ele>140.19999694824</ele>
        <time>2020-09-24T15:07:53Z</time>
      </trkpt>
      <trkpt lat="48.37781" lon="2.6774">
        <ele>139.39999389648</ele>
        <time>2020-09-24T15:07:58Z</time>
      </trkpt>
      <trkpt lat="48.37778" lon="2.67743">
        <ele>139</ele>
        <time>2020-09-24T15:08:03Z</time>
      </trkpt>
      <trkpt lat="48.37775" lon="2.67748">
        <ele>138.80000305176</ele>
        <time>2020-09-24T15:08:08Z</time>
      </trkpt>
      <trkpt lat="48.37772" lon="2.67751">
        <ele>138.39999389648</ele>
        <time>2020-09-24T15:08:13Z</time>
      </trkpt>
      <trkpt lat="48.37769" lon="2.67756">
        <ele>137.60000610352</ele>
        <time>2020-09-24T15:08:18Z</time>
      </trkpt>
      <trkpt lat="48.37765" lon="2.67758">
        <ele>136.80000305176</ele>
        <time>2020-09-24T15:08:23Z</time>
      </trkpt>
      <trkpt lat="48.37762" lon="2.67761">
        <ele>136.39999389648</ele>
        <time>2020-09-24T15:08:28Z</time>
      </trkpt>
      <trkpt lat="48.37758" lon="2.67768">
        <ele>135.60000610352</ele>
        <time>2020-09-24T15:08:33Z</time>
      </trkpt>
      <trkpt lat="48.37755" lon="2.67771">
        <ele>135</ele>
        <time>2020-09-24T15:08:38Z</time>
      </trkpt>
      <trkpt lat="48.37751" lon="2.67774">
        <ele>134.19999694824</ele>
        <time>2020-09-24T15:08:43Z</time>
      </trkpt>
      <trkpt lat="48.37748" lon="2.67778">
        <ele>133.60000610352</ele>
        <time>2020-09-24T15:08:48Z</time>
      </trkpt>
      <trkpt lat="48.37745" lon="2.67782">
        <ele>133.39999389648</ele>
        <time>2020-09-24T15:08:53Z</time>
      </trkpt>
      <trkpt lat="48.37741" lon="2.67786">
        <ele>132.80000305176</ele>
        <time>2020-09-24T15:08:58Z</time>
      </trkpt>
      <trkpt lat="48.37738" lon="2.67791">
        <ele>132.39999389648</ele>
        <time>2020-09-24T15:09:03Z</time>
      </trkpt>
      <trkpt lat="48.37735" lon="2.67794">
        <ele>132.19999694824</ele>
        <time>2020-09-24T15:09:08Z</time>
      </trkpt>
      <trkpt lat="48.37732" lon="2.67801">
        <ele>131.60000610352</ele>
        <time>2020-09-24T15:09:13Z</time>
      </trkpt>
      <trkpt lat="48.37729" lon="2.67807">
        <ele>131.39999389648</ele>
        <time>2020-09-24T15:09:18Z</time>
      </trkpt>
      <trkpt lat="48.37726" lon="2.67811">
        <ele>131</ele>
        <time>2020-09-24T15:09:23Z</time>
      </trkpt>
      <trkpt lat="48.37723" lon="2.67814">
        <ele>130.39999389648</ele>
        <time>2020-09-24T15:09:28Z</time>
      </trkpt>
      <trkpt lat="48.37719" lon="2.67816">
        <ele>130.19999694824</ele>
        <time>2020-09-24T15:09:33Z</time>
      </trkpt>
      <trkpt lat="48.37717" lon="2.67817">
        <ele>130</ele>
        <time>2020-09-24T15:09:38Z</time>
      </trkpt>
      <trkpt lat="48.37716" lon="2.67818">
        <ele>129.80000305176</ele>
        <time>2020-09-24T15:09:43Z</time>
      </trkpt>
      <trkpt lat="48.37716" lon="2.67821">
        <ele>130</ele>
        <time>2020-09-24T15:09:48Z</time>
      </trkpt>
      <trkpt lat="48.37719" lon="2.67826">
        <ele>129.60000610352</ele>
        <time>2020-09-24T15:09:53Z</time>
      </trkpt>
      <trkpt lat="48.37719" lon="2.67834">
        <ele>129.60000610352</ele>
        <time>2020-09-24T15:09:58Z</time>
      </trkpt>
      <trkpt lat="48.37719" lon="2.67841">
        <ele>129.39999389648</ele>
        <time>2020-09-24T15:10:03Z</time>
      </trkpt>
      <trkpt lat="48.37719" lon="2.67847">
        <ele>129.19999694824</ele>
        <time>2020-09-24T15:10:08Z</time>
      </trkpt>
      <trkpt lat="48.37722" lon="2.67851">
        <ele>129</ele>
        <time>2020-09-24T15:10:13Z</time>
      </trkpt>
      <trkpt lat="48.37723" lon="2.67856">
        <ele>128.80000305176</ele>
        <time>2020-09-24T15:10:18Z</time>
      </trkpt>
      <trkpt lat="48.37723" lon="2.67863">
        <ele>128.39999389648</ele>
        <time>2020-09-24T15:10:23Z</time>
      </trkpt>
      <trkpt lat="48.37723" lon="2.67869">
        <ele>128.19999694824</ele>
        <time>2020-09-24T15:10:28Z</time>
      </trkpt>
      <trkpt lat="48.37723" lon="2.67877">
        <ele>127.80000305176</ele>
        <time>2020-09-24T15:10:33Z</time>
      </trkpt>
      <trkpt lat="48.37725" lon="2.67884">
        <ele>127.80000305176</ele>
        <time>2020-09-24T15:10:38Z</time>
      </trkpt>
      <trkpt lat="48.37725" lon="2.67891">
        <ele>127.59999847412</ele>
        <time>2020-09-24T15:10:43Z</time>
      </trkpt>
      <trkpt lat="48.37724" lon="2.67899">
        <ele>127.19999694824</ele>
        <time>2020-09-24T15:10:48Z</time>
      </trkpt>
      <trkpt lat="48.37725" lon="2.67907">
        <ele>127</ele>
        <time>2020-09-24T15:10:53Z</time>
      </trkpt>
      <trkpt lat="48.37724" lon="2.67914">
        <ele>127.19999694824</ele>
        <time>2020-09-24T15:10:58Z</time>
      </trkpt>
      <trkpt lat="48.37724" lon="2.67923">
        <ele>127.19999694824</ele>
        <time>2020-09-24T15:11:03Z</time>
      </trkpt>
      <trkpt lat="48.37727" lon="2.67931">
        <ele>126.80000305176</ele>
        <time>2020-09-24T15:11:08Z</time>
      </trkpt>
      <trkpt lat="48.37729" lon="2.67937">
        <ele>126.59999847412</ele>
        <time>2020-09-24T15:11:13Z</time>
      </trkpt>
      <trkpt lat="48.3773" lon="2.67944">
        <ele>126.40000152588</ele>
        <time>2020-09-24T15:11:18Z</time>
      </trkpt>
      <trkpt lat="48.37728" lon="2.6795">
        <ele>126.40000152588</ele>
        <time>2020-09-24T15:11:23Z</time>
      </trkpt>
      <trkpt lat="48.37729" lon="2.67954">
        <ele>126.19999694824</ele>
        <time>2020-09-24T15:11:28Z</time>
      </trkpt>
      <trkpt lat="48.37731" lon="2.67954">
        <ele>126</ele>
        <time>2020-09-24T15:11:33Z</time>
      </trkpt>
      <trkpt lat="48.37733" lon="2.67954">
        <ele>126</ele>
        <time>2020-09-24T15:11:38Z</time>
      </trkpt>
      <trkpt lat="48.37733" lon="2.67954">
        <ele>126</ele>
        <time>2020-09-24T15:11:43Z</time>
      </trkpt>
      <trkpt lat="48.37734" lon="2.67955">
        <ele>126.80000305176</ele>
        <time>2020-09-24T15:11:48Z</time>
      </trkpt>
      <trkpt lat="48.37735" lon="2.67956">
        <ele>126.59999847412</ele>
        <time>2020-09-24T15:11:53Z</time>
      </trkpt>
      <trkpt lat="48.37734" lon="2.67957">
        <ele>126.59999847412</ele>
        <time>2020-09-24T15:11:58Z</time>
      </trkpt>
      <trkpt lat="48.37733" lon="2.67958">
        <ele>126.80000305176</ele>
        <time>2020-09-24T15:12:03Z</time>
      </trkpt>
      <trkpt lat="48.37733" lon="2.67958">
        <ele>126.80000305176</ele>
        <time>2020-09-24T15:12:08Z</time>
      </trkpt>
      <trkpt lat="48.37732" lon="2.67958">
        <ele>126.59999847412</ele>
        <time>2020-09-24T15:12:13Z</time>
      </trkpt>
      <trkpt lat="48.37731" lon="2.67959">
        <ele>126.59999847412</ele>
        <time>2020-09-24T15:12:18Z</time>
      </trkpt>
      <trkpt lat="48.37731" lon="2.67959">
        <ele>126.59999847412</ele>
        <time>2020-09-24T15:12:23Z</time>
      </trkpt>
      <trkpt lat="48.37731" lon="2.67958">
        <ele>126.80000305176</ele>
        <time>2020-09-24T15:12:28Z</time>
      </trkpt>
    </trkseg>
  </trk>
</gpx>